<?xml version="1.0" encoding="utf-8"?>
<gpx xmlns:xsi="http://www.w3.org/2001/XMLSchema-instance" xmlns:xsd="http://www.w3.org/2001/XMLSchema" version="1.1" creator="Shapelink.com" xmlns="http://www.topografix.com/GPX/1/1" xmlns:gpxtpx="http://www.garmin.com/xmlschemas/TrackPointExtension/v1">
  <metadata>
    <name>Löpning 7.89 km, 2018-02-22</name>
    <desc></desc>
    <author><name>Bengt-Åke Forslund</name></author> 
    <time>2018-02-22T17:55:31Z</time>
  </metadata>
  <trk>
    <name>Löpning 7.89 km, 2018-02-22</name>
    <trkseg>
      <trkpt lat="62.63588848726" lon="17.967723980582">
        <ele>68.4</ele>
        <time>2018-02-22T17:55:31Z</time>
      </trkpt>
      <trkpt lat="62.635978508866" lon="17.968060430048">
        <ele>67.8</ele>
        <time>2018-02-22T17:55:40Z</time>
      </trkpt>
      <trkpt lat="62.635982867454" lon="17.968077361486">
        <ele>67.8</ele>
        <time>2018-02-22T17:55:41Z</time>
      </trkpt>
      <trkpt lat="62.635997954874" lon="17.96812228847">
        <ele>67.8</ele>
        <time>2018-02-22T17:55:42Z</time>
      </trkpt>
      <trkpt lat="62.636012287923" lon="17.968170400576">
        <ele>67.8</ele>
        <time>2018-02-22T17:55:43Z</time>
      </trkpt>
      <trkpt lat="62.636025866601" lon="17.968202922348">
        <ele>67.8</ele>
        <time>2018-02-22T17:55:44Z</time>
      </trkpt>
      <trkpt lat="62.636037852718" lon="17.96824131145">
        <ele>67.8</ele>
        <time>2018-02-22T17:55:45Z</time>
      </trkpt>
      <trkpt lat="62.636050174111" lon="17.968273246489">
        <ele>68</ele>
        <time>2018-02-22T17:55:46Z</time>
      </trkpt>
      <trkpt lat="62.636059561839" lon="17.968296715809">
        <ele>68</ele>
        <time>2018-02-22T17:55:47Z</time>
      </trkpt>
      <trkpt lat="62.63607959458" lon="17.968330494866">
        <ele>68.2</ele>
        <time>2018-02-22T17:55:48Z</time>
      </trkpt>
      <trkpt lat="62.636094179086" lon="17.968359077145">
        <ele>68.2</ele>
        <time>2018-02-22T17:55:49Z</time>
      </trkpt>
      <trkpt lat="62.636112367809" lon="17.968392520926">
        <ele>68.4</ele>
        <time>2018-02-22T17:55:50Z</time>
      </trkpt>
      <trkpt lat="62.636127455229" lon="17.968420935567">
        <ele>68.4</ele>
        <time>2018-02-22T17:55:51Z</time>
      </trkpt>
      <trkpt lat="62.636140028079" lon="17.968440381575">
        <ele>68.4</ele>
        <time>2018-02-22T17:55:52Z</time>
      </trkpt>
      <trkpt lat="62.636152936205" lon="17.968458486479">
        <ele>68.4</ele>
        <time>2018-02-22T17:55:53Z</time>
      </trkpt>
      <trkpt lat="62.636170789652" lon="17.968477178116">
        <ele>68.6</ele>
        <time>2018-02-22T17:55:54Z</time>
      </trkpt>
      <trkpt lat="62.636190654755" lon="17.96848773931">
        <ele>68.6</ele>
        <time>2018-02-22T17:55:55Z</time>
      </trkpt>
      <trkpt lat="62.636211860962" lon="17.968497127038">
        <ele>68.8</ele>
        <time>2018-02-22T17:55:56Z</time>
      </trkpt>
      <trkpt lat="62.636242035802" lon="17.968518249426">
        <ele>68.8</ele>
        <time>2018-02-22T17:55:57Z</time>
      </trkpt>
      <trkpt lat="62.636267768235" lon="17.968523613842">
        <ele>69</ele>
        <time>2018-02-22T17:55:58Z</time>
      </trkpt>
      <trkpt lat="62.636287381881" lon="17.968542473117">
        <ele>69</ele>
        <time>2018-02-22T17:55:59Z</time>
      </trkpt>
      <trkpt lat="62.636315042151" lon="17.968570384844">
        <ele>69</ele>
        <time>2018-02-22T17:56:00Z</time>
      </trkpt>
      <trkpt lat="62.636338343833" lon="17.968599050942">
        <ele>69</ele>
        <time>2018-02-22T17:56:01Z</time>
      </trkpt>
      <trkpt lat="62.636355945823" lon="17.968619670416">
        <ele>69</ele>
        <time>2018-02-22T17:56:02Z</time>
      </trkpt>
      <trkpt lat="62.636382684084" lon="17.968674907137">
        <ele>68.8</ele>
        <time>2018-02-22T17:56:03Z</time>
      </trkpt>
      <trkpt lat="62.636398861151" lon="17.968706171624">
        <ele>68.8</ele>
        <time>2018-02-22T17:56:04Z</time>
      </trkpt>
      <trkpt lat="62.636416044046" lon="17.96873835812">
        <ele>68.8</ele>
        <time>2018-02-22T17:56:05Z</time>
      </trkpt>
      <trkpt lat="62.636434232769" lon="17.968781608724">
        <ele>68.8</ele>
        <time>2018-02-22T17:56:06Z</time>
      </trkpt>
      <trkpt lat="62.636452002397" lon="17.96882636807">
        <ele>68.8</ele>
        <time>2018-02-22T17:56:07Z</time>
      </trkpt>
      <trkpt lat="62.636464659066" lon="17.968850088847">
        <ele>68.8</ele>
        <time>2018-02-22T17:56:08Z</time>
      </trkpt>
      <trkpt lat="62.636481674323" lon="17.968889902872">
        <ele>69</ele>
        <time>2018-02-22T17:56:09Z</time>
      </trkpt>
      <trkpt lat="62.636498857218" lon="17.968940445729">
        <ele>68.8</ele>
        <time>2018-02-22T17:56:10Z</time>
      </trkpt>
      <trkpt lat="62.636508161127" lon="17.968971961673">
        <ele>68.8</ele>
        <time>2018-02-22T17:56:11Z</time>
      </trkpt>
      <trkpt lat="62.636523751461" lon="17.969030132059">
        <ele>69</ele>
        <time>2018-02-22T17:56:12Z</time>
      </trkpt>
      <trkpt lat="62.636541269632" lon="17.969069946084">
        <ele>69</ele>
        <time>2018-02-22T17:56:13Z</time>
      </trkpt>
      <trkpt lat="62.636553339568" lon="17.969105652978">
        <ele>69</ele>
        <time>2018-02-22T17:56:14Z</time>
      </trkpt>
      <trkpt lat="62.636572031205" lon="17.969158961862">
        <ele>69</ele>
        <time>2018-02-22T17:56:15Z</time>
      </trkpt>
      <trkpt lat="62.636587370082" lon="17.969205146131">
        <ele>69</ele>
        <time>2018-02-22T17:56:16Z</time>
      </trkpt>
      <trkpt lat="62.636595668163" lon="17.969232722582">
        <ele>69</ele>
        <time>2018-02-22T17:56:17Z</time>
      </trkpt>
      <trkpt lat="62.636612515782" lon="17.969296005927">
        <ele>69</ele>
        <time>2018-02-22T17:56:18Z</time>
      </trkpt>
      <trkpt lat="62.636622657881" lon="17.969334814124">
        <ele>69.2</ele>
        <time>2018-02-22T17:56:19Z</time>
      </trkpt>
      <trkpt lat="62.636636823292" lon="17.96937957347">
        <ele>69.2</ele>
        <time>2018-02-22T17:56:20Z</time>
      </trkpt>
      <trkpt lat="62.636648222676" lon="17.969441096616">
        <ele>69</ele>
        <time>2018-02-22T17:56:21Z</time>
      </trkpt>
      <trkpt lat="62.636659873517" lon="17.969494154043">
        <ele>69</ele>
        <time>2018-02-22T17:56:22Z</time>
      </trkpt>
      <trkpt lat="62.636668171598" lon="17.969525669987">
        <ele>69.2</ele>
        <time>2018-02-22T17:56:23Z</time>
      </trkpt>
      <trkpt lat="62.636680912086" lon="17.969585181477">
        <ele>69.2</ele>
        <time>2018-02-22T17:56:24Z</time>
      </trkpt>
      <trkpt lat="62.636691640918" lon="17.969639663827">
        <ele>69.2</ele>
        <time>2018-02-22T17:56:25Z</time>
      </trkpt>
      <trkpt lat="62.63670069337" lon="17.969676208911">
        <ele>69.2</ele>
        <time>2018-02-22T17:56:26Z</time>
      </trkpt>
      <trkpt lat="62.636708404718" lon="17.969719794791">
        <ele>69.2</ele>
        <time>2018-02-22T17:56:27Z</time>
      </trkpt>
      <trkpt lat="62.636720558473" lon="17.969778384272">
        <ele>69.4</ele>
        <time>2018-02-22T17:56:28Z</time>
      </trkpt>
      <trkpt lat="62.636729778563" lon="17.969806128361">
        <ele>69.4</ele>
        <time>2018-02-22T17:56:29Z</time>
      </trkpt>
      <trkpt lat="62.636741177947" lon="17.969860191616">
        <ele>69.4</ele>
        <time>2018-02-22T17:56:30Z</time>
      </trkpt>
      <trkpt lat="62.636752074417" lon="17.969909812464">
        <ele>69.6</ele>
        <time>2018-02-22T17:56:31Z</time>
      </trkpt>
      <trkpt lat="62.636765401638" lon="17.96993445525">
        <ele>69.6</ele>
        <time>2018-02-22T17:56:32Z</time>
      </trkpt>
      <trkpt lat="62.636781662524" lon="17.969991284532">
        <ele>69.6</ele>
        <time>2018-02-22T17:56:33Z</time>
      </trkpt>
      <trkpt lat="62.636796079392" lon="17.970027242883">
        <ele>69.8</ele>
        <time>2018-02-22T17:56:34Z</time>
      </trkpt>
      <trkpt lat="62.636811250631" lon="17.970053645868">
        <ele>69.8</ele>
        <time>2018-02-22T17:56:35Z</time>
      </trkpt>
      <trkpt lat="62.636832792114" lon="17.97010376963">
        <ele>70</ele>
        <time>2018-02-22T17:56:36Z</time>
      </trkpt>
      <trkpt lat="62.636853746864" lon="17.970132854823">
        <ele>69.8</ele>
        <time>2018-02-22T17:56:37Z</time>
      </trkpt>
      <trkpt lat="62.636871013578" lon="17.97014903189">
        <ele>69.8</ele>
        <time>2018-02-22T17:56:38Z</time>
      </trkpt>
      <trkpt lat="62.636894650536" lon="17.970182308033">
        <ele>69.8</ele>
        <time>2018-02-22T17:56:39Z</time>
      </trkpt>
      <trkpt lat="62.63691862277" lon="17.970203011326">
        <ele>69.8</ele>
        <time>2018-02-22T17:56:40Z</time>
      </trkpt>
      <trkpt lat="62.636941756814" lon="17.970226396827">
        <ele>70</ele>
        <time>2018-02-22T17:56:41Z</time>
      </trkpt>
      <trkpt lat="62.636963298297" lon="17.970237125659">
        <ele>70</ele>
        <time>2018-02-22T17:56:42Z</time>
      </trkpt>
      <trkpt lat="62.636991629119" lon="17.970253973278">
        <ele>70</ele>
        <time>2018-02-22T17:56:43Z</time>
      </trkpt>
      <trkpt lat="62.637015433715" lon="17.970261684626">
        <ele>70.2</ele>
        <time>2018-02-22T17:56:44Z</time>
      </trkpt>
      <trkpt lat="62.637047452573" lon="17.970254811468">
        <ele>70.2</ele>
        <time>2018-02-22T17:56:45Z</time>
      </trkpt>
      <trkpt lat="62.637076705404" lon="17.970246848663">
        <ele>70</ele>
        <time>2018-02-22T17:56:46Z</time>
      </trkpt>
      <trkpt lat="62.637114423954" lon="17.970238634401">
        <ele>69.8</ele>
        <time>2018-02-22T17:56:47Z</time>
      </trkpt>
      <trkpt lat="62.637145017889" lon="17.970217847289">
        <ele>69.8</ele>
        <time>2018-02-22T17:56:48Z</time>
      </trkpt>
      <trkpt lat="62.637177204385" lon="17.970200664394">
        <ele>69.8</ele>
        <time>2018-02-22T17:56:49Z</time>
      </trkpt>
      <trkpt lat="62.637218862428" lon="17.970176440703">
        <ele>69.8</ele>
        <time>2018-02-22T17:56:50Z</time>
      </trkpt>
      <trkpt lat="62.63725557515" lon="17.970155653591">
        <ele>69.6</ele>
        <time>2018-02-22T17:56:51Z</time>
      </trkpt>
      <trkpt lat="62.637292539329" lon="17.970139141248">
        <ele>69.6</ele>
        <time>2018-02-22T17:56:52Z</time>
      </trkpt>
      <trkpt lat="62.63733017406" lon="17.970123802371">
        <ele>69.4</ele>
        <time>2018-02-22T17:56:53Z</time>
      </trkpt>
      <trkpt lat="62.63736118709" lon="17.970105697467">
        <ele>69.2</ele>
        <time>2018-02-22T17:56:54Z</time>
      </trkpt>
      <trkpt lat="62.637403683323" lon="17.970092705522">
        <ele>69</ele>
        <time>2018-02-22T17:56:55Z</time>
      </trkpt>
      <trkpt lat="62.637438635846" lon="17.970077618102">
        <ele>68.8</ele>
        <time>2018-02-22T17:56:56Z</time>
      </trkpt>
      <trkpt lat="62.637473588369" lon="17.970072924238">
        <ele>68.6</ele>
        <time>2018-02-22T17:56:57Z</time>
      </trkpt>
      <trkpt lat="62.637505607227" lon="17.970080803224">
        <ele>68.2</ele>
        <time>2018-02-22T17:56:58Z</time>
      </trkpt>
      <trkpt lat="62.63753553061" lon="17.970097399386">
        <ele>67.8</ele>
        <time>2018-02-22T17:56:59Z</time>
      </trkpt>
      <trkpt lat="62.637568136201" lon="17.970114247005">
        <ele>67.8</ele>
        <time>2018-02-22T17:57:00Z</time>
      </trkpt>
      <trkpt lat="62.637595628833" lon="17.970155402134">
        <ele>67.8</ele>
        <time>2018-02-22T17:57:01Z</time>
      </trkpt>
      <trkpt lat="62.637618762877" lon="17.970193120684">
        <ele>67.8</ele>
        <time>2018-02-22T17:57:02Z</time>
      </trkpt>
      <trkpt lat="62.637641896921" lon="17.970237963849">
        <ele>67.6</ele>
        <time>2018-02-22T17:57:03Z</time>
      </trkpt>
      <trkpt lat="62.637657487255" lon="17.970270066526">
        <ele>67.6</ele>
        <time>2018-02-22T17:57:04Z</time>
      </trkpt>
      <trkpt lat="62.637678525824" lon="17.970329829473">
        <ele>67.6</ele>
        <time>2018-02-22T17:57:05Z</time>
      </trkpt>
      <trkpt lat="62.637702665696" lon="17.970374505">
        <ele>67.6</ele>
        <time>2018-02-22T17:57:06Z</time>
      </trkpt>
      <trkpt lat="62.637722949894" lon="17.970430328454">
        <ele>67.6</ele>
        <time>2018-02-22T17:57:07Z</time>
      </trkpt>
      <trkpt lat="62.63773082888" lon="17.970480871311">
        <ele>67.6</ele>
        <time>2018-02-22T17:57:08Z</time>
      </trkpt>
      <trkpt lat="62.637741390074" lon="17.970515823834">
        <ele>67.4</ele>
        <time>2018-02-22T17:57:09Z</time>
      </trkpt>
      <trkpt lat="62.637752957096" lon="17.970568545985">
        <ele>67.6</ele>
        <time>2018-02-22T17:57:10Z</time>
      </trkpt>
      <trkpt lat="62.637762847738" lon="17.970626464914">
        <ele>67.6</ele>
        <time>2018-02-22T17:57:11Z</time>
      </trkpt>
      <trkpt lat="62.637771481095" lon="17.97066870969">
        <ele>67.4</ele>
        <time>2018-02-22T17:57:12Z</time>
      </trkpt>
      <trkpt lat="62.637778102796" lon="17.97070726643">
        <ele>67.4</ele>
        <time>2018-02-22T17:57:13Z</time>
      </trkpt>
      <trkpt lat="62.637786736153" lon="17.970761581142">
        <ele>67.2</ele>
        <time>2018-02-22T17:57:14Z</time>
      </trkpt>
      <trkpt lat="62.637795034234" lon="17.970817823691">
        <ele>67.2</ele>
        <time>2018-02-22T17:57:15Z</time>
      </trkpt>
      <trkpt lat="62.637805679247" lon="17.970848752902">
        <ele>67.2</ele>
        <time>2018-02-22T17:57:16Z</time>
      </trkpt>
      <trkpt lat="62.637812300948" lon="17.970895523904">
        <ele>67.4</ele>
        <time>2018-02-22T17:57:17Z</time>
      </trkpt>
      <trkpt lat="62.637830322033" lon="17.970995268514">
        <ele>67.4</ele>
        <time>2018-02-22T17:57:19Z</time>
      </trkpt>
      <trkpt lat="62.637828980929" lon="17.970982025112">
        <ele>67.4</ele>
        <time>2018-02-22T17:57:20Z</time>
      </trkpt>
      <trkpt lat="62.637846666738" lon="17.971097108599">
        <ele>67.6</ele>
        <time>2018-02-22T17:57:21Z</time>
      </trkpt>
      <trkpt lat="62.637854713362" lon="17.9711372579">
        <ele>67.6</ele>
        <time>2018-02-22T17:57:22Z</time>
      </trkpt>
      <trkpt lat="62.637863849633" lon="17.971195595924">
        <ele>67.8</ele>
        <time>2018-02-22T17:57:23Z</time>
      </trkpt>
      <trkpt lat="62.637872734447" lon="17.9712462226">
        <ele>67.6</ele>
        <time>2018-02-22T17:57:24Z</time>
      </trkpt>
      <trkpt lat="62.637879859062" lon="17.97128729391">
        <ele>67.8</ele>
        <time>2018-02-22T17:57:25Z</time>
      </trkpt>
      <trkpt lat="62.637888911514" lon="17.971341524803">
        <ele>67.8</ele>
        <time>2018-02-22T17:57:26Z</time>
      </trkpt>
      <trkpt lat="62.63789762869" lon="17.971384943045">
        <ele>67.8</ele>
        <time>2018-02-22T17:57:27Z</time>
      </trkpt>
      <trkpt lat="62.637906597323" lon="17.971421655767">
        <ele>67.8</ele>
        <time>2018-02-22T17:57:28Z</time>
      </trkpt>
      <trkpt lat="62.637913470481" lon="17.971465660742">
        <ele>68</ele>
        <time>2018-02-22T17:57:29Z</time>
      </trkpt>
      <trkpt lat="62.637922187657" lon="17.971524250223">
        <ele>68</ele>
        <time>2018-02-22T17:57:30Z</time>
      </trkpt>
      <trkpt lat="62.637928809358" lon="17.97155719109">
        <ele>68.2</ele>
        <time>2018-02-22T17:57:31Z</time>
      </trkpt>
      <trkpt lat="62.637934928145" lon="17.971605889929">
        <ele>68.4</ele>
        <time>2018-02-22T17:57:32Z</time>
      </trkpt>
      <trkpt lat="62.637938867638" lon="17.971668502722">
        <ele>68.4</ele>
        <time>2018-02-22T17:57:33Z</time>
      </trkpt>
      <trkpt lat="62.63794456733" lon="17.971712172421">
        <ele>68.6</ele>
        <time>2018-02-22T17:57:34Z</time>
      </trkpt>
      <trkpt lat="62.637951775764" lon="17.971767241504">
        <ele>68.6</ele>
        <time>2018-02-22T17:57:35Z</time>
      </trkpt>
      <trkpt lat="62.637957475456" lon="17.971824322243">
        <ele>68.8</ele>
        <time>2018-02-22T17:57:36Z</time>
      </trkpt>
      <trkpt lat="62.63796133113" lon="17.971870003598">
        <ele>69</ele>
        <time>2018-02-22T17:57:37Z</time>
      </trkpt>
      <trkpt lat="62.637962923691" lon="17.971935550056">
        <ele>69</ele>
        <time>2018-02-22T17:57:38Z</time>
      </trkpt>
      <trkpt lat="62.637964264795" lon="17.971983578343">
        <ele>69</ele>
        <time>2018-02-22T17:57:39Z</time>
      </trkpt>
      <trkpt lat="62.637967617555" lon="17.972042838376">
        <ele>69.2</ele>
        <time>2018-02-22T17:57:40Z</time>
      </trkpt>
      <trkpt lat="62.637969210116" lon="17.972111150861">
        <ele>69</ele>
        <time>2018-02-22T17:57:41Z</time>
      </trkpt>
      <trkpt lat="62.637974155437" lon="17.972163956831">
        <ele>69</ele>
        <time>2018-02-22T17:57:42Z</time>
      </trkpt>
      <trkpt lat="62.637976921464" lon="17.972231012031">
        <ele>69</ele>
        <time>2018-02-22T17:57:43Z</time>
      </trkpt>
      <trkpt lat="62.637977340559" lon="17.972293457186">
        <ele>68.8</ele>
        <time>2018-02-22T17:57:44Z</time>
      </trkpt>
      <trkpt lat="62.637979268396" lon="17.972353220133">
        <ele>69</ele>
        <time>2018-02-22T17:57:45Z</time>
      </trkpt>
      <trkpt lat="62.637981531509" lon="17.972399069126">
        <ele>69</ele>
        <time>2018-02-22T17:57:46Z</time>
      </trkpt>
      <trkpt lat="62.637982202061" lon="17.972437542047">
        <ele>69</ele>
        <time>2018-02-22T17:57:47Z</time>
      </trkpt>
      <trkpt lat="62.63798312407" lon="17.972503256143">
        <ele>68.8</ele>
        <time>2018-02-22T17:57:48Z</time>
      </trkpt>
      <trkpt lat="62.637987817934" lon="17.972539968865">
        <ele>69</ele>
        <time>2018-02-22T17:57:49Z</time>
      </trkpt>
      <trkpt lat="62.637989494314" lon="17.97258565022">
        <ele>69</ele>
        <time>2018-02-22T17:57:50Z</time>
      </trkpt>
      <trkpt lat="62.637994523454" lon="17.972643233873">
        <ele>69.2</ele>
        <time>2018-02-22T17:57:51Z</time>
      </trkpt>
      <trkpt lat="62.637999384956" lon="17.972686987391">
        <ele>69.4</ele>
        <time>2018-02-22T17:57:52Z</time>
      </trkpt>
      <trkpt lat="62.638001983345" lon="17.972729315986">
        <ele>69.4</ele>
        <time>2018-02-22T17:57:53Z</time>
      </trkpt>
      <trkpt lat="62.638006174295" lon="17.972779355929">
        <ele>69.6</ele>
        <time>2018-02-22T17:57:54Z</time>
      </trkpt>
      <trkpt lat="62.63801078434" lon="17.972822438895">
        <ele>69.8</ele>
        <time>2018-02-22T17:57:55Z</time>
      </trkpt>
      <trkpt lat="62.638014891471" lon="17.972863677843">
        <ele>69.8</ele>
        <time>2018-02-22T17:57:56Z</time>
      </trkpt>
      <trkpt lat="62.638015226747" lon="17.972913550148">
        <ele>69.8</ele>
        <time>2018-02-22T17:57:57Z</time>
      </trkpt>
      <trkpt lat="62.638017154584" lon="17.972968200136">
        <ele>70</ele>
        <time>2018-02-22T17:57:58Z</time>
      </trkpt>
      <trkpt lat="62.638019920611" lon="17.973007343609">
        <ele>70</ele>
        <time>2018-02-22T17:57:59Z</time>
      </trkpt>
      <trkpt lat="62.638020674982" lon="17.973058892294">
        <ele>70.2</ele>
        <time>2018-02-22T17:58:00Z</time>
      </trkpt>
      <trkpt lat="62.63802168081" lon="17.973118906698">
        <ele>70.4</ele>
        <time>2018-02-22T17:58:01Z</time>
      </trkpt>
      <trkpt lat="62.638024363018" lon="17.973163749863">
        <ele>70.6</ele>
        <time>2018-02-22T17:58:02Z</time>
      </trkpt>
      <trkpt lat="62.638026123217" lon="17.973207419562">
        <ele>70.6</ele>
        <time>2018-02-22T17:58:03Z</time>
      </trkpt>
      <trkpt lat="62.638026877588" lon="17.973251340718">
        <ele>70.8</ele>
        <time>2018-02-22T17:58:04Z</time>
      </trkpt>
      <trkpt lat="62.638027212864" lon="17.973301213023">
        <ele>70.6</ele>
        <time>2018-02-22T17:58:05Z</time>
      </trkpt>
      <trkpt lat="62.63802670995" lon="17.973356617382">
        <ele>70.8</ele>
        <time>2018-02-22T17:58:06Z</time>
      </trkpt>
      <trkpt lat="62.638027212864" lon="17.973400789995">
        <ele>71</ele>
        <time>2018-02-22T17:58:07Z</time>
      </trkpt>
      <trkpt lat="62.638029475977" lon="17.973436999803">
        <ele>71</ele>
        <time>2018-02-22T17:58:08Z</time>
      </trkpt>
      <trkpt lat="62.638029727434" lon="17.973492320343">
        <ele>71</ele>
        <time>2018-02-22T17:58:09Z</time>
      </trkpt>
      <trkpt lat="62.638028553968" lon="17.973547640883">
        <ele>71.2</ele>
        <time>2018-02-22T17:58:10Z</time>
      </trkpt>
      <trkpt lat="62.638026626131" lon="17.973573792411">
        <ele>71.4</ele>
        <time>2018-02-22T17:58:11Z</time>
      </trkpt>
      <trkpt lat="62.638025285027" lon="17.973641853439">
        <ele>71.6</ele>
        <time>2018-02-22T17:58:12Z</time>
      </trkpt>
      <trkpt lat="62.638024027742" lon="17.973697760712">
        <ele>71.8</ele>
        <time>2018-02-22T17:58:13Z</time>
      </trkpt>
      <trkpt lat="62.638026123217" lon="17.973747884474">
        <ele>72</ele>
        <time>2018-02-22T17:58:14Z</time>
      </trkpt>
      <trkpt lat="62.638030314167" lon="17.973793314372">
        <ele>72.2</ele>
        <time>2018-02-22T17:58:15Z</time>
      </trkpt>
      <trkpt lat="62.638029056882" lon="17.973848634912">
        <ele>72.2</ele>
        <time>2018-02-22T17:58:16Z</time>
      </trkpt>
      <trkpt lat="62.638031906728" lon="17.973889454765">
        <ele>72.4</ele>
        <time>2018-02-22T17:58:17Z</time>
      </trkpt>
      <trkpt lat="62.638033080194" lon="17.97395106173">
        <ele>72.4</ele>
        <time>2018-02-22T17:58:18Z</time>
      </trkpt>
      <trkpt lat="62.638036265316" lon="17.973994982886">
        <ele>72.6</ele>
        <time>2018-02-22T17:58:19Z</time>
      </trkpt>
      <trkpt lat="62.638038947524" lon="17.974044519915">
        <ele>72.4</ele>
        <time>2018-02-22T17:58:20Z</time>
      </trkpt>
      <trkpt lat="62.638039366619" lon="17.974094978953">
        <ele>72.4</ele>
        <time>2018-02-22T17:58:21Z</time>
      </trkpt>
      <trkpt lat="62.638042970836" lon="17.974135128254">
        <ele>72.4</ele>
        <time>2018-02-22T17:58:22Z</time>
      </trkpt>
      <trkpt lat="62.638045904501" lon="17.974193550097">
        <ele>72.4</ele>
        <time>2018-02-22T17:58:23Z</time>
      </trkpt>
      <trkpt lat="62.638050263089" lon="17.974247613352">
        <ele>72.4</ele>
        <time>2018-02-22T17:58:24Z</time>
      </trkpt>
      <trkpt lat="62.638053699668" lon="17.974300670779">
        <ele>72.4</ele>
        <time>2018-02-22T17:58:25Z</time>
      </trkpt>
      <trkpt lat="62.638053783487" lon="17.974347777057">
        <ele>72.4</ele>
        <time>2018-02-22T17:58:26Z</time>
      </trkpt>
      <trkpt lat="62.638055459867" lon="17.974388764548">
        <ele>72.4</ele>
        <time>2018-02-22T17:58:27Z</time>
      </trkpt>
      <trkpt lat="62.638053951125" lon="17.974455903567">
        <ele>72.4</ele>
        <time>2018-02-22T17:58:28Z</time>
      </trkpt>
      <trkpt lat="62.638053448211" lon="17.974504770044">
        <ele>72.4</ele>
        <time>2018-02-22T17:58:29Z</time>
      </trkpt>
      <trkpt lat="62.638050430727" lon="17.974563191887">
        <ele>72.4</ele>
        <time>2018-02-22T17:58:30Z</time>
      </trkpt>
      <trkpt lat="62.638048419071" lon="17.97461658459">
        <ele>72.4</ele>
        <time>2018-02-22T17:58:31Z</time>
      </trkpt>
      <trkpt lat="62.638045653044" lon="17.974660841022">
        <ele>72.4</ele>
        <time>2018-02-22T17:58:32Z</time>
      </trkpt>
      <trkpt lat="62.638036935868" lon="17.974718508494">
        <ele>72.4</ele>
        <time>2018-02-22T17:58:33Z</time>
      </trkpt>
      <trkpt lat="62.638029308339" lon="17.974764441306">
        <ele>72.4</ele>
        <time>2018-02-22T17:58:34Z</time>
      </trkpt>
      <trkpt lat="62.638021513172" lon="17.974805009702">
        <ele>72.2</ele>
        <time>2018-02-22T17:58:35Z</time>
      </trkpt>
      <trkpt lat="62.638006928666" lon="17.974850942514">
        <ele>72.2</ele>
        <time>2018-02-22T17:58:36Z</time>
      </trkpt>
      <trkpt lat="62.637990248685" lon="17.97489067272">
        <ele>72.2</ele>
        <time>2018-02-22T17:58:37Z</time>
      </trkpt>
      <trkpt lat="62.637972814333" lon="17.974932414582">
        <ele>72.2</ele>
        <time>2018-02-22T17:58:38Z</time>
      </trkpt>
      <trkpt lat="62.637956050533" lon="17.974963259974">
        <ele>72.4</ele>
        <time>2018-02-22T17:58:39Z</time>
      </trkpt>
      <trkpt lat="62.637935431059" lon="17.975000559429">
        <ele>72.6</ele>
        <time>2018-02-22T17:58:40Z</time>
      </trkpt>
      <trkpt lat="62.637918751078" lon="17.975031823916">
        <ele>72.8</ele>
        <time>2018-02-22T17:58:41Z</time>
      </trkpt>
      <trkpt lat="62.637898885975" lon="17.975067446991">
        <ele>73</ele>
        <time>2018-02-22T17:58:42Z</time>
      </trkpt>
      <trkpt lat="62.637880445795" lon="17.975103740618">
        <ele>73.2</ele>
        <time>2018-02-22T17:58:43Z</time>
      </trkpt>
      <trkpt lat="62.637865609832" lon="17.975131736164">
        <ele>73.2</ele>
        <time>2018-02-22T17:58:44Z</time>
      </trkpt>
      <trkpt lat="62.63784901367" lon="17.975163419746">
        <ele>73.2</ele>
        <time>2018-02-22T17:58:45Z</time>
      </trkpt>
      <trkpt lat="62.637829148567" lon="17.975200216287">
        <ele>73.4</ele>
        <time>2018-02-22T17:58:46Z</time>
      </trkpt>
      <trkpt lat="62.637803835229" lon="17.975237012828">
        <ele>73.6</ele>
        <time>2018-02-22T17:58:47Z</time>
      </trkpt>
      <trkpt lat="62.637786400877" lon="17.975271294799">
        <ele>73.8</ele>
        <time>2018-02-22T17:58:48Z</time>
      </trkpt>
      <trkpt lat="62.63777190019" lon="17.975300631449">
        <ele>73.8</ele>
        <time>2018-02-22T17:58:49Z</time>
      </trkpt>
      <trkpt lat="62.63775094544" lon="17.975333907592">
        <ele>74</ele>
        <time>2018-02-22T17:58:50Z</time>
      </trkpt>
      <trkpt lat="62.637732589079" lon="17.9753617355">
        <ele>74</ele>
        <time>2018-02-22T17:58:51Z</time>
      </trkpt>
      <trkpt lat="62.637714316537" lon="17.975386629743">
        <ele>74.2</ele>
        <time>2018-02-22T17:58:52Z</time>
      </trkpt>
      <trkpt lat="62.637698810022" lon="17.97540615957">
        <ele>74.4</ele>
        <time>2018-02-22T17:58:53Z</time>
      </trkpt>
      <trkpt lat="62.637683722602" lon="17.975424013017">
        <ele>74.4</ele>
        <time>2018-02-22T17:58:54Z</time>
      </trkpt>
      <trkpt lat="62.637669389553" lon="17.975441531188">
        <ele>74.8</ele>
        <time>2018-02-22T17:58:55Z</time>
      </trkpt>
      <trkpt lat="62.637657571074" lon="17.975453601124">
        <ele>75</ele>
        <time>2018-02-22T17:58:56Z</time>
      </trkpt>
      <trkpt lat="62.637644411491" lon="17.975466760707">
        <ele>75.6</ele>
        <time>2018-02-22T17:58:57Z</time>
      </trkpt>
      <trkpt lat="62.637622115637" lon="17.97548411124">
        <ele>76</ele>
        <time>2018-02-22T17:58:58Z</time>
      </trkpt>
      <trkpt lat="62.637604094552" lon="17.975494923891">
        <ele>76.2</ele>
        <time>2018-02-22T17:58:59Z</time>
      </trkpt>
      <trkpt lat="62.637583642716" lon="17.975510178949">
        <ele>76.4</ele>
        <time>2018-02-22T17:59:00Z</time>
      </trkpt>
      <trkpt lat="62.637560508672" lon="17.975526104559">
        <ele>76.4</ele>
        <time>2018-02-22T17:59:01Z</time>
      </trkpt>
      <trkpt lat="62.637539218646" lon="17.975542365445">
        <ele>76.6</ele>
        <time>2018-02-22T17:59:02Z</time>
      </trkpt>
      <trkpt lat="62.637518850629" lon="17.975557788141">
        <ele>76.8</ele>
        <time>2018-02-22T17:59:03Z</time>
      </trkpt>
      <trkpt lat="62.637499991354" lon="17.97557044481">
        <ele>77</ele>
        <time>2018-02-22T17:59:04Z</time>
      </trkpt>
      <trkpt lat="62.637480461527" lon="17.975582598565">
        <ele>77</ele>
        <time>2018-02-22T17:59:05Z</time>
      </trkpt>
      <trkpt lat="62.637461853709" lon="17.975595087596">
        <ele>77.2</ele>
        <time>2018-02-22T17:59:06Z</time>
      </trkpt>
      <trkpt lat="62.637444922271" lon="17.975606906075">
        <ele>77.4</ele>
        <time>2018-02-22T17:59:07Z</time>
      </trkpt>
      <trkpt lat="62.637427990833" lon="17.975620317115">
        <ele>77.2</ele>
        <time>2018-02-22T17:59:08Z</time>
      </trkpt>
      <trkpt lat="62.637412568137" lon="17.975633141422">
        <ele>77.4</ele>
        <time>2018-02-22T17:59:09Z</time>
      </trkpt>
      <trkpt lat="62.637392954491" lon="17.975644708444">
        <ele>77.6</ele>
        <time>2018-02-22T17:59:10Z</time>
      </trkpt>
      <trkpt lat="62.637378369985" lon="17.975657029837">
        <ele>77.8</ele>
        <time>2018-02-22T17:59:11Z</time>
      </trkpt>
      <trkpt lat="62.637353308104" lon="17.975676224388">
        <ele>78</ele>
        <time>2018-02-22T17:59:12Z</time>
      </trkpt>
      <trkpt lat="62.637335119381" lon="17.975695838034">
        <ele>78</ele>
        <time>2018-02-22T17:59:13Z</time>
      </trkpt>
      <trkpt lat="62.637313913174" lon="17.975716038413">
        <ele>78.2</ele>
        <time>2018-02-22T17:59:14Z</time>
      </trkpt>
      <trkpt lat="62.63728826456" lon="17.975739088638">
        <ele>78.2</ele>
        <time>2018-02-22T17:59:15Z</time>
      </trkpt>
      <trkpt lat="62.637268483276" lon="17.975759372836">
        <ele>78.4</ele>
        <time>2018-02-22T17:59:16Z</time>
      </trkpt>
      <trkpt lat="62.637251719476" lon="17.975779321758">
        <ele>78.6</ele>
        <time>2018-02-22T17:59:17Z</time>
      </trkpt>
      <trkpt lat="62.637235207133" lon="17.975803796906">
        <ele>78.8</ele>
        <time>2018-02-22T17:59:18Z</time>
      </trkpt>
      <trkpt lat="62.637222215188" lon="17.975827182407">
        <ele>79</ele>
        <time>2018-02-22T17:59:19Z</time>
      </trkpt>
      <trkpt lat="62.637206876311" lon="17.975853585392">
        <ele>79.4</ele>
        <time>2018-02-22T17:59:20Z</time>
      </trkpt>
      <trkpt lat="62.637193632909" lon="17.975880491291">
        <ele>79.6</ele>
        <time>2018-02-22T17:59:21Z</time>
      </trkpt>
      <trkpt lat="62.637182568801" lon="17.975911755778">
        <ele>80</ele>
        <time>2018-02-22T17:59:22Z</time>
      </trkpt>
      <trkpt lat="62.637170498865" lon="17.975944361369">
        <ele>80</ele>
        <time>2018-02-22T17:59:23Z</time>
      </trkpt>
      <trkpt lat="62.637160105309" lon="17.975981912281">
        <ele>80.2</ele>
        <time>2018-02-22T17:59:24Z</time>
      </trkpt>
      <trkpt lat="62.637149711753" lon="17.97601971465">
        <ele>80.2</ele>
        <time>2018-02-22T17:59:25Z</time>
      </trkpt>
      <trkpt lat="62.637143592966" lon="17.976054834811">
        <ele>80.4</ele>
        <time>2018-02-22T17:59:26Z</time>
      </trkpt>
      <trkpt lat="62.637136216894" lon="17.976094900293">
        <ele>80.4</ele>
        <time>2018-02-22T17:59:27Z</time>
      </trkpt>
      <trkpt lat="62.63712649389" lon="17.976150807566">
        <ele>80.6</ele>
        <time>2018-02-22T17:59:28Z</time>
      </trkpt>
      <trkpt lat="62.637124733691" lon="17.976189531944">
        <ele>80.8</ele>
        <time>2018-02-22T17:59:29Z</time>
      </trkpt>
      <trkpt lat="62.637120375103" lon="17.976228088684">
        <ele>80.8</ele>
        <time>2018-02-22T17:59:30Z</time>
      </trkpt>
      <trkpt lat="62.637113501945" lon="17.976271255469">
        <ele>80.8</ele>
        <time>2018-02-22T17:59:31Z</time>
      </trkpt>
      <trkpt lat="62.637103359846" lon="17.976321546869">
        <ele>81</ele>
        <time>2018-02-22T17:59:32Z</time>
      </trkpt>
      <trkpt lat="62.637098665982" lon="17.976361779989">
        <ele>81</ele>
        <time>2018-02-22T17:59:33Z</time>
      </trkpt>
      <trkpt lat="62.637091625186" lon="17.976403354213">
        <ele>81.2</ele>
        <time>2018-02-22T17:59:34Z</time>
      </trkpt>
      <trkpt lat="62.63708458439" lon="17.976454483803">
        <ele>81.2</ele>
        <time>2018-02-22T17:59:35Z</time>
      </trkpt>
      <trkpt lat="62.637080561078" lon="17.976496141846">
        <ele>81.4</ele>
        <time>2018-02-22T17:59:36Z</time>
      </trkpt>
      <trkpt lat="62.637073268825" lon="17.976542912848">
        <ele>81.4</ele>
        <time>2018-02-22T17:59:37Z</time>
      </trkpt>
      <trkpt lat="62.637066730943" lon="17.976598568664">
        <ele>81.6</ele>
        <time>2018-02-22T17:59:38Z</time>
      </trkpt>
      <trkpt lat="62.637067317676" lon="17.976636119576">
        <ele>81.8</ele>
        <time>2018-02-22T17:59:39Z</time>
      </trkpt>
      <trkpt lat="62.637066479486" lon="17.976701246939">
        <ele>81.8</ele>
        <time>2018-02-22T17:59:40Z</time>
      </trkpt>
      <trkpt lat="62.637067401495" lon="17.976734020168">
        <ele>81.8</ele>
        <time>2018-02-22T17:59:41Z</time>
      </trkpt>
      <trkpt lat="62.63707117335" lon="17.976803757576">
        <ele>82</ele>
        <time>2018-02-22T17:59:42Z</time>
      </trkpt>
      <trkpt lat="62.637075112843" lon="17.976849774207">
        <ele>82.2</ele>
        <time>2018-02-22T17:59:43Z</time>
      </trkpt>
      <trkpt lat="62.637077459775" lon="17.976905346204">
        <ele>82.2</ele>
        <time>2018-02-22T17:59:44Z</time>
      </trkpt>
      <trkpt lat="62.637080309621" lon="17.97696519297">
        <ele>82.2</ele>
        <time>2018-02-22T17:59:45Z</time>
      </trkpt>
      <trkpt lat="62.63708206982" lon="17.977007270108">
        <ele>82.2</ele>
        <time>2018-02-22T17:59:46Z</time>
      </trkpt>
      <trkpt lat="62.637079722888" lon="17.97706242301">
        <ele>82.4</ele>
        <time>2018-02-22T17:59:47Z</time>
      </trkpt>
      <trkpt lat="62.63708039344" lon="17.977109780745">
        <ele>82.4</ele>
        <time>2018-02-22T17:59:48Z</time>
      </trkpt>
      <trkpt lat="62.63707704068" lon="17.977163089629">
        <ele>82.2</ele>
        <time>2018-02-22T17:59:49Z</time>
      </trkpt>
      <trkpt lat="62.637071005712" lon="17.977218745445">
        <ele>82.4</ele>
        <time>2018-02-22T17:59:50Z</time>
      </trkpt>
      <trkpt lat="62.637068574961" lon="17.977261325497">
        <ele>82.4</ele>
        <time>2018-02-22T17:59:51Z</time>
      </trkpt>
      <trkpt lat="62.637060947432" lon="17.977314466743">
        <ele>82.4</ele>
        <time>2018-02-22T17:59:52Z</time>
      </trkpt>
      <trkpt lat="62.63705692412" lon="17.977364339048">
        <ele>82.4</ele>
        <time>2018-02-22T17:59:53Z</time>
      </trkpt>
      <trkpt lat="62.637046949659" lon="17.977405326539">
        <ele>82.4</ele>
        <time>2018-02-22T17:59:54Z</time>
      </trkpt>
      <trkpt lat="62.6370334548" lon="17.977462910192">
        <ele>82.4</ele>
        <time>2018-02-22T17:59:55Z</time>
      </trkpt>
      <trkpt lat="62.637023647977" lon="17.977506244615">
        <ele>82.4</ele>
        <time>2018-02-22T17:59:56Z</time>
      </trkpt>
      <trkpt lat="62.637007303272" lon="17.977555697825">
        <ele>82.4</ele>
        <time>2018-02-22T17:59:57Z</time>
      </trkpt>
      <trkpt lat="62.636995652431" lon="17.977608671433">
        <ele>82.4</ele>
        <time>2018-02-22T17:59:58Z</time>
      </trkpt>
      <trkpt lat="62.636987857264" lon="17.977645467974">
        <ele>82.4</ele>
        <time>2018-02-22T17:59:59Z</time>
      </trkpt>
      <trkpt lat="62.636974949138" lon="17.977702129618">
        <ele>82.6</ele>
        <time>2018-02-22T18:00:00Z</time>
      </trkpt>
      <trkpt lat="62.636969584722" lon="17.977742446557">
        <ele>82.6</ele>
        <time>2018-02-22T18:00:01Z</time>
      </trkpt>
      <trkpt lat="62.636963214478" lon="17.977790893939">
        <ele>82.6</ele>
        <time>2018-02-22T18:00:02Z</time>
      </trkpt>
      <trkpt lat="62.63695885589" lon="17.97784193971">
        <ele>82.6</ele>
        <time>2018-02-22T18:00:03Z</time>
      </trkpt>
      <trkpt lat="62.636956928053" lon="17.977876808414">
        <ele>82.8</ele>
        <time>2018-02-22T18:00:04Z</time>
      </trkpt>
      <trkpt lat="62.636950725447" lon="17.977931961316">
        <ele>82.8</ele>
        <time>2018-02-22T18:00:05Z</time>
      </trkpt>
      <trkpt lat="62.636943936108" lon="17.977985856933">
        <ele>82.8</ele>
        <time>2018-02-22T18:00:06Z</time>
      </trkpt>
      <trkpt lat="62.636938152597" lon="17.978028520804">
        <ele>82.8</ele>
        <time>2018-02-22T18:00:07Z</time>
      </trkpt>
      <trkpt lat="62.636928429593" lon="17.978083589887">
        <ele>82.8</ele>
        <time>2018-02-22T18:00:08Z</time>
      </trkpt>
      <trkpt lat="62.636922226987" lon="17.97812860069">
        <ele>82.8</ele>
        <time>2018-02-22T18:00:09Z</time>
      </trkpt>
      <trkpt lat="62.636916275838" lon="17.978174282045">
        <ele>83</ele>
        <time>2018-02-22T18:00:10Z</time>
      </trkpt>
      <trkpt lat="62.636904708816" lon="17.978231362784">
        <ele>82.8</ele>
        <time>2018-02-22T18:00:11Z</time>
      </trkpt>
      <trkpt lat="62.636894399079" lon="17.978277630872">
        <ele>83</ele>
        <time>2018-02-22T18:00:12Z</time>
      </trkpt>
      <trkpt lat="62.636882329143" lon="17.978324234236">
        <ele>82.8</ele>
        <time>2018-02-22T18:00:13Z</time>
      </trkpt>
      <trkpt lat="62.636864391877" lon="17.978379051862">
        <ele>83</ele>
        <time>2018-02-22T18:00:14Z</time>
      </trkpt>
      <trkpt lat="62.636851483751" lon="17.978425152312">
        <ele>83</ele>
        <time>2018-02-22T18:00:15Z</time>
      </trkpt>
      <trkpt lat="62.636831618648" lon="17.978473012961">
        <ele>83.2</ele>
        <time>2018-02-22T18:00:16Z</time>
      </trkpt>
      <trkpt lat="62.636814938667" lon="17.978513916633">
        <ele>83.2</ele>
        <time>2018-02-22T18:00:17Z</time>
      </trkpt>
      <trkpt lat="62.636799348333" lon="17.97854853388">
        <ele>83.2</ele>
        <time>2018-02-22T18:00:18Z</time>
      </trkpt>
      <trkpt lat="62.636780489058" lon="17.978577283797">
        <ele>83.2</ele>
        <time>2018-02-22T18:00:19Z</time>
      </trkpt>
      <trkpt lat="62.636760540136" lon="17.978610811397">
        <ele>83.4</ele>
        <time>2018-02-22T18:00:20Z</time>
      </trkpt>
      <trkpt lat="62.636741680861" lon="17.978633945441">
        <ele>83.4</ele>
        <time>2018-02-22T18:00:21Z</time>
      </trkpt>
      <trkpt lat="62.636725922889" lon="17.978656157476">
        <ele>83.6</ele>
        <time>2018-02-22T18:00:22Z</time>
      </trkpt>
      <trkpt lat="62.636701615379" lon="17.978683733927">
        <ele>83.6</ele>
        <time>2018-02-22T18:00:23Z</time>
      </trkpt>
      <trkpt lat="62.636678648973" lon="17.978700581546">
        <ele>83.8</ele>
        <time>2018-02-22T18:00:24Z</time>
      </trkpt>
      <trkpt lat="62.636658029499" lon="17.978714998414">
        <ele>84</ele>
        <time>2018-02-22T18:00:25Z</time>
      </trkpt>
      <trkpt lat="62.636637912939" lon="17.978721787753">
        <ele>84</ele>
        <time>2018-02-22T18:00:26Z</time>
      </trkpt>
      <trkpt lat="62.636609749755" lon="17.978723128857">
        <ele>84.2</ele>
        <time>2018-02-22T18:00:27Z</time>
      </trkpt>
      <trkpt lat="62.636582843856" lon="17.978721452477">
        <ele>84.4</ele>
        <time>2018-02-22T18:00:28Z</time>
      </trkpt>
      <trkpt lat="62.636564403676" lon="17.97872203921">
        <ele>84.6</ele>
        <time>2018-02-22T18:00:29Z</time>
      </trkpt>
      <trkpt lat="62.636540012347" lon="17.978720279011">
        <ele>84.6</ele>
        <time>2018-02-22T18:00:30Z</time>
      </trkpt>
      <trkpt lat="62.636524254375" lon="17.978720195192">
        <ele>84.8</ele>
        <time>2018-02-22T18:00:31Z</time>
      </trkpt>
      <trkpt lat="62.636489888585" lon="17.978717764441">
        <ele>85</ele>
        <time>2018-02-22T18:00:32Z</time>
      </trkpt>
      <trkpt lat="62.636465916351" lon="17.978714663138">
        <ele>85</ele>
        <time>2018-02-22T18:00:33Z</time>
      </trkpt>
      <trkpt lat="62.636449823103" lon="17.978714244043">
        <ele>85</ele>
        <time>2018-02-22T18:00:34Z</time>
      </trkpt>
      <trkpt lat="62.636428868353" lon="17.978715752785">
        <ele>85</ele>
        <time>2018-02-22T18:00:35Z</time>
      </trkpt>
      <trkpt lat="62.636405063757" lon="17.97871868645">
        <ele>85.2</ele>
        <time>2018-02-22T18:00:36Z</time>
      </trkpt>
      <trkpt lat="62.636383186998" lon="17.9787228774">
        <ele>85.2</ele>
        <time>2018-02-22T18:00:37Z</time>
      </trkpt>
      <trkpt lat="62.636364495361" lon="17.978730085834">
        <ele>85.4</ele>
        <time>2018-02-22T18:00:38Z</time>
      </trkpt>
      <trkpt lat="62.63634865357" lon="17.978737713363">
        <ele>85.6</ele>
        <time>2018-02-22T18:00:39Z</time>
      </trkpt>
      <trkpt lat="62.636330716304" lon="17.978744502702">
        <ele>85.6</ele>
        <time>2018-02-22T18:00:40Z</time>
      </trkpt>
      <trkpt lat="62.636313114314" lon="17.978753806611">
        <ele>86</ele>
        <time>2018-02-22T18:00:41Z</time>
      </trkpt>
      <trkpt lat="62.636293835944" lon="17.978767552927">
        <ele>86.2</ele>
        <time>2018-02-22T18:00:42Z</time>
      </trkpt>
      <trkpt lat="62.636276653049" lon="17.978782472709">
        <ele>86.6</ele>
        <time>2018-02-22T18:00:43Z</time>
      </trkpt>
      <trkpt lat="62.636261733267" lon="17.978796219025">
        <ele>87</ele>
        <time>2018-02-22T18:00:44Z</time>
      </trkpt>
      <trkpt lat="62.636245053286" lon="17.978814659205">
        <ele>87.4</ele>
        <time>2018-02-22T18:00:45Z</time>
      </trkpt>
      <trkpt lat="62.636227618934" lon="17.978832177376">
        <ele>87.8</ele>
        <time>2018-02-22T18:00:46Z</time>
      </trkpt>
      <trkpt lat="62.636214375532" lon="17.978845504597">
        <ele>88</ele>
        <time>2018-02-22T18:00:47Z</time>
      </trkpt>
      <trkpt lat="62.636193420782" lon="17.978886156812">
        <ele>88.2</ele>
        <time>2018-02-22T18:00:48Z</time>
      </trkpt>
      <trkpt lat="62.63617766281" lon="17.978908368847">
        <ele>88.2</ele>
        <time>2018-02-22T18:00:49Z</time>
      </trkpt>
      <trkpt lat="62.636162491571" lon="17.978927060484">
        <ele>88.6</ele>
        <time>2018-02-22T18:00:50Z</time>
      </trkpt>
      <trkpt lat="62.636150924549" lon="17.978945165388">
        <ele>88.8</ele>
        <time>2018-02-22T18:00:51Z</time>
      </trkpt>
      <trkpt lat="62.63613910607" lon="17.97896427612">
        <ele>89</ele>
        <time>2018-02-22T18:00:52Z</time>
      </trkpt>
      <trkpt lat="62.636128293419" lon="17.978980872282">
        <ele>89.2</ele>
        <time>2018-02-22T18:00:53Z</time>
      </trkpt>
      <trkpt lat="62.636114463284" lon="17.978998809548">
        <ele>89.6</ele>
        <time>2018-02-22T18:00:54Z</time>
      </trkpt>
      <trkpt lat="62.636100130235" lon="17.979017752642">
        <ele>89.8</ele>
        <time>2018-02-22T18:00:55Z</time>
      </trkpt>
      <trkpt lat="62.636086803014" lon="17.979041305781">
        <ele>90</ele>
        <time>2018-02-22T18:00:56Z</time>
      </trkpt>
      <trkpt lat="62.63607372725" lon="17.979065445653">
        <ele>90.2</ele>
        <time>2018-02-22T18:00:57Z</time>
      </trkpt>
      <trkpt lat="62.636059897115" lon="17.979093525018">
        <ele>90.4</ele>
        <time>2018-02-22T18:00:58Z</time>
      </trkpt>
      <trkpt lat="62.636051012301" lon="17.979117329614">
        <ele>90.6</ele>
        <time>2018-02-22T18:00:59Z</time>
      </trkpt>
      <trkpt lat="62.636035589605" lon="17.979155718716">
        <ele>90.8</ele>
        <time>2018-02-22T18:01:00Z</time>
      </trkpt>
      <trkpt lat="62.636022430022" lon="17.979197544397">
        <ele>91.2</ele>
        <time>2018-02-22T18:01:01Z</time>
      </trkpt>
      <trkpt lat="62.636015305407" lon="17.979234592395">
        <ele>91.4</ele>
        <time>2018-02-22T18:01:02Z</time>
      </trkpt>
      <trkpt lat="62.636006755869" lon="17.979283291234">
        <ele>91.6</ele>
        <time>2018-02-22T18:01:03Z</time>
      </trkpt>
      <trkpt lat="62.636001307634" lon="17.979327715304">
        <ele>92</ele>
        <time>2018-02-22T18:01:04Z</time>
      </trkpt>
      <trkpt lat="62.635996362313" lon="17.979389825183">
        <ele>92.2</ele>
        <time>2018-02-22T18:01:05Z</time>
      </trkpt>
      <trkpt lat="62.635992758096" lon="17.979446905922">
        <ele>92.6</ele>
        <time>2018-02-22T18:01:06Z</time>
      </trkpt>
      <trkpt lat="62.635989321517" lon="17.979518068253">
        <ele>92.4</ele>
        <time>2018-02-22T18:01:07Z</time>
      </trkpt>
      <trkpt lat="62.635982196902" lon="17.979617729044">
        <ele>92.4</ele>
        <time>2018-02-22T18:01:08Z</time>
      </trkpt>
      <trkpt lat="62.635977167762" lon="17.979736752024">
        <ele>92.2</ele>
        <time>2018-02-22T18:01:09Z</time>
      </trkpt>
      <trkpt lat="62.635974569373" lon="17.979879076686">
        <ele>91.2</ele>
        <time>2018-02-22T18:01:10Z</time>
      </trkpt>
      <trkpt lat="62.635976245753" lon="17.979995501277">
        <ele>90.2</ele>
        <time>2018-02-22T18:01:11Z</time>
      </trkpt>
      <trkpt lat="62.635981610169" lon="17.980107734918">
        <ele>89.6</ele>
        <time>2018-02-22T18:01:12Z</time>
      </trkpt>
      <trkpt lat="62.63599577558" lon="17.980252071236">
        <ele>88.6</ele>
        <time>2018-02-22T18:01:13Z</time>
      </trkpt>
      <trkpt lat="62.636011114457" lon="17.980362125583">
        <ele>87.8</ele>
        <time>2018-02-22T18:01:14Z</time>
      </trkpt>
      <trkpt lat="62.63602846499" lon="17.980481148563">
        <ele>87</ele>
        <time>2018-02-22T18:01:15Z</time>
      </trkpt>
      <trkpt lat="62.63604271422" lon="17.980583994476">
        <ele>86.8</ele>
        <time>2018-02-22T18:01:16Z</time>
      </trkpt>
      <trkpt lat="62.636058723649" lon="17.980675189548">
        <ele>86.4</ele>
        <time>2018-02-22T18:01:17Z</time>
      </trkpt>
      <trkpt lat="62.636076744734" lon="17.980774515063">
        <ele>86.2</ele>
        <time>2018-02-22T18:01:18Z</time>
      </trkpt>
      <trkpt lat="62.636092586525" lon="17.980852969647">
        <ele>86.2</ele>
        <time>2018-02-22T18:01:19Z</time>
      </trkpt>
      <trkpt lat="62.636110356153" lon="17.980953552447">
        <ele>86</ele>
        <time>2018-02-22T18:01:20Z</time>
      </trkpt>
      <trkpt lat="62.636131059446" lon="17.981040556569">
        <ele>85.8</ele>
        <time>2018-02-22T18:01:21Z</time>
      </trkpt>
      <trkpt lat="62.636148577617" lon="17.981124207931">
        <ele>85.6</ele>
        <time>2018-02-22T18:01:22Z</time>
      </trkpt>
      <trkpt lat="62.636162910666" lon="17.98120140523">
        <ele>85.6</ele>
        <time>2018-02-22T18:01:23Z</time>
      </trkpt>
      <trkpt lat="62.636183278683" lon="17.981269550077">
        <ele>85.6</ele>
        <time>2018-02-22T18:01:24Z</time>
      </trkpt>
      <trkpt lat="62.636197192637" lon="17.98135647038">
        <ele>85.6</ele>
        <time>2018-02-22T18:01:25Z</time>
      </trkpt>
      <trkpt lat="62.636202054139" lon="17.981433332403">
        <ele>85.8</ele>
        <time>2018-02-22T18:01:26Z</time>
      </trkpt>
      <trkpt lat="62.636210436039" lon="17.981497956852">
        <ele>85.8</ele>
        <time>2018-02-22T18:01:27Z</time>
      </trkpt>
      <trkpt lat="62.636219069396" lon="17.981572052848">
        <ele>85.8</ele>
        <time>2018-02-22T18:01:28Z</time>
      </trkpt>
      <trkpt lat="62.636224517631" lon="17.981629552682">
        <ele>85.6</ele>
        <time>2018-02-22T18:01:29Z</time>
      </trkpt>
      <trkpt lat="62.63623382154" lon="17.981705408877">
        <ele>85.6</ele>
        <time>2018-02-22T18:01:30Z</time>
      </trkpt>
      <trkpt lat="62.636244801829" lon="17.981772464077">
        <ele>85.4</ele>
        <time>2018-02-22T18:01:31Z</time>
      </trkpt>
      <trkpt lat="62.636261649448" lon="17.981828958083">
        <ele>85.2</ele>
        <time>2018-02-22T18:01:32Z</time>
      </trkpt>
      <trkpt lat="62.636270953357" lon="17.981905317192">
        <ele>85.2</ele>
        <time>2018-02-22T18:01:33Z</time>
      </trkpt>
      <trkpt lat="62.636275311945" lon="17.98196415813">
        <ele>85.2</ele>
        <time>2018-02-22T18:01:34Z</time>
      </trkpt>
      <trkpt lat="62.636281346913" lon="17.982029034036">
        <ele>85</ele>
        <time>2018-02-22T18:01:35Z</time>
      </trkpt>
      <trkpt lat="62.636284783492" lon="17.982106398973">
        <ele>85.2</ele>
        <time>2018-02-22T18:01:36Z</time>
      </trkpt>
      <trkpt lat="62.636291153736" lon="17.982166664834">
        <ele>85</ele>
        <time>2018-02-22T18:01:37Z</time>
      </trkpt>
      <trkpt lat="62.636293081573" lon="17.982223913211">
        <ele>85</ele>
        <time>2018-02-22T18:01:38Z</time>
      </trkpt>
      <trkpt lat="62.636292075745" lon="17.982281580683">
        <ele>85</ele>
        <time>2018-02-22T18:01:39Z</time>
      </trkpt>
      <trkpt lat="62.636299619455" lon="17.982341175992">
        <ele>85</ele>
        <time>2018-02-22T18:01:40Z</time>
      </trkpt>
      <trkpt lat="62.636299451817" lon="17.982402112405">
        <ele>85.2</ele>
        <time>2018-02-22T18:01:41Z</time>
      </trkpt>
      <trkpt lat="62.636298445989" lon="17.982468161777">
        <ele>85</ele>
        <time>2018-02-22T18:01:42Z</time>
      </trkpt>
      <trkpt lat="62.636298445989" lon="17.982524152869">
        <ele>85</ele>
        <time>2018-02-22T18:01:43Z</time>
      </trkpt>
      <trkpt lat="62.636294925591" lon="17.982588022947">
        <ele>85</ele>
        <time>2018-02-22T18:01:44Z</time>
      </trkpt>
      <trkpt lat="62.636293500668" lon="17.982655748699">
        <ele>85</ele>
        <time>2018-02-22T18:01:45Z</time>
      </trkpt>
      <trkpt lat="62.636293668306" lon="17.982711739791">
        <ele>85</ele>
        <time>2018-02-22T18:01:46Z</time>
      </trkpt>
      <trkpt lat="62.636294757953" lon="17.982771670376">
        <ele>85</ele>
        <time>2018-02-22T18:01:47Z</time>
      </trkpt>
      <trkpt lat="62.63629752398" lon="17.982827996744">
        <ele>85</ele>
        <time>2018-02-22T18:01:48Z</time>
      </trkpt>
      <trkpt lat="62.636297188704" lon="17.982875941212">
        <ele>85.2</ele>
        <time>2018-02-22T18:01:49Z</time>
      </trkpt>
      <trkpt lat="62.63629165665" lon="17.982941068575">
        <ele>85.2</ele>
        <time>2018-02-22T18:01:50Z</time>
      </trkpt>
      <trkpt lat="62.636291489012" lon="17.982988845405">
        <ele>85.2</ele>
        <time>2018-02-22T18:01:51Z</time>
      </trkpt>
      <trkpt lat="62.636291489012" lon="17.98305464332">
        <ele>85.4</ele>
        <time>2018-02-22T18:01:52Z</time>
      </trkpt>
      <trkpt lat="62.636293752125" lon="17.983102755426">
        <ele>85.4</ele>
        <time>2018-02-22T18:01:53Z</time>
      </trkpt>
      <trkpt lat="62.636293668306" lon="17.983157824509">
        <ele>85.4</ele>
        <time>2018-02-22T18:01:54Z</time>
      </trkpt>
      <trkpt lat="62.636296182876" lon="17.98321641399">
        <ele>85.4</ele>
        <time>2018-02-22T18:01:55Z</time>
      </trkpt>
      <trkpt lat="62.636298613627" lon="17.983258742585">
        <ele>85.6</ele>
        <time>2018-02-22T18:01:56Z</time>
      </trkpt>
      <trkpt lat="62.636293919763" lon="17.983316493876">
        <ele>85.6</ele>
        <time>2018-02-22T18:01:57Z</time>
      </trkpt>
      <trkpt lat="62.636288471528" lon="17.983373239339">
        <ele>85.6</ele>
        <time>2018-02-22T18:01:58Z</time>
      </trkpt>
      <trkpt lat="62.636286376053" lon="17.98342344692">
        <ele>85.6</ele>
        <time>2018-02-22T18:01:59Z</time>
      </trkpt>
      <trkpt lat="62.636281346913" lon="17.983480862935">
        <ele>85.6</ele>
        <time>2018-02-22T18:02:00Z</time>
      </trkpt>
      <trkpt lat="62.636270534262" lon="17.983544733013">
        <ele>85.8</ele>
        <time>2018-02-22T18:02:01Z</time>
      </trkpt>
      <trkpt lat="62.636258464326" lon="17.983606088521">
        <ele>85.8</ele>
        <time>2018-02-22T18:02:02Z</time>
      </trkpt>
      <trkpt lat="62.636254357195" lon="17.98364724365">
        <ele>86</ele>
        <time>2018-02-22T18:02:03Z</time>
      </trkpt>
      <trkpt lat="62.636244466553" lon="17.983696613041">
        <ele>86</ele>
        <time>2018-02-22T18:02:04Z</time>
      </trkpt>
      <trkpt lat="62.636232564255" lon="17.983766015173">
        <ele>86</ele>
        <time>2018-02-22T18:02:05Z</time>
      </trkpt>
      <trkpt lat="62.636227199839" lon="17.983819575514">
        <ele>86.2</ele>
        <time>2018-02-22T18:02:06Z</time>
      </trkpt>
      <trkpt lat="62.636222422156" lon="17.983869196362">
        <ele>86.2</ele>
        <time>2018-02-22T18:02:07Z</time>
      </trkpt>
      <trkpt lat="62.636208843478" lon="17.983938598494">
        <ele>86.2</ele>
        <time>2018-02-22T18:02:08Z</time>
      </trkpt>
      <trkpt lat="62.636210100763" lon="17.983992997025">
        <ele>86.4</ele>
        <time>2018-02-22T18:02:09Z</time>
      </trkpt>
      <trkpt lat="62.636206831822" lon="17.984048401384">
        <ele>86.4</ele>
        <time>2018-02-22T18:02:10Z</time>
      </trkpt>
      <trkpt lat="62.636201718863" lon="17.984112522919">
        <ele>86.4</ele>
        <time>2018-02-22T18:02:11Z</time>
      </trkpt>
      <trkpt lat="62.636201048311" lon="17.984161137939">
        <ele>86.6</ele>
        <time>2018-02-22T18:02:12Z</time>
      </trkpt>
      <trkpt lat="62.636194342791" lon="17.98421134552">
        <ele>86.8</ele>
        <time>2018-02-22T18:02:13Z</time>
      </trkpt>
      <trkpt lat="62.636187301995" lon="17.984274293589">
        <ele>87</ele>
        <time>2018-02-22T18:02:14Z</time>
      </trkpt>
      <trkpt lat="62.636189062194" lon="17.984323327704">
        <ele>87.2</ele>
        <time>2018-02-22T18:02:15Z</time>
      </trkpt>
      <trkpt lat="62.636184200692" lon="17.984383342108">
        <ele>87.2</ele>
        <time>2018-02-22T18:02:16Z</time>
      </trkpt>
      <trkpt lat="62.636177746629" lon="17.984439417019">
        <ele>87.4</ele>
        <time>2018-02-22T18:02:17Z</time>
      </trkpt>
      <trkpt lat="62.636176070249" lon="17.984487780582">
        <ele>87.4</ele>
        <time>2018-02-22T18:02:18Z</time>
      </trkpt>
      <trkpt lat="62.636173304222" lon="17.98453907781">
        <ele>87.4</ele>
        <time>2018-02-22T18:02:19Z</time>
      </trkpt>
      <trkpt lat="62.636167520711" lon="17.984606719743">
        <ele>87.4</ele>
        <time>2018-02-22T18:02:20Z</time>
      </trkpt>
      <trkpt lat="62.636169364729" lon="17.984652401098">
        <ele>87.4</ele>
        <time>2018-02-22T18:02:21Z</time>
      </trkpt>
      <trkpt lat="62.636163245942" lon="17.984710236208">
        <ele>87.6</ele>
        <time>2018-02-22T18:02:22Z</time>
      </trkpt>
      <trkpt lat="62.636157378612" lon="17.984766646395">
        <ele>87.6</ele>
        <time>2018-02-22T18:02:23Z</time>
      </trkpt>
      <trkpt lat="62.6361533553" lon="17.984809310266">
        <ele>87.8</ele>
        <time>2018-02-22T18:02:24Z</time>
      </trkpt>
      <trkpt lat="62.636147236513" lon="17.984866139548">
        <ele>87.8</ele>
        <time>2018-02-22T18:02:25Z</time>
      </trkpt>
      <trkpt lat="62.636139273708" lon="17.984927830332">
        <ele>87.8</ele>
        <time>2018-02-22T18:02:26Z</time>
      </trkpt>
      <trkpt lat="62.636141201545" lon="17.984970242746">
        <ele>88</ele>
        <time>2018-02-22T18:02:27Z</time>
      </trkpt>
      <trkpt lat="62.636137681147" lon="17.985018019576">
        <ele>88</ele>
        <time>2018-02-22T18:02:28Z</time>
      </trkpt>
      <trkpt lat="62.636131729998" lon="17.985071160822">
        <ele>88.2</ele>
        <time>2018-02-22T18:02:29Z</time>
      </trkpt>
      <trkpt lat="62.63613575331" lon="17.985127990104">
        <ele>88.4</ele>
        <time>2018-02-22T18:02:30Z</time>
      </trkpt>
      <trkpt lat="62.636131897636" lon="17.985172246536">
        <ele>88.4</ele>
        <time>2018-02-22T18:02:31Z</time>
      </trkpt>
      <trkpt lat="62.636130640351" lon="17.98523226094">
        <ele>88.6</ele>
        <time>2018-02-22T18:02:32Z</time>
      </trkpt>
      <trkpt lat="62.636128293419" lon="17.985277607019">
        <ele>88.8</ele>
        <time>2018-02-22T18:02:33Z</time>
      </trkpt>
      <trkpt lat="62.636123851012" lon="17.985324797116">
        <ele>88.8</ele>
        <time>2018-02-22T18:02:34Z</time>
      </trkpt>
      <trkpt lat="62.636118067501" lon="17.985386906995">
        <ele>89</ele>
        <time>2018-02-22T18:02:35Z</time>
      </trkpt>
      <trkpt lat="62.636118318958" lon="17.985432169255">
        <ele>89</ele>
        <time>2018-02-22T18:02:36Z</time>
      </trkpt>
      <trkpt lat="62.636109015049" lon="17.985486819243">
        <ele>89</ele>
        <time>2018-02-22T18:02:37Z</time>
      </trkpt>
      <trkpt lat="62.636100297873" lon="17.985545827819">
        <ele>89.2</ele>
        <time>2018-02-22T18:02:38Z</time>
      </trkpt>
      <trkpt lat="62.636093927629" lon="17.98558430074">
        <ele>89.2</ele>
        <time>2018-02-22T18:02:39Z</time>
      </trkpt>
      <trkpt lat="62.636075655087" lon="17.985651188302">
        <ele>89.2</ele>
        <time>2018-02-22T18:02:40Z</time>
      </trkpt>
      <trkpt lat="62.636064255703" lon="17.9856966182">
        <ele>89.4</ele>
        <time>2018-02-22T18:02:41Z</time>
      </trkpt>
      <trkpt lat="62.636055873803" lon="17.98573685132">
        <ele>89.4</ele>
        <time>2018-02-22T18:02:42Z</time>
      </trkpt>
      <trkpt lat="62.636039193822" lon="17.985784460512">
        <ele>89.4</ele>
        <time>2018-02-22T18:02:43Z</time>
      </trkpt>
      <trkpt lat="62.636021675651" lon="17.985823687804">
        <ele>89.6</ele>
        <time>2018-02-22T18:02:44Z</time>
      </trkpt>
      <trkpt lat="62.636008180792" lon="17.985854784653">
        <ele>89.6</ele>
        <time>2018-02-22T18:02:45Z</time>
      </trkpt>
      <trkpt lat="62.63598739368" lon="17.985888731348">
        <ele>89.6</ele>
        <time>2018-02-22T18:02:46Z</time>
      </trkpt>
      <trkpt lat="62.635967696215" lon="17.985915972523">
        <ele>89.6</ele>
        <time>2018-02-22T18:02:47Z</time>
      </trkpt>
      <trkpt lat="62.635948334026" lon="17.985942626965">
        <ele>89.8</ele>
        <time>2018-02-22T18:02:48Z</time>
      </trkpt>
      <trkpt lat="62.63592788219" lon="17.985966934475">
        <ele>89.8</ele>
        <time>2018-02-22T18:02:49Z</time>
      </trkpt>
      <trkpt lat="62.635903490861" lon="17.985986967216">
        <ele>90</ele>
        <time>2018-02-22T18:02:50Z</time>
      </trkpt>
      <trkpt lat="62.635886978518" lon="17.986007754328">
        <ele>90</ele>
        <time>2018-02-22T18:02:51Z</time>
      </trkpt>
      <trkpt lat="62.635868035424" lon="17.986021668282">
        <ele>90.2</ele>
        <time>2018-02-22T18:02:52Z</time>
      </trkpt>
      <trkpt lat="62.63584406319" lon="17.986035749874">
        <ele>90.4</ele>
        <time>2018-02-22T18:02:53Z</time>
      </trkpt>
      <trkpt lat="62.635827047933" lon="17.986057375176">
        <ele>90.6</ele>
        <time>2018-02-22T18:02:54Z</time>
      </trkpt>
      <trkpt lat="62.63580383007" lon="17.986078665202">
        <ele>90.8</ele>
        <time>2018-02-22T18:02:55Z</time>
      </trkpt>
      <trkpt lat="62.63577533161" lon="17.986105235825">
        <ele>91</ele>
        <time>2018-02-22T18:02:56Z</time>
      </trkpt>
      <trkpt lat="62.635755047412" lon="17.986131554991">
        <ele>91</ele>
        <time>2018-02-22T18:02:57Z</time>
      </trkpt>
      <trkpt lat="62.635736355775" lon="17.986159969632">
        <ele>91.2</ele>
        <time>2018-02-22T18:02:58Z</time>
      </trkpt>
      <trkpt lat="62.635724034382" lon="17.986177823079">
        <ele>91.2</ele>
        <time>2018-02-22T18:02:59Z</time>
      </trkpt>
      <trkpt lat="62.635707102944" lon="17.986202968779">
        <ele>91.4</ele>
        <time>2018-02-22T18:03:00Z</time>
      </trkpt>
      <trkpt lat="62.635690171506" lon="17.986235322913">
        <ele>91.4</ele>
        <time>2018-02-22T18:03:01Z</time>
      </trkpt>
      <trkpt lat="62.635672569516" lon="17.986266671219">
        <ele>91.6</ele>
        <time>2018-02-22T18:03:02Z</time>
      </trkpt>
      <trkpt lat="62.635653961698" lon="17.986305060321">
        <ele>91.8</ele>
        <time>2018-02-22T18:03:03Z</time>
      </trkpt>
      <trkpt lat="62.635644741608" lon="17.986338923197">
        <ele>92</ele>
        <time>2018-02-22T18:03:04Z</time>
      </trkpt>
      <trkpt lat="62.635622613392" lon="17.986391310072">
        <ele>92</ele>
        <time>2018-02-22T18:03:05Z</time>
      </trkpt>
      <trkpt lat="62.635605765773" lon="17.986440511825">
        <ele>92.2</ele>
        <time>2018-02-22T18:03:06Z</time>
      </trkpt>
      <trkpt lat="62.635592019457" lon="17.986486276999">
        <ele>92.4</ele>
        <time>2018-02-22T18:03:07Z</time>
      </trkpt>
      <trkpt lat="62.635571483802" lon="17.9865431901">
        <ele>92.4</ele>
        <time>2018-02-22T18:03:08Z</time>
      </trkpt>
      <trkpt lat="62.635557318391" lon="17.98659264331">
        <ele>92.4</ele>
        <time>2018-02-22T18:03:09Z</time>
      </trkpt>
      <trkpt lat="62.635539884039" lon="17.986640839235">
        <ele>92.6</ele>
        <time>2018-02-22T18:03:10Z</time>
      </trkpt>
      <trkpt lat="62.63552638918" lon="17.986679479794">
        <ele>92.4</ele>
        <time>2018-02-22T18:03:11Z</time>
      </trkpt>
      <trkpt lat="62.635514067787" lon="17.986718287991">
        <ele>92.4</ele>
        <time>2018-02-22T18:03:12Z</time>
      </trkpt>
      <trkpt lat="62.635506691715" lon="17.986756341817">
        <ele>92.6</ele>
        <time>2018-02-22T18:03:13Z</time>
      </trkpt>
      <trkpt lat="62.635492945399" lon="17.986796826394">
        <ele>92.6</ele>
        <time>2018-02-22T18:03:14Z</time>
      </trkpt>
      <trkpt lat="62.635475511047" lon="17.986850302916">
        <ele>92.8</ele>
        <time>2018-02-22T18:03:15Z</time>
      </trkpt>
      <trkpt lat="62.635463776387" lon="17.986885003982">
        <ele>93</ele>
        <time>2018-02-22T18:03:16Z</time>
      </trkpt>
      <trkpt lat="62.635443240732" lon="17.986934457192">
        <ele>93.2</ele>
        <time>2018-02-22T18:03:17Z</time>
      </trkpt>
      <trkpt lat="62.635427901855" lon="17.986972846294">
        <ele>93.4</ele>
        <time>2018-02-22T18:03:18Z</time>
      </trkpt>
      <trkpt lat="62.635414993729" lon="17.987002434401">
        <ele>93.4</ele>
        <time>2018-02-22T18:03:19Z</time>
      </trkpt>
      <trkpt lat="62.635395715359" lon="17.987049037765">
        <ele>93.6</ele>
        <time>2018-02-22T18:03:20Z</time>
      </trkpt>
      <trkpt lat="62.635379789749" lon="17.987082649184">
        <ele>93.6</ele>
        <time>2018-02-22T18:03:21Z</time>
      </trkpt>
      <trkpt lat="62.63536797127" lon="17.987113578395">
        <ele>93.8</ele>
        <time>2018-02-22T18:03:22Z</time>
      </trkpt>
      <trkpt lat="62.635356823343" lon="17.987144004692">
        <ele>93.8</ele>
        <time>2018-02-22T18:03:23Z</time>
      </trkpt>
      <trkpt lat="62.635337628792" lon="17.987180298319">
        <ele>94</ele>
        <time>2018-02-22T18:03:24Z</time>
      </trkpt>
      <trkpt lat="62.635324301571" lon="17.987212568634">
        <ele>94</ele>
        <time>2018-02-22T18:03:25Z</time>
      </trkpt>
      <trkpt lat="62.635309214151" lon="17.987244000759">
        <ele>94</ele>
        <time>2018-02-22T18:03:26Z</time>
      </trkpt>
      <trkpt lat="62.635287169754" lon="17.987287586639">
        <ele>94.2</ele>
        <time>2018-02-22T18:03:27Z</time>
      </trkpt>
      <trkpt lat="62.635270154497" lon="17.987319102583">
        <ele>94.2</ele>
        <time>2018-02-22T18:03:28Z</time>
      </trkpt>
      <trkpt lat="62.635255821448" lon="17.987347517224">
        <ele>94.2</ele>
        <time>2018-02-22T18:03:29Z</time>
      </trkpt>
      <trkpt lat="62.635231849214" lon="17.98738808562">
        <ele>94.2</ele>
        <time>2018-02-22T18:03:30Z</time>
      </trkpt>
      <trkpt lat="62.635212822301" lon="17.987419769202">
        <ele>94.2</ele>
        <time>2018-02-22T18:03:31Z</time>
      </trkpt>
      <trkpt lat="62.635198992166" lon="17.987453129164">
        <ele>94.4</ele>
        <time>2018-02-22T18:03:32Z</time>
      </trkpt>
      <trkpt lat="62.635182228366" lon="17.987487411135">
        <ele>94.4</ele>
        <time>2018-02-22T18:03:33Z</time>
      </trkpt>
      <trkpt lat="62.635166135118" lon="17.987517334518">
        <ele>94.6</ele>
        <time>2018-02-22T18:03:34Z</time>
      </trkpt>
      <trkpt lat="62.635147862576" lon="17.987552119403">
        <ele>94.8</ele>
        <time>2018-02-22T18:03:35Z</time>
      </trkpt>
      <trkpt lat="62.635131098776" lon="17.987579528216">
        <ele>94.8</ele>
        <time>2018-02-22T18:03:36Z</time>
      </trkpt>
      <trkpt lat="62.635119531754" lon="17.987604171002">
        <ele>95</ele>
        <time>2018-02-22T18:03:37Z</time>
      </trkpt>
      <trkpt lat="62.635099415194" lon="17.98763451348">
        <ele>95.2</ele>
        <time>2018-02-22T18:03:38Z</time>
      </trkpt>
      <trkpt lat="62.635082902851" lon="17.987664269225">
        <ele>95.4</ele>
        <time>2018-02-22T18:03:39Z</time>
      </trkpt>
      <trkpt lat="62.635069240354" lon="17.987693270599">
        <ele>95.6</ele>
        <time>2018-02-22T18:03:40Z</time>
      </trkpt>
      <trkpt lat="62.635054069115" lon="17.987720427955">
        <ele>95.6</ele>
        <time>2018-02-22T18:03:41Z</time>
      </trkpt>
      <trkpt lat="62.635031102709" lon="17.987759571428">
        <ele>95.8</ele>
        <time>2018-02-22T18:03:42Z</time>
      </trkpt>
      <trkpt lat="62.635011153787" lon="17.987786309689">
        <ele>95.8</ele>
        <time>2018-02-22T18:03:43Z</time>
      </trkpt>
      <trkpt lat="62.634985672811" lon="17.987823776782">
        <ele>95.8</ele>
        <time>2018-02-22T18:03:44Z</time>
      </trkpt>
      <trkpt lat="62.634965472432" lon="17.98784909012">
        <ele>96</ele>
        <time>2018-02-22T18:03:45Z</time>
      </trkpt>
      <trkpt lat="62.634942925121" lon="17.987885635204">
        <ele>96</ele>
        <time>2018-02-22T18:03:46Z</time>
      </trkpt>
      <trkpt lat="62.634932783022" lon="17.98790692523">
        <ele>96</ele>
        <time>2018-02-22T18:03:47Z</time>
      </trkpt>
      <trkpt lat="62.634905541847" lon="17.987934669319">
        <ele>96.2</ele>
        <time>2018-02-22T18:03:48Z</time>
      </trkpt>
      <trkpt lat="62.634884251821" lon="17.987949002368">
        <ele>96.4</ele>
        <time>2018-02-22T18:03:49Z</time>
      </trkpt>
      <trkpt lat="62.634856507732" lon="17.987976159724">
        <ele>96.6</ele>
        <time>2018-02-22T18:03:50Z</time>
      </trkpt>
      <trkpt lat="62.634837313181" lon="17.988008765315">
        <ele>96.8</ele>
        <time>2018-02-22T18:03:51Z</time>
      </trkpt>
      <trkpt lat="62.634815939336" lon="17.988033408101">
        <ele>97</ele>
        <time>2018-02-22T18:03:52Z</time>
      </trkpt>
      <trkpt lat="62.634793308206" lon="17.98803600649">
        <ele>97.2</ele>
        <time>2018-02-22T18:03:53Z</time>
      </trkpt>
      <trkpt lat="62.634777634053" lon="17.988052351195">
        <ele>97.4</ele>
        <time>2018-02-22T18:03:54Z</time>
      </trkpt>
      <trkpt lat="62.634739664046" lon="17.988066432787">
        <ele>97.4</ele>
        <time>2018-02-22T18:03:55Z</time>
      </trkpt>
      <trkpt lat="62.63471753583" lon="17.988068863538">
        <ele>97.6</ele>
        <time>2018-02-22T18:03:56Z</time>
      </trkpt>
      <trkpt lat="62.634703873333" lon="17.988088644822">
        <ele>97.6</ele>
        <time>2018-02-22T18:03:57Z</time>
      </trkpt>
      <trkpt lat="62.634673195579" lon="17.988096020894">
        <ele>97.8</ele>
        <time>2018-02-22T18:03:58Z</time>
      </trkpt>
      <trkpt lat="62.634645535309" lon="17.988107085002">
        <ele>97.8</ele>
        <time>2018-02-22T18:03:59Z</time>
      </trkpt>
      <trkpt lat="62.634631788993" lon="17.988122004784">
        <ele>98</ele>
        <time>2018-02-22T18:04:00Z</time>
      </trkpt>
      <trkpt lat="62.634597004108" lon="17.988122088603">
        <ele>98</ele>
        <time>2018-02-22T18:04:01Z</time>
      </trkpt>
      <trkpt lat="62.634579150661" lon="17.988129129399">
        <ele>98</ele>
        <time>2018-02-22T18:04:02Z</time>
      </trkpt>
      <trkpt lat="62.634563141232" lon="17.988131224874">
        <ele>98.2</ele>
        <time>2018-02-22T18:04:03Z</time>
      </trkpt>
      <trkpt lat="62.634536402971" lon="17.988139774412">
        <ele>98.2</ele>
        <time>2018-02-22T18:04:04Z</time>
      </trkpt>
      <trkpt lat="62.634510167624" lon="17.988151509072">
        <ele>98.2</ele>
        <time>2018-02-22T18:04:05Z</time>
      </trkpt>
      <trkpt lat="62.634492397996" lon="17.988155532384">
        <ele>98.4</ele>
        <time>2018-02-22T18:04:06Z</time>
      </trkpt>
      <trkpt lat="62.634465408278" lon="17.988166680311">
        <ele>98.4</ele>
        <time>2018-02-22T18:04:07Z</time>
      </trkpt>
      <trkpt lat="62.634456942559" lon="17.988179839894">
        <ele>98.4</ele>
        <time>2018-02-22T18:04:08Z</time>
      </trkpt>
      <trkpt lat="62.634428108823" lon="17.988180342808">
        <ele>98.6</ele>
        <time>2018-02-22T18:04:09Z</time>
      </trkpt>
      <trkpt lat="62.634400280915" lon="17.988185623405">
        <ele>98.8</ele>
        <time>2018-02-22T18:04:10Z</time>
      </trkpt>
      <trkpt lat="62.634386199323" lon="17.988193502391">
        <ele>98.8</ele>
        <time>2018-02-22T18:04:11Z</time>
      </trkpt>
      <trkpt lat="62.634358371415" lon="17.988197609522">
        <ele>99</ele>
        <time>2018-02-22T18:04:12Z</time>
      </trkpt>
      <trkpt lat="62.63433532119" lon="17.988189898174">
        <ele>99</ele>
        <time>2018-02-22T18:04:13Z</time>
      </trkpt>
      <trkpt lat="62.634317970657" lon="17.98821202639">
        <ele>99.2</ele>
        <time>2018-02-22T18:04:14Z</time>
      </trkpt>
      <trkpt lat="62.634281425573" lon="17.988201800472">
        <ele>99.2</ele>
        <time>2018-02-22T18:04:15Z</time>
      </trkpt>
      <trkpt lat="62.634260219366" lon="17.988210769105">
        <ele>99.4</ele>
        <time>2018-02-22T18:04:16Z</time>
      </trkpt>
      <trkpt lat="62.634239096978" lon="17.988207667802">
        <ele>99.4</ele>
        <time>2018-02-22T18:04:17Z</time>
      </trkpt>
      <trkpt lat="62.634205904654" lon="17.988195011133">
        <ele>99.4</ele>
        <time>2018-02-22T18:04:18Z</time>
      </trkpt>
      <trkpt lat="62.634193247985" lon="17.988200375549">
        <ele>99.4</ele>
        <time>2018-02-22T18:04:19Z</time>
      </trkpt>
      <trkpt lat="62.634154775064" lon="17.988183276473">
        <ele>99.4</ele>
        <time>2018-02-22T18:04:20Z</time>
      </trkpt>
      <trkpt lat="62.634138514178" lon="17.988179839894">
        <ele>99.6</ele>
        <time>2018-02-22T18:04:21Z</time>
      </trkpt>
      <trkpt lat="62.634116134505" lon="17.98817095508">
        <ele>99.6</ele>
        <time>2018-02-22T18:04:22Z</time>
      </trkpt>
      <trkpt lat="62.634085372932" lon="17.988144300638">
        <ele>99.6</ele>
        <time>2018-02-22T18:04:23Z</time>
      </trkpt>
      <trkpt lat="62.634061484517" lon="17.988137259842">
        <ele>99.8</ele>
        <time>2018-02-22T18:04:24Z</time>
      </trkpt>
      <trkpt lat="62.63404363107" lon="17.988120076947">
        <ele>99.8</ele>
        <time>2018-02-22T18:04:25Z</time>
      </trkpt>
      <trkpt lat="62.634005158149" lon="17.988099960387">
        <ele>99.8</ele>
        <time>2018-02-22T18:04:26Z</time>
      </trkpt>
      <trkpt lat="62.633989064901" lon="17.988089566831">
        <ele>99.8</ele>
        <time>2018-02-22T18:04:27Z</time>
      </trkpt>
      <trkpt lat="62.633957548957" lon="17.988061822742">
        <ele>99.8</ele>
        <time>2018-02-22T18:04:28Z</time>
      </trkpt>
      <trkpt lat="62.633940366062" lon="17.9880519321">
        <ele>99.8</ele>
        <time>2018-02-22T18:04:29Z</time>
      </trkpt>
      <trkpt lat="62.633921422968" lon="17.988045058942">
        <ele>99.8</ele>
        <time>2018-02-22T18:04:30Z</time>
      </trkpt>
      <trkpt lat="62.633888985015" lon="17.988007591849">
        <ele>100</ele>
        <time>2018-02-22T18:04:31Z</time>
      </trkpt>
      <trkpt lat="62.633863755496" lon="17.987979680122">
        <ele>100.2</ele>
        <time>2018-02-22T18:04:32Z</time>
      </trkpt>
      <trkpt lat="62.633847410791" lon="17.987981188864">
        <ele>100.4</ele>
        <time>2018-02-22T18:04:33Z</time>
      </trkpt>
      <trkpt lat="62.633820588711" lon="17.987951600757">
        <ele>100.6</ele>
        <time>2018-02-22T18:04:34Z</time>
      </trkpt>
      <trkpt lat="62.633794018088" lon="17.98793207093">
        <ele>100.6</ele>
        <time>2018-02-22T18:04:35Z</time>
      </trkpt>
      <trkpt lat="62.633777757202" lon="17.987919078985">
        <ele>100.6</ele>
        <time>2018-02-22T18:04:36Z</time>
      </trkpt>
      <trkpt lat="62.63374272086" lon="17.987881192797">
        <ele>100.6</ele>
        <time>2018-02-22T18:04:37Z</time>
      </trkpt>
      <trkpt lat="62.633724699775" lon="17.987871805069">
        <ele>100.8</ele>
        <time>2018-02-22T18:04:38Z</time>
      </trkpt>
      <trkpt lat="62.633698799704" lon="17.987841043496">
        <ele>100.8</ele>
        <time>2018-02-22T18:04:39Z</time>
      </trkpt>
      <trkpt lat="62.633671642348" lon="17.987822351859">
        <ele>101</ele>
        <time>2018-02-22T18:04:40Z</time>
      </trkpt>
      <trkpt lat="62.633662086982" lon="17.987816568348">
        <ele>101</ele>
        <time>2018-02-22T18:04:41Z</time>
      </trkpt>
      <trkpt lat="62.633634091436" lon="17.987789075716">
        <ele>101</ele>
        <time>2018-02-22T18:04:42Z</time>
      </trkpt>
      <trkpt lat="62.63360609589" lon="17.987752279175">
        <ele>101.2</ele>
        <time>2018-02-22T18:04:43Z</time>
      </trkpt>
      <trkpt lat="62.633585811692" lon="17.987731827339">
        <ele>101.4</ele>
        <time>2018-02-22T18:04:44Z</time>
      </trkpt>
      <trkpt lat="62.633575166679" lon="17.987702742146">
        <ele>101.6</ele>
        <time>2018-02-22T18:04:45Z</time>
      </trkpt>
      <trkpt lat="62.633555385395" lon="17.98768396669">
        <ele>101.8</ele>
        <time>2018-02-22T18:04:46Z</time>
      </trkpt>
      <trkpt lat="62.633540884708" lon="17.987668627813">
        <ele>101.8</ele>
        <time>2018-02-22T18:04:47Z</time>
      </trkpt>
      <trkpt lat="62.633508111479" lon="17.987621270078">
        <ele>102</ele>
        <time>2018-02-22T18:04:48Z</time>
      </trkpt>
      <trkpt lat="62.633494197525" lon="17.987608864866">
        <ele>102</ele>
        <time>2018-02-22T18:04:49Z</time>
      </trkpt>
      <trkpt lat="62.633472069309" lon="17.987576007818">
        <ele>102.2</ele>
        <time>2018-02-22T18:04:50Z</time>
      </trkpt>
      <trkpt lat="62.633446755971" lon="17.98753309249">
        <ele>102.4</ele>
        <time>2018-02-22T18:04:51Z</time>
      </trkpt>
      <trkpt lat="62.633423119013" lon="17.987504761668">
        <ele>102.6</ele>
        <time>2018-02-22T18:04:52Z</time>
      </trkpt>
      <trkpt lat="62.633408199231" lon="17.987470312059">
        <ele>102.6</ele>
        <time>2018-02-22T18:04:53Z</time>
      </trkpt>
      <trkpt lat="62.633393447087" lon="17.98744675892">
        <ele>102.8</ele>
        <time>2018-02-22T18:04:54Z</time>
      </trkpt>
      <trkpt lat="62.633378527305" lon="17.987416667899">
        <ele>102.8</ele>
        <time>2018-02-22T18:04:55Z</time>
      </trkpt>
      <trkpt lat="62.633357656374" lon="17.987391354561">
        <ele>103.2</ele>
        <time>2018-02-22T18:04:56Z</time>
      </trkpt>
      <trkpt lat="62.633344161515" lon="17.987363526653">
        <ele>103.4</ele>
        <time>2018-02-22T18:04:57Z</time>
      </trkpt>
      <trkpt lat="62.633318848177" lon="17.987319018764">
        <ele>103.6</ele>
        <time>2018-02-22T18:04:58Z</time>
      </trkpt>
      <trkpt lat="62.633306610603" lon="17.987285910259">
        <ele>103.8</ele>
        <time>2018-02-22T18:04:59Z</time>
      </trkpt>
      <trkpt lat="62.633277693048" lon="17.987195218101">
        <ele>103.8</ele>
        <time>2018-02-22T18:05:00Z</time>
      </trkpt>
      <trkpt lat="62.633265539293" lon="17.987145178158">
        <ele>104</ele>
        <time>2018-02-22T18:05:01Z</time>
      </trkpt>
      <trkpt lat="62.633237795204" lon="17.987026574273">
        <ele>104</ele>
        <time>2018-02-22T18:05:02Z</time>
      </trkpt>
      <trkpt lat="62.633216253721" lon="17.98691367008">
        <ele>103.6</ele>
        <time>2018-02-22T18:05:03Z</time>
      </trkpt>
      <trkpt lat="62.633200328111" lon="17.986821385361">
        <ele>103.2</ele>
        <time>2018-02-22T18:05:04Z</time>
      </trkpt>
      <trkpt lat="62.633183145216" lon="17.986718874724">
        <ele>102.8</ele>
        <time>2018-02-22T18:05:05Z</time>
      </trkpt>
      <trkpt lat="62.633173086936" lon="17.986607227816">
        <ele>102</ele>
        <time>2018-02-22T18:05:06Z</time>
      </trkpt>
      <trkpt lat="62.633162525742" lon="17.986513350536">
        <ele>101.4</ele>
        <time>2018-02-22T18:05:07Z</time>
      </trkpt>
      <trkpt lat="62.633155820222" lon="17.986424334758">
        <ele>101</ele>
        <time>2018-02-22T18:05:08Z</time>
      </trkpt>
      <trkpt lat="62.633148779426" lon="17.986309586547">
        <ele>100.8</ele>
        <time>2018-02-22T18:05:09Z</time>
      </trkpt>
      <trkpt lat="62.633138469689" lon="17.986219062027">
        <ele>100.6</ele>
        <time>2018-02-22T18:05:10Z</time>
      </trkpt>
      <trkpt lat="62.63313922406" lon="17.986104565273">
        <ele>100.6</ele>
        <time>2018-02-22T18:05:11Z</time>
      </trkpt>
      <trkpt lat="62.633140816621" lon="17.985990152338">
        <ele>100.6</ele>
        <time>2018-02-22T18:05:12Z</time>
      </trkpt>
      <trkpt lat="62.633142744458" lon="17.985877583421">
        <ele>100.4</ele>
        <time>2018-02-22T18:05:13Z</time>
      </trkpt>
      <trkpt lat="62.633144839933" lon="17.985780101924">
        <ele>100.2</ele>
        <time>2018-02-22T18:05:14Z</time>
      </trkpt>
      <trkpt lat="62.633151713091" lon="17.985672059233">
        <ele>99.6</ele>
        <time>2018-02-22T18:05:15Z</time>
      </trkpt>
      <trkpt lat="62.633155484946" lon="17.985591509174">
        <ele>99.2</ele>
        <time>2018-02-22T18:05:16Z</time>
      </trkpt>
      <trkpt lat="62.633152132186" lon="17.985492267478">
        <ele>98.8</ele>
        <time>2018-02-22T18:05:17Z</time>
      </trkpt>
      <trkpt lat="62.633148276512" lon="17.985391433221">
        <ele>98.6</ele>
        <time>2018-02-22T18:05:18Z</time>
      </trkpt>
      <trkpt lat="62.63314341501" lon="17.985324880935">
        <ele>98.8</ele>
        <time>2018-02-22T18:05:19Z</time>
      </trkpt>
      <trkpt lat="62.633155317308" lon="17.985192363096">
        <ele>98.8</ele>
        <time>2018-02-22T18:05:20Z</time>
      </trkpt>
      <trkpt lat="62.63317023709" lon="17.985060934904">
        <ele>99</ele>
        <time>2018-02-22T18:05:21Z</time>
      </trkpt>
      <trkpt lat="62.633192616763" lon="17.984939229716">
        <ele>98.4</ele>
        <time>2018-02-22T18:05:22Z</time>
      </trkpt>
      <trkpt lat="62.633210973124" lon="17.984830851749">
        <ele>97.8</ele>
        <time>2018-02-22T18:05:23Z</time>
      </trkpt>
      <trkpt lat="62.633227820743" lon="17.984717863737">
        <ele>97.2</ele>
        <time>2018-02-22T18:05:24Z</time>
      </trkpt>
      <trkpt lat="62.633252044434" lon="17.984612754711">
        <ele>96.4</ele>
        <time>2018-02-22T18:05:25Z</time>
      </trkpt>
      <trkpt lat="62.63327501084" lon="17.984526924055">
        <ele>95.4</ele>
        <time>2018-02-22T18:05:26Z</time>
      </trkpt>
      <trkpt lat="62.633295378857" lon="17.984452911878">
        <ele>95</ele>
        <time>2018-02-22T18:05:27Z</time>
      </trkpt>
      <trkpt lat="62.633315076322" lon="17.984359788969">
        <ele>94.8</ele>
        <time>2018-02-22T18:05:28Z</time>
      </trkpt>
      <trkpt lat="62.633317423254" lon="17.984300948031">
        <ele>94.8</ele>
        <time>2018-02-22T18:05:29Z</time>
      </trkpt>
      <trkpt lat="62.633332343036" lon="17.984205226733">
        <ele>94.8</ele>
        <time>2018-02-22T18:05:30Z</time>
      </trkpt>
      <trkpt lat="62.633332091579" lon="17.984152001668">
        <ele>95</ele>
        <time>2018-02-22T18:05:31Z</time>
      </trkpt>
      <trkpt lat="62.633340473479" lon="17.98407472055">
        <ele>95.2</ele>
        <time>2018-02-22T18:05:32Z</time>
      </trkpt>
      <trkpt lat="62.633356818184" lon="17.983995763052">
        <ele>95.4</ele>
        <time>2018-02-22T18:05:33Z</time>
      </trkpt>
      <trkpt lat="62.633359165116" lon="17.983962067814">
        <ele>95.6</ele>
        <time>2018-02-22T18:05:34Z</time>
      </trkpt>
      <trkpt lat="62.633361679686" lon="17.98388948056">
        <ele>95.8</ele>
        <time>2018-02-22T18:05:35Z</time>
      </trkpt>
      <trkpt lat="62.633378275848" lon="17.983817228582">
        <ele>95.8</ele>
        <time>2018-02-22T18:05:36Z</time>
      </trkpt>
      <trkpt lat="62.633384478454" lon="17.983751765943">
        <ele>96</ele>
        <time>2018-02-22T18:05:37Z</time>
      </trkpt>
      <trkpt lat="62.633389088499" lon="17.983697367412">
        <ele>95.8</ele>
        <time>2018-02-22T18:05:38Z</time>
      </trkpt>
      <trkpt lat="62.633408953602" lon="17.983638275017">
        <ele>95.8</ele>
        <time>2018-02-22T18:05:39Z</time>
      </trkpt>
      <trkpt lat="62.633407109584" lon="17.983587145427">
        <ele>96</ele>
        <time>2018-02-22T18:05:40Z</time>
      </trkpt>
      <trkpt lat="62.63342420866" lon="17.983534590914">
        <ele>96</ele>
        <time>2018-02-22T18:05:41Z</time>
      </trkpt>
      <trkpt lat="62.633437200605" lon="17.983473067768">
        <ele>96</ele>
        <time>2018-02-22T18:05:42Z</time>
      </trkpt>
      <trkpt lat="62.633441726831" lon="17.983422273454">
        <ele>96.2</ele>
        <time>2018-02-22T18:05:43Z</time>
      </trkpt>
      <trkpt lat="62.63346444178" lon="17.983362761964">
        <ele>96.2</ele>
        <time>2018-02-22T18:05:44Z</time>
      </trkpt>
      <trkpt lat="62.633480535028" lon="17.983299227162">
        <ele>96.2</ele>
        <time>2018-02-22T18:05:45Z</time>
      </trkpt>
      <trkpt lat="62.633485815625" lon="17.983241140595">
        <ele>96.2</ele>
        <time>2018-02-22T18:05:46Z</time>
      </trkpt>
      <trkpt lat="62.633507692384" lon="17.983184478951">
        <ele>96.2</ele>
        <time>2018-02-22T18:05:47Z</time>
      </trkpt>
      <trkpt lat="62.633515990465" lon="17.983126140927">
        <ele>96.2</ele>
        <time>2018-02-22T18:05:48Z</time>
      </trkpt>
      <trkpt lat="62.633521690157" lon="17.983079956658">
        <ele>96.4</ele>
        <time>2018-02-22T18:05:49Z</time>
      </trkpt>
      <trkpt lat="62.633544321287" lon="17.98299932278">
        <ele>96.2</ele>
        <time>2018-02-22T18:05:50Z</time>
      </trkpt>
      <trkpt lat="62.633552535549" lon="17.982936793806">
        <ele>96.2</ele>
        <time>2018-02-22T18:05:51Z</time>
      </trkpt>
      <trkpt lat="62.633567874426" lon="17.982877114678">
        <ele>96.2</ele>
        <time>2018-02-22T18:05:52Z</time>
      </trkpt>
      <trkpt lat="62.63357927381" lon="17.982818022283">
        <ele>96.2</ele>
        <time>2018-02-22T18:05:53Z</time>
      </trkpt>
      <trkpt lat="62.633592601031" lon="17.982765383951">
        <ele>96</ele>
        <time>2018-02-22T18:05:54Z</time>
      </trkpt>
      <trkpt lat="62.633610705935" lon="17.982687851376">
        <ele>96</ele>
        <time>2018-02-22T18:05:55Z</time>
      </trkpt>
      <trkpt lat="62.633614813066" lon="17.982632530836">
        <ele>96.2</ele>
        <time>2018-02-22T18:05:56Z</time>
      </trkpt>
      <trkpt lat="62.633625122803" lon="17.982572348794">
        <ele>96.2</ele>
        <time>2018-02-22T18:05:57Z</time>
      </trkpt>
      <trkpt lat="62.633644065897" lon="17.982509233087">
        <ele>96.2</ele>
        <time>2018-02-22T18:05:58Z</time>
      </trkpt>
      <trkpt lat="62.633646664286" lon="17.982464809017">
        <ele>96.2</ele>
        <time>2018-02-22T18:05:59Z</time>
      </trkpt>
      <trkpt lat="62.633664014819" lon="17.982384761872">
        <ele>96.2</ele>
        <time>2018-02-22T18:06:00Z</time>
      </trkpt>
      <trkpt lat="62.63366896014" lon="17.982314856826">
        <ele>96.2</ele>
        <time>2018-02-22T18:06:01Z</time>
      </trkpt>
      <trkpt lat="62.633674659832" lon="17.982252914585">
        <ele>96.2</ele>
        <time>2018-02-22T18:06:02Z</time>
      </trkpt>
      <trkpt lat="62.633687567958" lon="17.982187871041">
        <ele>96.2</ele>
        <time>2018-02-22T18:06:03Z</time>
      </trkpt>
      <trkpt lat="62.633685221026" lon="17.982144117523">
        <ele>96.2</ele>
        <time>2018-02-22T18:06:04Z</time>
      </trkpt>
      <trkpt lat="62.633694692573" lon="17.982077649056">
        <ele>96.2</ele>
        <time>2018-02-22T18:06:05Z</time>
      </trkpt>
      <trkpt lat="62.633694524935" lon="17.982016545005">
        <ele>96.4</ele>
        <time>2018-02-22T18:06:06Z</time>
      </trkpt>
      <trkpt lat="62.633702068645" lon="17.981973042944">
        <ele>96.4</ele>
        <time>2018-02-22T18:06:07Z</time>
      </trkpt>
      <trkpt lat="62.633707013966" lon="17.981909089047">
        <ele>96.4</ele>
        <time>2018-02-22T18:06:08Z</time>
      </trkpt>
      <trkpt lat="62.633704583215" lon="17.981871621954">
        <ele>96.4</ele>
        <time>2018-02-22T18:06:09Z</time>
      </trkpt>
      <trkpt lat="62.633710199088" lon="17.981797945053">
        <ele>96.6</ele>
        <time>2018-02-22T18:06:10Z</time>
      </trkpt>
      <trkpt lat="62.63371673697" lon="17.981742205418">
        <ele>96.6</ele>
        <time>2018-02-22T18:06:11Z</time>
      </trkpt>
      <trkpt lat="62.633709025622" lon="17.981698619538">
        <ele>96.6</ele>
        <time>2018-02-22T18:06:12Z</time>
      </trkpt>
      <trkpt lat="62.633719167721" lon="17.981621925153">
        <ele>96.6</ele>
        <time>2018-02-22T18:06:13Z</time>
      </trkpt>
      <trkpt lat="62.633723191033" lon="17.981566939889">
        <ele>96.6</ele>
        <time>2018-02-22T18:06:14Z</time>
      </trkpt>
      <trkpt lat="62.633730399467" lon="17.981510026788">
        <ele>96.6</ele>
        <time>2018-02-22T18:06:15Z</time>
      </trkpt>
      <trkpt lat="62.633732411123" lon="17.981460825035">
        <ele>96.6</ele>
        <time>2018-02-22T18:06:16Z</time>
      </trkpt>
      <trkpt lat="62.633740625385" lon="17.981402319373">
        <ele>96.6</ele>
        <time>2018-02-22T18:06:17Z</time>
      </trkpt>
      <trkpt lat="62.633757724461" lon="17.981330151214">
        <ele>96.8</ele>
        <time>2018-02-22T18:06:18Z</time>
      </trkpt>
      <trkpt lat="62.633755209891" lon="17.98125840215">
        <ele>96.8</ele>
        <time>2018-02-22T18:06:19Z</time>
      </trkpt>
      <trkpt lat="62.633786809654" lon="17.981227137663">
        <ele>96.8</ele>
        <time>2018-02-22T18:06:20Z</time>
      </trkpt>
      <trkpt lat="62.633795862106" lon="17.981179444652">
        <ele>96.6</ele>
        <time>2018-02-22T18:06:21Z</time>
      </trkpt>
      <trkpt lat="62.633815727209" lon="17.9811284827">
        <ele>96.8</ele>
        <time>2018-02-22T18:06:22Z</time>
      </trkpt>
      <trkpt lat="62.633825785489" lon="17.981104761923">
        <ele>96.8</ele>
        <time>2018-02-22T18:06:23Z</time>
      </trkpt>
      <trkpt lat="62.633845147678" lon="17.981053799971">
        <ele>97</ele>
        <time>2018-02-22T18:06:24Z</time>
      </trkpt>
      <trkpt lat="62.633867778808" lon="17.980994204662">
        <ele>97</ele>
        <time>2018-02-22T18:06:25Z</time>
      </trkpt>
      <trkpt lat="62.63389610963" lon="17.980961850528">
        <ele>97</ele>
        <time>2018-02-22T18:06:26Z</time>
      </trkpt>
      <trkpt lat="62.633911029412" lon="17.98091390606">
        <ele>97.2</ele>
        <time>2018-02-22T18:06:27Z</time>
      </trkpt>
      <trkpt lat="62.633918573122" lon="17.980870739275">
        <ele>97.4</ele>
        <time>2018-02-22T18:06:28Z</time>
      </trkpt>
      <trkpt lat="62.633935756017" lon="17.980808545577">
        <ele>97.6</ele>
        <time>2018-02-22T18:06:29Z</time>
      </trkpt>
      <trkpt lat="62.633960063527" lon="17.980758170358">
        <ele>97.6</ele>
        <time>2018-02-22T18:06:30Z</time>
      </trkpt>
      <trkpt lat="62.63396400302" lon="17.98072196055">
        <ele>97.6</ele>
        <time>2018-02-22T18:06:31Z</time>
      </trkpt>
      <trkpt lat="62.633988059073" lon="17.980658090472">
        <ele>97.8</ele>
        <time>2018-02-22T18:06:32Z</time>
      </trkpt>
      <trkpt lat="62.634006918348" lon="17.980599500991">
        <ele>97.8</ele>
        <time>2018-02-22T18:06:33Z</time>
      </trkpt>
      <trkpt lat="62.634014629696" lon="17.980567230676">
        <ele>97.8</ele>
        <time>2018-02-22T18:06:34Z</time>
      </trkpt>
      <trkpt lat="62.634038434292" lon="17.980506210444">
        <ele>97.8</ele>
        <time>2018-02-22T18:06:35Z</time>
      </trkpt>
      <trkpt lat="62.6340578803" lon="17.980460277632">
        <ele>97.8</ele>
        <time>2018-02-22T18:06:36Z</time>
      </trkpt>
      <trkpt lat="62.634070369331" lon="17.98042105034">
        <ele>97.6</ele>
        <time>2018-02-22T18:06:37Z</time>
      </trkpt>
      <trkpt lat="62.634098616334" lon="17.980359694832">
        <ele>97.8</ele>
        <time>2018-02-22T18:06:38Z</time>
      </trkpt>
      <trkpt lat="62.634123762034" lon="17.980320635178">
        <ele>97.8</ele>
        <time>2018-02-22T18:06:39Z</time>
      </trkpt>
      <trkpt lat="62.634142202214" lon="17.980271433425">
        <ele>97.8</ele>
        <time>2018-02-22T18:06:40Z</time>
      </trkpt>
      <trkpt lat="62.63417019776" lon="17.980230278296">
        <ele>97.8</ele>
        <time>2018-02-22T18:06:41Z</time>
      </trkpt>
      <trkpt lat="62.634201965161" lon="17.980187614425">
        <ele>98</ele>
        <time>2018-02-22T18:06:42Z</time>
      </trkpt>
      <trkpt lat="62.634227110861" lon="17.980136401016">
        <ele>98</ele>
        <time>2018-02-22T18:06:43Z</time>
      </trkpt>
      <trkpt lat="62.634243539385" lon="17.980087031625">
        <ele>97.8</ele>
        <time>2018-02-22T18:06:44Z</time>
      </trkpt>
      <trkpt lat="62.634254100579" lon="17.980046463229">
        <ele>97.8</ele>
        <time>2018-02-22T18:06:45Z</time>
      </trkpt>
      <trkpt lat="62.634279246279" lon="17.979989047214">
        <ele>97.8</ele>
        <time>2018-02-22T18:06:46Z</time>
      </trkpt>
      <trkpt lat="62.634292238224" lon="17.979953088863">
        <ele>97.8</ele>
        <time>2018-02-22T18:06:47Z</time>
      </trkpt>
      <trkpt lat="62.634302045047" lon="17.979899947617">
        <ele>97.8</ele>
        <time>2018-02-22T18:06:48Z</time>
      </trkpt>
      <trkpt lat="62.634313276793" lon="17.979846974009">
        <ele>97.8</ele>
        <time>2018-02-22T18:06:49Z</time>
      </trkpt>
      <trkpt lat="62.634328783308" lon="17.979802885215">
        <ele>97.8</ele>
        <time>2018-02-22T18:06:50Z</time>
      </trkpt>
      <trkpt lat="62.634342781081" lon="17.979746139752">
        <ele>97.6</ele>
        <time>2018-02-22T18:06:51Z</time>
      </trkpt>
      <trkpt lat="62.634357197949" lon="17.979689226651">
        <ele>97.6</ele>
        <time>2018-02-22T18:06:52Z</time>
      </trkpt>
      <trkpt lat="62.634363484374" lon="17.979640863088">
        <ele>97.6</ele>
        <time>2018-02-22T18:06:53Z</time>
      </trkpt>
      <trkpt lat="62.634374297025" lon="17.979573556431">
        <ele>97.8</ele>
        <time>2018-02-22T18:06:54Z</time>
      </trkpt>
      <trkpt lat="62.634382762744" lon="17.979514296398">
        <ele>97.8</ele>
        <time>2018-02-22T18:06:55Z</time>
      </trkpt>
      <trkpt lat="62.634387037513" lon="17.979464759369">
        <ele>97.6</ele>
        <time>2018-02-22T18:06:56Z</time>
      </trkpt>
      <trkpt lat="62.63439902363" lon="17.97940013492">
        <ele>97.8</ele>
        <time>2018-02-22T18:06:57Z</time>
      </trkpt>
      <trkpt lat="62.634412518489" lon="17.979348250959">
        <ele>97.6</ele>
        <time>2018-02-22T18:06:58Z</time>
      </trkpt>
      <trkpt lat="62.634413440498" lon="17.979311454418">
        <ele>97.8</ele>
        <time>2018-02-22T18:06:59Z</time>
      </trkpt>
      <trkpt lat="62.634428611737" lon="17.979239453897">
        <ele>97.6</ele>
        <time>2018-02-22T18:07:00Z</time>
      </trkpt>
      <trkpt lat="62.634438083284" lon="17.979189078678">
        <ele>97.6</ele>
        <time>2018-02-22T18:07:01Z</time>
      </trkpt>
      <trkpt lat="62.634444202071" lon="17.979137697631">
        <ele>97.6</ele>
        <time>2018-02-22T18:07:02Z</time>
      </trkpt>
      <trkpt lat="62.634452583971" lon="17.979074498105">
        <ele>97.8</ele>
        <time>2018-02-22T18:07:03Z</time>
      </trkpt>
      <trkpt lat="62.634455517636" lon="17.979030576949">
        <ele>97.6</ele>
        <time>2018-02-22T18:07:04Z</time>
      </trkpt>
      <trkpt lat="62.634472449074" lon="17.978952290003">
        <ele>97.6</ele>
        <time>2018-02-22T18:07:05Z</time>
      </trkpt>
      <trkpt lat="62.63448451901" lon="17.978892024142">
        <ele>97.6</ele>
        <time>2018-02-22T18:07:06Z</time>
      </trkpt>
      <trkpt lat="62.634491811263" lon="17.978828824616">
        <ele>97.6</ele>
        <time>2018-02-22T18:07:07Z</time>
      </trkpt>
      <trkpt lat="62.63450379738" lon="17.978767972022">
        <ele>97.6</ele>
        <time>2018-02-22T18:07:08Z</time>
      </trkpt>
      <trkpt lat="62.634508491244" lon="17.978726816893">
        <ele>97.4</ele>
        <time>2018-02-22T18:07:09Z</time>
      </trkpt>
      <trkpt lat="62.634525338863" lon="17.978642243522">
        <ele>97.4</ele>
        <time>2018-02-22T18:07:10Z</time>
      </trkpt>
      <trkpt lat="62.634526093234" lon="17.978593041769">
        <ele>97.4</ele>
        <time>2018-02-22T18:07:11Z</time>
      </trkpt>
      <trkpt lat="62.634543359948" lon="17.978513497538">
        <ele>97.4</ele>
        <time>2018-02-22T18:07:12Z</time>
      </trkpt>
      <trkpt lat="62.634548305269" lon="17.978446609976">
        <ele>97.6</ele>
        <time>2018-02-22T18:07:13Z</time>
      </trkpt>
      <trkpt lat="62.634553502047" lon="17.978394223101">
        <ele>97.6</ele>
        <time>2018-02-22T18:07:14Z</time>
      </trkpt>
      <trkpt lat="62.634573450969" lon="17.978298166527">
        <ele>97.4</ele>
        <time>2018-02-22T18:07:15Z</time>
      </trkpt>
      <trkpt lat="62.634582000507" lon="17.978223232341">
        <ele>97.4</ele>
        <time>2018-02-22T18:07:16Z</time>
      </trkpt>
      <trkpt lat="62.634592561701" lon="17.978149136345">
        <ele>97.4</ele>
        <time>2018-02-22T18:07:17Z</time>
      </trkpt>
      <trkpt lat="62.634592142606" lon="17.978075375625">
        <ele>97.2</ele>
        <time>2018-02-22T18:07:18Z</time>
      </trkpt>
      <trkpt lat="62.634593735167" lon="17.97801460685">
        <ele>97</ele>
        <time>2018-02-22T18:07:19Z</time>
      </trkpt>
      <trkpt lat="62.63460940932" lon="17.977918969371">
        <ele>96.6</ele>
        <time>2018-02-22T18:07:20Z</time>
      </trkpt>
      <trkpt lat="62.634620976342" lon="17.977847555583">
        <ele>96.4</ele>
        <time>2018-02-22T18:07:21Z</time>
      </trkpt>
      <trkpt lat="62.634623490912" lon="17.97779667745">
        <ele>96.4</ele>
        <time>2018-02-22T18:07:22Z</time>
      </trkpt>
      <trkpt lat="62.634641763454" lon="17.977704979464">
        <ele>96.4</ele>
        <time>2018-02-22T18:07:23Z</time>
      </trkpt>
      <trkpt lat="62.63465215701" lon="17.977647311992">
        <ele>96.2</ele>
        <time>2018-02-22T18:07:24Z</time>
      </trkpt>
      <trkpt lat="62.634664813679" lon="17.977560391689">
        <ele>96.2</ele>
        <time>2018-02-22T18:07:25Z</time>
      </trkpt>
      <trkpt lat="62.634677386529" lon="17.977478919621">
        <ele>96.2</ele>
        <time>2018-02-22T18:07:26Z</time>
      </trkpt>
      <trkpt lat="62.634683253859" lon="17.97743122661">
        <ele>96</ele>
        <time>2018-02-22T18:07:27Z</time>
      </trkpt>
      <trkpt lat="62.63469993384" lon="17.977369116731">
        <ele>95.8</ele>
        <time>2018-02-22T18:07:28Z</time>
      </trkpt>
      <trkpt lat="62.634712925785" lon="17.977324525023">
        <ele>95.8</ele>
        <time>2018-02-22T18:07:29Z</time>
      </trkpt>
      <trkpt lat="62.634724325169" lon="17.977274652718">
        <ele>95.8</ele>
        <time>2018-02-22T18:07:30Z</time>
      </trkpt>
      <trkpt lat="62.634737820028" lon="17.977209609174">
        <ele>95.8</ele>
        <time>2018-02-22T18:07:31Z</time>
      </trkpt>
      <trkpt lat="62.634750476697" lon="17.977140709956">
        <ele>95.6</ele>
        <time>2018-02-22T18:07:32Z</time>
      </trkpt>
      <trkpt lat="62.634757601312" lon="17.977079438267">
        <ele>95.8</ele>
        <time>2018-02-22T18:07:33Z</time>
      </trkpt>
      <trkpt lat="62.634774281293" lon="17.977006851013">
        <ele>95.6</ele>
        <time>2018-02-22T18:07:34Z</time>
      </trkpt>
      <trkpt lat="62.63479213474" lon="17.976937616519">
        <ele>95.8</ele>
        <time>2018-02-22T18:07:35Z</time>
      </trkpt>
      <trkpt lat="62.63479632569" lon="17.976880116685">
        <ele>95.6</ele>
        <time>2018-02-22T18:07:36Z</time>
      </trkpt>
      <trkpt lat="62.63481057492" lon="17.976805685413">
        <ele>95.8</ele>
        <time>2018-02-22T18:07:37Z</time>
      </trkpt>
      <trkpt lat="62.634820717019" lon="17.97673888167">
        <ele>95.6</ele>
        <time>2018-02-22T18:07:38Z</time>
      </trkpt>
      <trkpt lat="62.634833038412" lon="17.976666964968">
        <ele>95.6</ele>
        <time>2018-02-22T18:07:39Z</time>
      </trkpt>
      <trkpt lat="62.634848880203" lon="17.976599239216">
        <ele>95.4</ele>
        <time>2018-02-22T18:07:40Z</time>
      </trkpt>
      <trkpt lat="62.634858854664" lon="17.976548025807">
        <ele>95.4</ele>
        <time>2018-02-22T18:07:41Z</time>
      </trkpt>
      <trkpt lat="62.634877211025" lon="17.976471163784">
        <ele>95.4</ele>
        <time>2018-02-22T18:07:42Z</time>
      </trkpt>
      <trkpt lat="62.634903027277" lon="17.976411400837">
        <ele>95.2</ele>
        <time>2018-02-22T18:07:43Z</time>
      </trkpt>
      <trkpt lat="62.634915600127" lon="17.976342501619">
        <ele>95.2</ele>
        <time>2018-02-22T18:07:44Z</time>
      </trkpt>
      <trkpt lat="62.634935381411" lon="17.976263795578">
        <ele>95</ele>
        <time>2018-02-22T18:07:45Z</time>
      </trkpt>
      <trkpt lat="62.634950217374" lon="17.976209816142">
        <ele>95</ele>
        <time>2018-02-22T18:07:46Z</time>
      </trkpt>
      <trkpt lat="62.634974105789" lon="17.9761244884">
        <ele>94.8</ele>
        <time>2018-02-22T18:07:47Z</time>
      </trkpt>
      <trkpt lat="62.634986930096" lon="17.976055924458">
        <ele>94.6</ele>
        <time>2018-02-22T18:07:48Z</time>
      </trkpt>
      <trkpt lat="62.635002185154" lon="17.975976883141">
        <ele>94.6</ele>
        <time>2018-02-22T18:07:49Z</time>
      </trkpt>
      <trkpt lat="62.635013584538" lon="17.975881329481">
        <ele>94.4</ele>
        <time>2018-02-22T18:07:50Z</time>
      </trkpt>
      <trkpt lat="62.635041160989" lon="17.975818213774">
        <ele>94.2</ele>
        <time>2018-02-22T18:07:51Z</time>
      </trkpt>
      <trkpt lat="62.6350553264" lon="17.975722073381">
        <ele>94</ele>
        <time>2018-02-22T18:07:52Z</time>
      </trkpt>
      <trkpt lat="62.635058092427" lon="17.975678655139">
        <ele>93.8</ele>
        <time>2018-02-22T18:07:53Z</time>
      </trkpt>
      <trkpt lat="62.635066809603" lon="17.975617467269">
        <ele>93.8</ele>
        <time>2018-02-22T18:07:54Z</time>
      </trkpt>
      <trkpt lat="62.635084998326" lon="17.975542868359">
        <ele>93.6</ele>
        <time>2018-02-22T18:07:55Z</time>
      </trkpt>
      <trkpt lat="62.635085585059" lon="17.975478746824">
        <ele>93.6</ele>
        <time>2018-02-22T18:07:56Z</time>
      </trkpt>
      <trkpt lat="62.635095308063" lon="17.975378583119">
        <ele>93.4</ele>
        <time>2018-02-22T18:07:57Z</time>
      </trkpt>
      <trkpt lat="62.635085920335" lon="17.975300463811">
        <ele>93.6</ele>
        <time>2018-02-22T18:07:58Z</time>
      </trkpt>
      <trkpt lat="62.635089105457" lon="17.975234582077">
        <ele>93.6</ele>
        <time>2018-02-22T18:07:59Z</time>
      </trkpt>
      <trkpt lat="62.635076364969" lon="17.975131484707">
        <ele>93.6</ele>
        <time>2018-02-22T18:08:00Z</time>
      </trkpt>
      <trkpt lat="62.635059433531" lon="17.975037188332">
        <ele>93.6</ele>
        <time>2018-02-22T18:08:01Z</time>
      </trkpt>
      <trkpt lat="62.635036550944" lon="17.974956554454">
        <ele>93.2</ele>
        <time>2018-02-22T18:08:02Z</time>
      </trkpt>
      <trkpt lat="62.635013500719" lon="17.974878770422">
        <ele>92.6</ele>
        <time>2018-02-22T18:08:03Z</time>
      </trkpt>
      <trkpt lat="62.634992713607" lon="17.974804506788">
        <ele>92</ele>
        <time>2018-02-22T18:08:04Z</time>
      </trkpt>
      <trkpt lat="62.634967400269" lon="17.974704343083">
        <ele>91.4</ele>
        <time>2018-02-22T18:08:05Z</time>
      </trkpt>
      <trkpt lat="62.634943428035" lon="17.974611890726">
        <ele>90.6</ele>
        <time>2018-02-22T18:08:06Z</time>
      </trkpt>
      <trkpt lat="62.634926077502" lon="17.9745151636">
        <ele>90.4</ele>
        <time>2018-02-22T18:08:07Z</time>
      </trkpt>
      <trkpt lat="62.634922724742" lon="17.974416173361">
        <ele>90.2</ele>
        <time>2018-02-22T18:08:08Z</time>
      </trkpt>
      <trkpt lat="62.63490109944" lon="17.974341825908">
        <ele>90.2</ele>
        <time>2018-02-22T18:08:09Z</time>
      </trkpt>
      <trkpt lat="62.634891208798" lon="17.974272423776">
        <ele>90.2</ele>
        <time>2018-02-22T18:08:10Z</time>
      </trkpt>
      <trkpt lat="62.634878719767" lon="17.974225904231">
        <ele>90.4</ele>
        <time>2018-02-22T18:08:11Z</time>
      </trkpt>
      <trkpt lat="62.634859860492" lon="17.974142420507">
        <ele>90.4</ele>
        <time>2018-02-22T18:08:12Z</time>
      </trkpt>
      <trkpt lat="62.634848712565" lon="17.974090033632">
        <ele>90.4</ele>
        <time>2018-02-22T18:08:13Z</time>
      </trkpt>
      <trkpt lat="62.634839492475" lon="17.974028678124">
        <ele>90.6</ele>
        <time>2018-02-22T18:08:14Z</time>
      </trkpt>
      <trkpt lat="62.634826081435" lon="17.97394687078">
        <ele>90.4</ele>
        <time>2018-02-22T18:08:15Z</time>
      </trkpt>
      <trkpt lat="62.634810239644" lon="17.973899513045">
        <ele>90.4</ele>
        <time>2018-02-22T18:08:16Z</time>
      </trkpt>
      <trkpt lat="62.634792637654" lon="17.973822734841">
        <ele>90.4</ele>
        <time>2018-02-22T18:08:17Z</time>
      </trkpt>
      <trkpt lat="62.634761456986" lon="17.973758026573">
        <ele>90.4</ele>
        <time>2018-02-22T18:08:18Z</time>
      </trkpt>
      <trkpt lat="62.634758523321" lon="17.973710417381">
        <ele>90.2</ele>
        <time>2018-02-22T18:08:19Z</time>
      </trkpt>
      <trkpt lat="62.634738993494" lon="17.973603129061">
        <ele>90.4</ele>
        <time>2018-02-22T18:08:20Z</time>
      </trkpt>
      <trkpt lat="62.634723486979" lon="17.973543533752">
        <ele>90.2</ele>
        <time>2018-02-22T18:08:21Z</time>
      </trkpt>
      <trkpt lat="62.634719044572" lon="17.973471533231">
        <ele>90.2</ele>
        <time>2018-02-22T18:08:22Z</time>
      </trkpt>
      <trkpt lat="62.634713847794" lon="17.973389893525">
        <ele>90.2</ele>
        <time>2018-02-22T18:08:23Z</time>
      </trkpt>
      <trkpt lat="62.634703454238" lon="17.973317557728">
        <ele>90.2</ele>
        <time>2018-02-22T18:08:24Z</time>
      </trkpt>
      <trkpt lat="62.634707896645" lon="17.973230805063">
        <ele>90.2</ele>
        <time>2018-02-22T18:08:25Z</time>
      </trkpt>
      <trkpt lat="62.634711249405" lon="17.973158553085">
        <ele>90</ele>
        <time>2018-02-22T18:08:26Z</time>
      </trkpt>
      <trkpt lat="62.634716530002" lon="17.97309359336">
        <ele>90</ele>
        <time>2018-02-22T18:08:27Z</time>
      </trkpt>
      <trkpt lat="62.63473849058" lon="17.973002817383">
        <ele>89.8</ele>
        <time>2018-02-22T18:08:28Z</time>
      </trkpt>
      <trkpt lat="62.634768330144" lon="17.972951603974">
        <ele>89.6</ele>
        <time>2018-02-22T18:08:29Z</time>
      </trkpt>
      <trkpt lat="62.634784758668" lon="17.972865438042">
        <ele>89.6</ele>
        <time>2018-02-22T18:08:30Z</time>
      </trkpt>
      <trkpt lat="62.634805294323" lon="17.972802992887">
        <ele>89.4</ele>
        <time>2018-02-22T18:08:31Z</time>
      </trkpt>
      <trkpt lat="62.634827506358" lon="17.972730321814">
        <ele>89.2</ele>
        <time>2018-02-22T18:08:32Z</time>
      </trkpt>
      <trkpt lat="62.634854328438" lon="17.972654214162">
        <ele>89.2</ele>
        <time>2018-02-22T18:08:33Z</time>
      </trkpt>
      <trkpt lat="62.634869751134" lon="17.97258900298">
        <ele>89</ele>
        <time>2018-02-22T18:08:34Z</time>
      </trkpt>
      <trkpt lat="62.634889448599" lon="17.972513817337">
        <ele>89</ele>
        <time>2018-02-22T18:08:35Z</time>
      </trkpt>
      <trkpt lat="62.634911325358" lon="17.972446007766">
        <ele>89</ele>
        <time>2018-02-22T18:08:36Z</time>
      </trkpt>
      <trkpt lat="62.634923143837" lon="17.972384233163">
        <ele>88.6</ele>
        <time>2018-02-22T18:08:37Z</time>
      </trkpt>
      <trkpt lat="62.634953653953" lon="17.97229312191">
        <ele>88.6</ele>
        <time>2018-02-22T18:08:38Z</time>
      </trkpt>
      <trkpt lat="62.634971591219" lon="17.972221708122">
        <ele>88.4</ele>
        <time>2018-02-22T18:08:39Z</time>
      </trkpt>
      <trkpt lat="62.634981733318" lon="17.972149456144">
        <ele>88.4</ele>
        <time>2018-02-22T18:08:40Z</time>
      </trkpt>
      <trkpt lat="62.635022553171" lon="17.972072007388">
        <ele>88.4</ele>
        <time>2018-02-22T18:08:41Z</time>
      </trkpt>
      <trkpt lat="62.635048117966" lon="17.971956085711">
        <ele>88.4</ele>
        <time>2018-02-22T18:08:42Z</time>
      </trkpt>
      <trkpt lat="62.635065217042" lon="17.971827255908">
        <ele>88.4</ele>
        <time>2018-02-22T18:08:43Z</time>
      </trkpt>
      <trkpt lat="62.635079382453" lon="17.971707646195">
        <ele>88</ele>
        <time>2018-02-22T18:08:44Z</time>
      </trkpt>
      <trkpt lat="62.635094637511" lon="17.97158233679">
        <ele>87.4</ele>
        <time>2018-02-22T18:08:45Z</time>
      </trkpt>
      <trkpt lat="62.635109641112" lon="17.971465409285">
        <ele>86.6</ele>
        <time>2018-02-22T18:08:46Z</time>
      </trkpt>
      <trkpt lat="62.635123806523" lon="17.971358120965">
        <ele>85.6</ele>
        <time>2018-02-22T18:08:47Z</time>
      </trkpt>
      <trkpt lat="62.635140737961" lon="17.971238175976">
        <ele>84.6</ele>
        <time>2018-02-22T18:08:48Z</time>
      </trkpt>
      <trkpt lat="62.635153226992" lon="17.971125607059">
        <ele>83.6</ele>
        <time>2018-02-22T18:08:49Z</time>
      </trkpt>
      <trkpt lat="62.635169906973" lon="17.971000130016">
        <ele>83.2</ele>
        <time>2018-02-22T18:08:50Z</time>
      </trkpt>
      <trkpt lat="62.63518524585" lon="17.970884711253">
        <ele>82.6</ele>
        <time>2018-02-22T18:08:51Z</time>
      </trkpt>
      <trkpt lat="62.635199243623" lon="17.970772729069">
        <ele>82.4</ele>
        <time>2018-02-22T18:08:52Z</time>
      </trkpt>
      <trkpt lat="62.635211648835" lon="17.970666111301">
        <ele>82</ele>
        <time>2018-02-22T18:08:53Z</time>
      </trkpt>
      <trkpt lat="62.63522547897" lon="17.970549770529">
        <ele>81.6</ele>
        <time>2018-02-22T18:08:54Z</time>
      </trkpt>
      <trkpt lat="62.635239560562" lon="17.970430244635">
        <ele>81.4</ele>
        <time>2018-02-22T18:08:55Z</time>
      </trkpt>
      <trkpt lat="62.635255905267" lon="17.970319352098">
        <ele>81</ele>
        <time>2018-02-22T18:08:56Z</time>
      </trkpt>
      <trkpt lat="62.635273339619" lon="17.970210052122">
        <ele>80.8</ele>
        <time>2018-02-22T18:08:57Z</time>
      </trkpt>
      <trkpt lat="62.635295551654" lon="17.97008449126">
        <ele>80.4</ele>
        <time>2018-02-22T18:08:58Z</time>
      </trkpt>
      <trkpt lat="62.635319272431" lon="17.969985165745">
        <ele>80.2</ele>
        <time>2018-02-22T18:08:59Z</time>
      </trkpt>
      <trkpt lat="62.635350536918" lon="17.969868908792">
        <ele>80</ele>
        <time>2018-02-22T18:09:00Z</time>
      </trkpt>
      <trkpt lat="62.635378364826" lon="17.969759776454">
        <ele>79.8</ele>
        <time>2018-02-22T18:09:01Z</time>
      </trkpt>
      <trkpt lat="62.635407701476" lon="17.969655002704">
        <ele>79.4</ele>
        <time>2018-02-22T18:09:02Z</time>
      </trkpt>
      <trkpt lat="62.635435780841" lon="17.969549474583">
        <ele>79.2</ele>
        <time>2018-02-22T18:09:03Z</time>
      </trkpt>
      <trkpt lat="62.635459585437" lon="17.969456938407">
        <ele>79</ele>
        <time>2018-02-22T18:09:04Z</time>
      </trkpt>
      <trkpt lat="62.635489173544" lon="17.969338166884">
        <ele>78.6</ele>
        <time>2018-02-22T18:09:05Z</time>
      </trkpt>
      <trkpt lat="62.635521695316" lon="17.969216629334">
        <ele>78.4</ele>
        <time>2018-02-22T18:09:06Z</time>
      </trkpt>
      <trkpt lat="62.635553462717" lon="17.969102803132">
        <ele>77.8</ele>
        <time>2018-02-22T18:09:07Z</time>
      </trkpt>
      <trkpt lat="62.635586403584" lon="17.968993419337">
        <ele>77.2</ele>
        <time>2018-02-22T18:09:08Z</time>
      </trkpt>
      <trkpt lat="62.635620182641" lon="17.96890180517">
        <ele>76.4</ele>
        <time>2018-02-22T18:09:09Z</time>
      </trkpt>
      <trkpt lat="62.635663181788" lon="17.96879619323">
        <ele>75.6</ele>
        <time>2018-02-22T18:09:10Z</time>
      </trkpt>
      <trkpt lat="62.635698721044" lon="17.968713882972">
        <ele>74.8</ele>
        <time>2018-02-22T18:09:11Z</time>
      </trkpt>
      <trkpt lat="62.635745575865" lon="17.968630566886">
        <ele>74</ele>
        <time>2018-02-22T18:09:12Z</time>
      </trkpt>
      <trkpt lat="62.635842805905" lon="17.968536438149">
        <ele>73</ele>
        <time>2018-02-22T18:09:14Z</time>
      </trkpt>
      <trkpt lat="62.635894857504" lon="17.968510286621">
        <ele>72.8</ele>
        <time>2018-02-22T18:09:15Z</time>
      </trkpt>
      <trkpt lat="62.635943221067" lon="17.968498971056">
        <ele>72.6</ele>
        <time>2018-02-22T18:09:16Z</time>
      </trkpt>
      <trkpt lat="62.635991165535" lon="17.968490505337">
        <ele>72.6</ele>
        <time>2018-02-22T18:09:17Z</time>
      </trkpt>
      <trkpt lat="62.636032153026" lon="17.968473825356">
        <ele>72.6</ele>
        <time>2018-02-22T18:09:18Z</time>
      </trkpt>
      <trkpt lat="62.636060567667" lon="17.968471059329">
        <ele>72.6</ele>
        <time>2018-02-22T18:09:19Z</time>
      </trkpt>
      <trkpt lat="62.636105746108" lon="17.968473657718">
        <ele>72.6</ele>
        <time>2018-02-22T18:09:20Z</time>
      </trkpt>
      <trkpt lat="62.636133993111" lon="17.968479860324">
        <ele>72.8</ele>
        <time>2018-02-22T18:09:21Z</time>
      </trkpt>
      <trkpt lat="62.63616089901" lon="17.968484135093">
        <ele>72.6</ele>
        <time>2018-02-22T18:09:22Z</time>
      </trkpt>
      <trkpt lat="62.636186212348" lon="17.968498551961">
        <ele>72.6</ele>
        <time>2018-02-22T18:09:23Z</time>
      </trkpt>
      <trkpt lat="62.636225858735" lon="17.968516824503">
        <ele>72.4</ele>
        <time>2018-02-22T18:09:24Z</time>
      </trkpt>
      <trkpt lat="62.636257374679" lon="17.968534426493">
        <ele>72.6</ele>
        <time>2018-02-22T18:09:25Z</time>
      </trkpt>
      <trkpt lat="62.636294255039" lon="17.968563679324">
        <ele>72.6</ele>
        <time>2018-02-22T18:09:26Z</time>
      </trkpt>
      <trkpt lat="62.636326776811" lon="17.96859838039">
        <ele>72.6</ele>
        <time>2018-02-22T18:09:27Z</time>
      </trkpt>
      <trkpt lat="62.636353431253" lon="17.96863777532">
        <ele>72.6</ele>
        <time>2018-02-22T18:09:28Z</time>
      </trkpt>
      <trkpt lat="62.636371871433" lon="17.968677337888">
        <ele>72.6</ele>
        <time>2018-02-22T18:09:29Z</time>
      </trkpt>
      <trkpt lat="62.636399950798" lon="17.968732071695">
        <ele>72.6</ele>
        <time>2018-02-22T18:09:30Z</time>
      </trkpt>
      <trkpt lat="62.636422498109" lon="17.968773813557">
        <ele>72.6</ele>
        <time>2018-02-22T18:09:31Z</time>
      </trkpt>
      <trkpt lat="62.636433562217" lon="17.96880457513">
        <ele>72.6</ele>
        <time>2018-02-22T18:09:32Z</time>
      </trkpt>
      <trkpt lat="62.636460049021" lon="17.968865260086">
        <ele>72.6</ele>
        <time>2018-02-22T18:09:33Z</time>
      </trkpt>
      <trkpt lat="62.636479662667" lon="17.968893674727">
        <ele>72.6</ele>
        <time>2018-02-22T18:09:34Z</time>
      </trkpt>
      <trkpt lat="62.63649785139" lon="17.968952012751">
        <ele>72.6</ele>
        <time>2018-02-22T18:09:35Z</time>
      </trkpt>
      <trkpt lat="62.636520817796" lon="17.969005237816">
        <ele>72.6</ele>
        <time>2018-02-22T18:09:36Z</time>
      </trkpt>
      <trkpt lat="62.636546131134" lon="17.969037256674">
        <ele>72.6</ele>
        <time>2018-02-22T18:09:37Z</time>
      </trkpt>
      <trkpt lat="62.636565409504" lon="17.969098193087">
        <ele>72.8</ele>
        <time>2018-02-22T18:09:38Z</time>
      </trkpt>
      <trkpt lat="62.636587034806" lon="17.969148819763">
        <ele>72.6</ele>
        <time>2018-02-22T18:09:39Z</time>
      </trkpt>
      <trkpt lat="62.636608827746" lon="17.969190896901">
        <ele>72.6</ele>
        <time>2018-02-22T18:09:40Z</time>
      </trkpt>
      <trkpt lat="62.636622406424" lon="17.969244038147">
        <ele>72.6</ele>
        <time>2018-02-22T18:09:41Z</time>
      </trkpt>
      <trkpt lat="62.636636488016" lon="17.969302795266">
        <ele>72.6</ele>
        <time>2018-02-22T18:09:42Z</time>
      </trkpt>
      <trkpt lat="62.636656017843" lon="17.969348644259">
        <ele>72.6</ele>
        <time>2018-02-22T18:09:43Z</time>
      </trkpt>
      <trkpt lat="62.636667249589" lon="17.969417040563">
        <ele>72.6</ele>
        <time>2018-02-22T18:09:44Z</time>
      </trkpt>
      <trkpt lat="62.636679235706" lon="17.969475630044">
        <ele>72.6</ele>
        <time>2018-02-22T18:09:45Z</time>
      </trkpt>
      <trkpt lat="62.636693065841" lon="17.969507732721">
        <ele>72.6</ele>
        <time>2018-02-22T18:09:46Z</time>
      </trkpt>
      <trkpt lat="62.636704297587" lon="17.969570261695">
        <ele>72.6</ele>
        <time>2018-02-22T18:09:47Z</time>
      </trkpt>
      <trkpt lat="62.636715445514" lon="17.969617200335">
        <ele>72.6</ele>
        <time>2018-02-22T18:09:48Z</time>
      </trkpt>
      <trkpt lat="62.636722234853" lon="17.969648967736">
        <ele>72.8</ele>
        <time>2018-02-22T18:09:49Z</time>
      </trkpt>
      <trkpt lat="62.636736400264" lon="17.969723482827">
        <ele>72.8</ele>
        <time>2018-02-22T18:09:50Z</time>
      </trkpt>
      <trkpt lat="62.6367484702" lon="17.969766984888">
        <ele>72.8</ele>
        <time>2018-02-22T18:09:51Z</time>
      </trkpt>
      <trkpt lat="62.636758025566" lon="17.969797243547">
        <ele>73</ele>
        <time>2018-02-22T18:09:52Z</time>
      </trkpt>
      <trkpt lat="62.636774202633" lon="17.969855916847">
        <ele>73</ele>
        <time>2018-02-22T18:09:53Z</time>
      </trkpt>
      <trkpt lat="62.636790547338" lon="17.96990344222">
        <ele>73</ele>
        <time>2018-02-22T18:09:54Z</time>
      </trkpt>
      <trkpt lat="62.636803371645" lon="17.969937640372">
        <ele>73</ele>
        <time>2018-02-22T18:09:55Z</time>
      </trkpt>
      <trkpt lat="62.636823572024" lon="17.969982567356">
        <ele>73.2</ele>
        <time>2018-02-22T18:09:56Z</time>
      </trkpt>
      <trkpt lat="62.63684486205" lon="17.970013161291">
        <ele>73.2</ele>
        <time>2018-02-22T18:09:57Z</time>
      </trkpt>
      <trkpt lat="62.636864391877" lon="17.970043252312">
        <ele>73.2</ele>
        <time>2018-02-22T18:09:58Z</time>
      </trkpt>
      <trkpt lat="62.636888615568" lon="17.97008197669">
        <ele>73.4</ele>
        <time>2018-02-22T18:09:59Z</time>
      </trkpt>
      <trkpt lat="62.636907307205" lon="17.9701146661">
        <ele>73.4</ele>
        <time>2018-02-22T18:10:00Z</time>
      </trkpt>
      <trkpt lat="62.636939912796" lon="17.970144421845">
        <ele>73.4</ele>
        <time>2018-02-22T18:10:01Z</time>
      </trkpt>
      <trkpt lat="62.636961873374" lon="17.970167220613">
        <ele>73.2</ele>
        <time>2018-02-22T18:10:02Z</time>
      </trkpt>
      <trkpt lat="62.636994311327" lon="17.970183313861">
        <ele>73.4</ele>
        <time>2018-02-22T18:10:03Z</time>
      </trkpt>
      <trkpt lat="62.637026665461" lon="17.970189013553">
        <ele>73.4</ele>
        <time>2018-02-22T18:10:04Z</time>
      </trkpt>
      <trkpt lat="62.637059271052" lon="17.970190438476">
        <ele>73.4</ele>
        <time>2018-02-22T18:10:05Z</time>
      </trkpt>
      <trkpt lat="62.637101096733" lon="17.970179374368">
        <ele>73.4</ele>
        <time>2018-02-22T18:10:06Z</time>
      </trkpt>
      <trkpt lat="62.637141413672" lon="17.970153977211">
        <ele>73.4</ele>
        <time>2018-02-22T18:10:07Z</time>
      </trkpt>
      <trkpt lat="62.637176114738" lon="17.970139392705">
        <ele>73.4</ele>
        <time>2018-02-22T18:10:08Z</time>
      </trkpt>
      <trkpt lat="62.637212576003" lon="17.970120784887">
        <ele>73.2</ele>
        <time>2018-02-22T18:10:09Z</time>
      </trkpt>
      <trkpt lat="62.637253228218" lon="17.970111145702">
        <ele>73</ele>
        <time>2018-02-22T18:10:10Z</time>
      </trkpt>
      <trkpt lat="62.637291114406" lon="17.97009957868">
        <ele>72.6</ele>
        <time>2018-02-22T18:10:11Z</time>
      </trkpt>
      <trkpt lat="62.637335370838" lon="17.970079881215">
        <ele>72.2</ele>
        <time>2018-02-22T18:10:12Z</time>
      </trkpt>
      <trkpt lat="62.637378369985" lon="17.97004844909">
        <ele>71.8</ele>
        <time>2018-02-22T18:10:13Z</time>
      </trkpt>
      <trkpt lat="62.637404940608" lon="17.970026739969">
        <ele>71.6</ele>
        <time>2018-02-22T18:10:14Z</time>
      </trkpt>
      <trkpt lat="62.637455315827" lon="17.970015592042">
        <ele>71.4</ele>
        <time>2018-02-22T18:10:15Z</time>
      </trkpt>
      <trkpt lat="62.637492950558" lon="17.970017016965">
        <ele>71.4</ele>
        <time>2018-02-22T18:10:16Z</time>
      </trkpt>
      <trkpt lat="62.637528489814" lon="17.970034702774">
        <ele>71.2</ele>
        <time>2018-02-22T18:10:17Z</time>
      </trkpt>
      <trkpt lat="62.637559335206" lon="17.97006269832">
        <ele>71</ele>
        <time>2018-02-22T18:10:18Z</time>
      </trkpt>
      <trkpt lat="62.637586576381" lon="17.970098405214">
        <ele>70.8</ele>
        <time>2018-02-22T18:10:19Z</time>
      </trkpt>
      <trkpt lat="62.637617757049" lon="17.970154647763">
        <ele>70.8</ele>
        <time>2018-02-22T18:10:20Z</time>
      </trkpt>
      <trkpt lat="62.637641561645" lon="17.97020938157">
        <ele>70.4</ele>
        <time>2018-02-22T18:10:21Z</time>
      </trkpt>
      <trkpt lat="62.637659834187" lon="17.970261768445">
        <ele>70.4</ele>
        <time>2018-02-22T18:10:22Z</time>
      </trkpt>
      <trkpt lat="62.637680453661" lon="17.970314322958">
        <ele>70.4</ele>
        <time>2018-02-22T18:10:23Z</time>
      </trkpt>
      <trkpt lat="62.637708868302" lon="17.970366290738">
        <ele>70.4</ele>
        <time>2018-02-22T18:10:24Z</time>
      </trkpt>
      <trkpt lat="62.637722195523" lon="17.970432088653">
        <ele>70.4</ele>
        <time>2018-02-22T18:10:25Z</time>
      </trkpt>
      <trkpt lat="62.637736444753" lon="17.970492522152">
        <ele>70.4</ele>
        <time>2018-02-22T18:10:26Z</time>
      </trkpt>
      <trkpt lat="62.63775513639" lon="17.970534347833">
        <ele>70.4</ele>
        <time>2018-02-22T18:10:27Z</time>
      </trkpt>
      <trkpt lat="62.637768715068" lon="17.970599475196">
        <ele>70.4</ele>
        <time>2018-02-22T18:10:28Z</time>
      </trkpt>
      <trkpt lat="62.637771648733" lon="17.970620429946">
        <ele>70.4</ele>
        <time>2018-02-22T18:10:29Z</time>
      </trkpt>
      <trkpt lat="62.637787239067" lon="17.970693352476">
        <ele>70.4</ele>
        <time>2018-02-22T18:10:30Z</time>
      </trkpt>
      <trkpt lat="62.637798806089" lon="17.970751941957">
        <ele>70.4</ele>
        <time>2018-02-22T18:10:31Z</time>
      </trkpt>
      <trkpt lat="62.637805763066" lon="17.970820505899">
        <ele>70.4</ele>
        <time>2018-02-22T18:10:32Z</time>
      </trkpt>
      <trkpt lat="62.637816743355" lon="17.970862163942">
        <ele>70.4</ele>
        <time>2018-02-22T18:10:33Z</time>
      </trkpt>
      <trkpt lat="62.63782386797" lon="17.970888902203">
        <ele>70.6</ele>
        <time>2018-02-22T18:10:34Z</time>
      </trkpt>
      <trkpt lat="62.637833507155" lon="17.970963417294">
        <ele>70.6</ele>
        <time>2018-02-22T18:10:35Z</time>
      </trkpt>
      <trkpt lat="62.637841218503" lon="17.971024186069">
        <ele>70.6</ele>
        <time>2018-02-22T18:10:36Z</time>
      </trkpt>
      <trkpt lat="62.63785236643" lon="17.971053606538">
        <ele>70.8</ele>
        <time>2018-02-22T18:10:37Z</time>
      </trkpt>
      <trkpt lat="62.63785991014" lon="17.971124852688">
        <ele>70.8</ele>
        <time>2018-02-22T18:10:38Z</time>
      </trkpt>
      <trkpt lat="62.637871393343" lon="17.971186124377">
        <ele>70.8</ele>
        <time>2018-02-22T18:10:39Z</time>
      </trkpt>
      <trkpt lat="62.637882708908" lon="17.971221495995">
        <ele>71</ele>
        <time>2018-02-22T18:10:40Z</time>
      </trkpt>
      <trkpt lat="62.637892683369" lon="17.971294418525">
        <ele>71</ele>
        <time>2018-02-22T18:10:41Z</time>
      </trkpt>
      <trkpt lat="62.637898634518" lon="17.971354935843">
        <ele>71</ele>
        <time>2018-02-22T18:10:42Z</time>
      </trkpt>
      <trkpt lat="62.637908189884" lon="17.97138787671">
        <ele>71</ele>
        <time>2018-02-22T18:10:43Z</time>
      </trkpt>
      <trkpt lat="62.637916152689" lon="17.97145157915">
        <ele>71</ele>
        <time>2018-02-22T18:10:44Z</time>
      </trkpt>
      <trkpt lat="62.637925037503" lon="17.971520729825">
        <ele>71</ele>
        <time>2018-02-22T18:10:45Z</time>
      </trkpt>
      <trkpt lat="62.63793367086" lon="17.971554760339">
        <ele>71</ele>
        <time>2018-02-22T18:10:46Z</time>
      </trkpt>
      <trkpt lat="62.637935514878" lon="17.971610919069">
        <ele>71.2</ele>
        <time>2018-02-22T18:10:47Z</time>
      </trkpt>
      <trkpt lat="62.637944232054" lon="17.971675794975">
        <ele>71.2</ele>
        <time>2018-02-22T18:10:48Z</time>
      </trkpt>
      <trkpt lat="62.637955212343" lon="17.971704796349">
        <ele>71.2</ele>
        <time>2018-02-22T18:10:49Z</time>
      </trkpt>
      <trkpt lat="62.637957475456" lon="17.971776377775">
        <ele>71.4</ele>
        <time>2018-02-22T18:10:50Z</time>
      </trkpt>
      <trkpt lat="62.637955966714" lon="17.971851144323">
        <ele>71.4</ele>
        <time>2018-02-22T18:10:51Z</time>
      </trkpt>
      <trkpt lat="62.63796803665" lon="17.97188157062">
        <ele>71.4</ele>
        <time>2018-02-22T18:10:52Z</time>
      </trkpt>
      <trkpt lat="62.637967952831" lon="17.971947033259">
        <ele>71.4</ele>
        <time>2018-02-22T18:10:53Z</time>
      </trkpt>
      <trkpt lat="62.637969880668" lon="17.972019788151">
        <ele>71.4</ele>
        <time>2018-02-22T18:10:54Z</time>
      </trkpt>
      <trkpt lat="62.637971221772" lon="17.972076365976">
        <ele>71.4</ele>
        <time>2018-02-22T18:10:55Z</time>
      </trkpt>
      <trkpt lat="62.637973568704" lon="17.972126154462">
        <ele>71.6</ele>
        <time>2018-02-22T18:10:56Z</time>
      </trkpt>
      <trkpt lat="62.637974658351" lon="17.972207794168">
        <ele>71.6</ele>
        <time>2018-02-22T18:10:57Z</time>
      </trkpt>
      <trkpt lat="62.637974490713" lon="17.972267640934">
        <ele>71.6</ele>
        <time>2018-02-22T18:10:58Z</time>
      </trkpt>
      <trkpt lat="62.637976921464" lon="17.972290774978">
        <ele>71.6</ele>
        <time>2018-02-22T18:10:59Z</time>
      </trkpt>
      <trkpt lat="62.63797725674" lon="17.972382556783">
        <ele>71.6</ele>
        <time>2018-02-22T18:11:00Z</time>
      </trkpt>
      <trkpt lat="62.637978514025" lon="17.972439888979">
        <ele>71.8</ele>
        <time>2018-02-22T18:11:01Z</time>
      </trkpt>
      <trkpt lat="62.637981782966" lon="17.97249177294">
        <ele>71.8</ele>
        <time>2018-02-22T18:11:02Z</time>
      </trkpt>
      <trkpt lat="62.637985387183" lon="17.972533179526">
        <ele>72</ele>
        <time>2018-02-22T18:11:03Z</time>
      </trkpt>
      <trkpt lat="62.637988572305" lon="17.972565701298">
        <ele>72</ele>
        <time>2018-02-22T18:11:04Z</time>
      </trkpt>
      <trkpt lat="62.637995026368" lon="17.972643652968">
        <ele>72.2</ele>
        <time>2018-02-22T18:11:05Z</time>
      </trkpt>
      <trkpt lat="62.63799988787" lon="17.972694782558">
        <ele>72.4</ele>
        <time>2018-02-22T18:11:06Z</time>
      </trkpt>
      <trkpt lat="62.638004665553" lon="17.972734764221">
        <ele>72.4</ele>
        <time>2018-02-22T18:11:07Z</time>
      </trkpt>
      <trkpt lat="62.638004665553" lon="17.972801316507">
        <ele>72.4</ele>
        <time>2018-02-22T18:11:08Z</time>
      </trkpt>
      <trkpt lat="62.638008521227" lon="17.972853284287">
        <ele>72.6</ele>
        <time>2018-02-22T18:11:09Z</time>
      </trkpt>
      <trkpt lat="62.63801246072" lon="17.972901396393">
        <ele>72.6</ele>
        <time>2018-02-22T18:11:10Z</time>
      </trkpt>
      <trkpt lat="62.638016735489" lon="17.972934085803">
        <ele>72.8</ele>
        <time>2018-02-22T18:11:11Z</time>
      </trkpt>
      <trkpt lat="62.638017825136" lon="17.972992675284">
        <ele>72.6</ele>
        <time>2018-02-22T18:11:12Z</time>
      </trkpt>
      <trkpt lat="62.638026039398" lon="17.973054030792">
        <ele>72.8</ele>
        <time>2018-02-22T18:11:13Z</time>
      </trkpt>
      <trkpt lat="62.638029978891" lon="17.973082613071">
        <ele>73</ele>
        <time>2018-02-22T18:11:14Z</time>
      </trkpt>
      <trkpt lat="62.638029140701" lon="17.973139358534">
        <ele>73.2</ele>
        <time>2018-02-22T18:11:15Z</time>
      </trkpt>
      <trkpt lat="62.638023608647" lon="17.973197445101">
        <ele>73.4</ele>
        <time>2018-02-22T18:11:16Z</time>
      </trkpt>
      <trkpt lat="62.638023105733" lon="17.973243713189">
        <ele>73.6</ele>
        <time>2018-02-22T18:11:17Z</time>
      </trkpt>
      <trkpt lat="62.63802335719" lon="17.973295680969">
        <ele>73.8</ele>
        <time>2018-02-22T18:11:18Z</time>
      </trkpt>
      <trkpt lat="62.638024782113" lon="17.973334405347">
        <ele>73.8</ele>
        <time>2018-02-22T18:11:19Z</time>
      </trkpt>
      <trkpt lat="62.638028302511" lon="17.97338025434">
        <ele>74</ele>
        <time>2018-02-22T18:11:20Z</time>
      </trkpt>
      <trkpt lat="62.638025452665" lon="17.973444962608">
        <ele>74.2</ele>
        <time>2018-02-22T18:11:21Z</time>
      </trkpt>
      <trkpt lat="62.638024865932" lon="17.973504977012">
        <ele>74.2</ele>
        <time>2018-02-22T18:11:22Z</time>
      </trkpt>
      <trkpt lat="62.638026961407" lon="17.973530541807">
        <ele>74.4</ele>
        <time>2018-02-22T18:11:23Z</time>
      </trkpt>
      <trkpt lat="62.638023524828" lon="17.973605308355">
        <ele>74.4</ele>
        <time>2018-02-22T18:11:24Z</time>
      </trkpt>
      <trkpt lat="62.638024363018" lon="17.973665490397">
        <ele>74.6</ele>
        <time>2018-02-22T18:11:25Z</time>
      </trkpt>
      <trkpt lat="62.638026793769" lon="17.973705388241">
        <ele>74.6</ele>
        <time>2018-02-22T18:11:26Z</time>
      </trkpt>
      <trkpt lat="62.638025285027" lon="17.973788285232">
        <ele>74.6</ele>
        <time>2018-02-22T18:11:27Z</time>
      </trkpt>
      <trkpt lat="62.638031571452" lon="17.973819633538">
        <ele>74.6</ele>
        <time>2018-02-22T18:11:28Z</time>
      </trkpt>
      <trkpt lat="62.638030481805" lon="17.973892053154">
        <ele>74.6</ele>
        <time>2018-02-22T18:11:29Z</time>
      </trkpt>
      <trkpt lat="62.638036852049" lon="17.97396363458">
        <ele>74.6</ele>
        <time>2018-02-22T18:11:30Z</time>
      </trkpt>
      <trkpt lat="62.63804179737" lon="17.974005627899">
        <ele>74.6</ele>
        <time>2018-02-22T18:11:31Z</time>
      </trkpt>
      <trkpt lat="62.638043809026" lon="17.97409774498">
        <ele>74.6</ele>
        <time>2018-02-22T18:11:32Z</time>
      </trkpt>
      <trkpt lat="62.638049424899" lon="17.974129093286">
        <ele>74.6</ele>
        <time>2018-02-22T18:11:33Z</time>
      </trkpt>
      <trkpt lat="62.638051604193" lon="17.974199836522">
        <ele>74.6</ele>
        <time>2018-02-22T18:11:34Z</time>
      </trkpt>
      <trkpt lat="62.638058477351" lon="17.974265299161">
        <ele>74.6</ele>
        <time>2018-02-22T18:11:35Z</time>
      </trkpt>
      <trkpt lat="62.638063255034" lon="17.974305280824">
        <ele>74.8</ele>
        <time>2018-02-22T18:11:36Z</time>
      </trkpt>
      <trkpt lat="62.638063674129" lon="17.97439278786">
        <ele>74.8</ele>
        <time>2018-02-22T18:11:37Z</time>
      </trkpt>
      <trkpt lat="62.638072475124" lon="17.974436457559">
        <ele>74.8</ele>
        <time>2018-02-22T18:11:38Z</time>
      </trkpt>
      <trkpt lat="62.6380728104" lon="17.97450510532">
        <ele>74.8</ele>
        <time>2018-02-22T18:11:39Z</time>
      </trkpt>
      <trkpt lat="62.638080270291" lon="17.97456377862">
        <ele>75</ele>
        <time>2018-02-22T18:11:40Z</time>
      </trkpt>
      <trkpt lat="62.638075241151" lon="17.974615411124">
        <ele>74.8</ele>
        <time>2018-02-22T18:11:41Z</time>
      </trkpt>
      <trkpt lat="62.638069206183" lon="17.974685651446">
        <ele>74.8</ele>
        <time>2018-02-22T18:11:42Z</time>
      </trkpt>
      <trkpt lat="62.638067110708" lon="17.974731919534">
        <ele>74.8</ele>
        <time>2018-02-22T18:11:43Z</time>
      </trkpt>
      <trkpt lat="62.638056633333" lon="17.974783468219">
        <ele>74.8</ele>
        <time>2018-02-22T18:11:44Z</time>
      </trkpt>
      <trkpt lat="62.638042887017" lon="17.974840213682">
        <ele>74.8</ele>
        <time>2018-02-22T18:11:45Z</time>
      </trkpt>
      <trkpt lat="62.638031236176" lon="17.974886565589">
        <ele>74.8</ele>
        <time>2018-02-22T18:11:46Z</time>
      </trkpt>
      <trkpt lat="62.638021010258" lon="17.974916908067">
        <ele>75</ele>
        <time>2018-02-22T18:11:47Z</time>
      </trkpt>
      <trkpt lat="62.638000642241" lon="17.974966612734">
        <ele>75</ele>
        <time>2018-02-22T18:11:48Z</time>
      </trkpt>
      <trkpt lat="62.637986895925" lon="17.97499879923">
        <ele>75</ele>
        <time>2018-02-22T18:11:49Z</time>
      </trkpt>
      <trkpt lat="62.637966444089" lon="17.975043558576">
        <ele>75</ele>
        <time>2018-02-22T18:11:50Z</time>
      </trkpt>
      <trkpt lat="62.637953033049" lon="17.975072895226">
        <ele>75</ele>
        <time>2018-02-22T18:11:51Z</time>
      </trkpt>
      <trkpt lat="62.637940879294" lon="17.975102818609">
        <ele>75.2</ele>
        <time>2018-02-22T18:11:52Z</time>
      </trkpt>
      <trkpt lat="62.637922187657" lon="17.975131149431">
        <ele>75.2</ele>
        <time>2018-02-22T18:11:53Z</time>
      </trkpt>
      <trkpt lat="62.637900729993" lon="17.975172220741">
        <ele>75.2</ele>
        <time>2018-02-22T18:11:54Z</time>
      </trkpt>
      <trkpt lat="62.637883044184" lon="17.97519828845">
        <ele>75.4</ele>
        <time>2018-02-22T18:11:55Z</time>
      </trkpt>
      <trkpt lat="62.63787080661" lon="17.975223182693">
        <ele>75.6</ele>
        <time>2018-02-22T18:11:56Z</time>
      </trkpt>
      <trkpt lat="62.63785320462" lon="17.975259057225">
        <ele>75.6</ele>
        <time>2018-02-22T18:11:57Z</time>
      </trkpt>
      <trkpt lat="62.637826047264" lon="17.975299290345">
        <ele>75.8</ele>
        <time>2018-02-22T18:11:58Z</time>
      </trkpt>
      <trkpt lat="62.637812636224" lon="17.975332315031">
        <ele>76</ele>
        <time>2018-02-22T18:11:59Z</time>
      </trkpt>
      <trkpt lat="62.637798051718" lon="17.975358718016">
        <ele>76.2</ele>
        <time>2018-02-22T18:12:00Z</time>
      </trkpt>
      <trkpt lat="62.637782377565" lon="17.975385791553">
        <ele>76.4</ele>
        <time>2018-02-22T18:12:01Z</time>
      </trkpt>
      <trkpt lat="62.63776938562" lon="17.975405237561">
        <ele>76.6</ele>
        <time>2018-02-22T18:12:02Z</time>
      </trkpt>
      <trkpt lat="62.637753879105" lon="17.975424348293">
        <ele>76.6</ele>
        <time>2018-02-22T18:12:03Z</time>
      </trkpt>
      <trkpt lat="62.637739629875" lon="17.975442704654">
        <ele>76.8</ele>
        <time>2018-02-22T18:12:04Z</time>
      </trkpt>
      <trkpt lat="62.637722279342" lon="17.975463491766">
        <ele>77</ele>
        <time>2018-02-22T18:12:05Z</time>
      </trkpt>
      <trkpt lat="62.637703922981" lon="17.975481848127">
        <ele>77.2</ele>
        <time>2018-02-22T18:12:06Z</time>
      </trkpt>
      <trkpt lat="62.637687997371" lon="17.975496348814">
        <ele>77.6</ele>
        <time>2018-02-22T18:12:07Z</time>
      </trkpt>
      <trkpt lat="62.637666204431" lon="17.975513699347">
        <ele>77.8</ele>
        <time>2018-02-22T18:12:08Z</time>
      </trkpt>
      <trkpt lat="62.637647177518" lon="17.97552518255">
        <ele>78.2</ele>
        <time>2018-02-22T18:12:09Z</time>
      </trkpt>
      <trkpt lat="62.637633431202" lon="17.975538174495">
        <ele>78.2</ele>
        <time>2018-02-22T18:12:10Z</time>
      </trkpt>
      <trkpt lat="62.637603088724" lon="17.975549154784">
        <ele>78.4</ele>
        <time>2018-02-22T18:12:11Z</time>
      </trkpt>
      <trkpt lat="62.637577021015" lon="17.97556373929">
        <ele>78.6</ele>
        <time>2018-02-22T18:12:12Z</time>
      </trkpt>
      <trkpt lat="62.637556988274" lon="17.975578323796">
        <ele>78.8</ele>
        <time>2018-02-22T18:12:13Z</time>
      </trkpt>
      <trkpt lat="62.637538464275" lon="17.975594333225">
        <ele>78.8</ele>
        <time>2018-02-22T18:12:14Z</time>
      </trkpt>
      <trkpt lat="62.637519353543" lon="17.975606738437">
        <ele>78.8</ele>
        <time>2018-02-22T18:12:15Z</time>
      </trkpt>
      <trkpt lat="62.637497225327" lon="17.975615120337">
        <ele>79</ele>
        <time>2018-02-22T18:12:16Z</time>
      </trkpt>
      <trkpt lat="62.637471325256" lon="17.975629537205">
        <ele>79.2</ele>
        <time>2018-02-22T18:12:17Z</time>
      </trkpt>
      <trkpt lat="62.637449280859" lon="17.975639679304">
        <ele>79.4</ele>
        <time>2018-02-22T18:12:18Z</time>
      </trkpt>
      <trkpt lat="62.637433606706" lon="17.975646384824">
        <ele>79.6</ele>
        <time>2018-02-22T18:12:19Z</time>
      </trkpt>
      <trkpt lat="62.637408712463" lon="17.975666249927">
        <ele>80</ele>
        <time>2018-02-22T18:12:20Z</time>
      </trkpt>
      <trkpt lat="62.637397313079" lon="17.975679828605">
        <ele>80.2</ele>
        <time>2018-02-22T18:12:21Z</time>
      </trkpt>
      <trkpt lat="62.637378621442" lon="17.975688210505">
        <ele>80.4</ele>
        <time>2018-02-22T18:12:22Z</time>
      </trkpt>
      <trkpt lat="62.637353391923" lon="17.975709081436">
        <ele>80.6</ele>
        <time>2018-02-22T18:12:23Z</time>
      </trkpt>
      <trkpt lat="62.637331766621" lon="17.975728695082">
        <ele>80.6</ele>
        <time>2018-02-22T18:12:24Z</time>
      </trkpt>
      <trkpt lat="62.637318942314" lon="17.975747554357">
        <ele>80.6</ele>
        <time>2018-02-22T18:12:25Z</time>
      </trkpt>
      <trkpt lat="62.637300418315" lon="17.975768425288">
        <ele>80.8</ele>
        <time>2018-02-22T18:12:26Z</time>
      </trkpt>
      <trkpt lat="62.637284660343" lon="17.975794325359">
        <ele>81</ele>
        <time>2018-02-22T18:12:27Z</time>
      </trkpt>
      <trkpt lat="62.637268818552" lon="17.975822153267">
        <ele>81.2</ele>
        <time>2018-02-22T18:12:28Z</time>
      </trkpt>
      <trkpt lat="62.637257670625" lon="17.975843527112">
        <ele>81.4</ele>
        <time>2018-02-22T18:12:29Z</time>
      </trkpt>
      <trkpt lat="62.637239817178" lon="17.975875462151">
        <ele>81.6</ele>
        <time>2018-02-22T18:12:30Z</time>
      </trkpt>
      <trkpt lat="62.637224729758" lon="17.975902703326">
        <ele>81.8</ele>
        <time>2018-02-22T18:12:31Z</time>
      </trkpt>
      <trkpt lat="62.63720696013" lon="17.975938745496">
        <ele>81.8</ele>
        <time>2018-02-22T18:12:32Z</time>
      </trkpt>
      <trkpt lat="62.637196734212" lon="17.975985516498">
        <ele>82</ele>
        <time>2018-02-22T18:12:33Z</time>
      </trkpt>
      <trkpt lat="62.637187514122" lon="17.976019463193">
        <ele>82</ele>
        <time>2018-02-22T18:12:34Z</time>
      </trkpt>
      <trkpt lat="62.637179635136" lon="17.976055505363">
        <ele>82.2</ele>
        <time>2018-02-22T18:12:35Z</time>
      </trkpt>
      <trkpt lat="62.637165218268" lon="17.976101689632">
        <ele>82.4</ele>
        <time>2018-02-22T18:12:36Z</time>
      </trkpt>
      <trkpt lat="62.637152226323" lon="17.976157010172">
        <ele>82.6</ele>
        <time>2018-02-22T18:12:37Z</time>
      </trkpt>
      <trkpt lat="62.637151723409" lon="17.976188442297">
        <ele>82.8</ele>
        <time>2018-02-22T18:12:38Z</time>
      </trkpt>
      <trkpt lat="62.637137306541" lon="17.976237811688">
        <ele>82.8</ele>
        <time>2018-02-22T18:12:39Z</time>
      </trkpt>
      <trkpt lat="62.637130014288" lon="17.976296568807">
        <ele>83</ele>
        <time>2018-02-22T18:12:40Z</time>
      </trkpt>
      <trkpt lat="62.63712481751" lon="17.976339484135">
        <ele>83.2</ele>
        <time>2018-02-22T18:12:41Z</time>
      </trkpt>
      <trkpt lat="62.637121800026" lon="17.976374017563">
        <ele>83.4</ele>
        <time>2018-02-22T18:12:42Z</time>
      </trkpt>
      <trkpt lat="62.637114340135" lon="17.976426404438">
        <ele>83.4</ele>
        <time>2018-02-22T18:12:43Z</time>
      </trkpt>
      <trkpt lat="62.637109143357" lon="17.976473678354">
        <ele>83.6</ele>
        <time>2018-02-22T18:12:44Z</time>
      </trkpt>
      <trkpt lat="62.637106461149" lon="17.976509804343">
        <ele>83.8</ele>
        <time>2018-02-22T18:12:45Z</time>
      </trkpt>
      <trkpt lat="62.637100342362" lon="17.976573842059">
        <ele>83.8</ele>
        <time>2018-02-22T18:12:46Z</time>
      </trkpt>
      <trkpt lat="62.63710218638" lon="17.976606028555">
        <ele>83.8</ele>
        <time>2018-02-22T18:12:47Z</time>
      </trkpt>
      <trkpt lat="62.637095983774" lon="17.976669144262">
        <ele>84</ele>
        <time>2018-02-22T18:12:48Z</time>
      </trkpt>
      <trkpt lat="62.637090703177" lon="17.976723291336">
        <ele>84</ele>
        <time>2018-02-22T18:12:49Z</time>
      </trkpt>
      <trkpt lat="62.637084081476" lon="17.976760004058">
        <ele>84.2</ele>
        <time>2018-02-22T18:12:50Z</time>
      </trkpt>
      <trkpt lat="62.637080141983" lon="17.976836363167">
        <ele>84</ele>
        <time>2018-02-22T18:12:51Z</time>
      </trkpt>
      <trkpt lat="62.637079639069" lon="17.976892773354">
        <ele>84.2</ele>
        <time>2018-02-22T18:12:52Z</time>
      </trkpt>
      <trkpt lat="62.637082572734" lon="17.976925378945">
        <ele>84.2</ele>
        <time>2018-02-22T18:12:53Z</time>
      </trkpt>
      <trkpt lat="62.63708123163" lon="17.976999139665">
        <ele>84.2</ele>
        <time>2018-02-22T18:12:54Z</time>
      </trkpt>
      <trkpt lat="62.637085674037" lon="17.97705655568">
        <ele>84.2</ele>
        <time>2018-02-22T18:12:55Z</time>
      </trkpt>
      <trkpt lat="62.637085254942" lon="17.977091256746">
        <ele>84.2</ele>
        <time>2018-02-22T18:12:56Z</time>
      </trkpt>
      <trkpt lat="62.637082991829" lon="17.977170298063">
        <ele>84.2</ele>
        <time>2018-02-22T18:12:57Z</time>
      </trkpt>
      <trkpt lat="62.637086847503" lon="17.977211117916">
        <ele>84.2</ele>
        <time>2018-02-22T18:12:58Z</time>
      </trkpt>
      <trkpt lat="62.63708039344" lon="17.977259565298">
        <ele>84.2</ele>
        <time>2018-02-22T18:12:59Z</time>
      </trkpt>
      <trkpt lat="62.637071592445" lon="17.977334583303">
        <ele>84.4</ele>
        <time>2018-02-22T18:13:00Z</time>
      </trkpt>
      <trkpt lat="62.63707620249" lon="17.977367272713">
        <ele>84.4</ele>
        <time>2018-02-22T18:13:01Z</time>
      </trkpt>
      <trkpt lat="62.637057846129" lon="17.977444386193">
        <ele>84.2</ele>
        <time>2018-02-22T18:13:02Z</time>
      </trkpt>
      <trkpt lat="62.637042926347" lon="17.977498030353">
        <ele>84.2</ele>
        <time>2018-02-22T18:13:03Z</time>
      </trkpt>
      <trkpt lat="62.637037981026" lon="17.97752761846">
        <ele>84.4</ele>
        <time>2018-02-22T18:13:04Z</time>
      </trkpt>
      <trkpt lat="62.637016774819" lon="17.977597691144">
        <ele>84.2</ele>
        <time>2018-02-22T18:13:05Z</time>
      </trkpt>
      <trkpt lat="62.637002609408" lon="17.97764747963">
        <ele>84.4</ele>
        <time>2018-02-22T18:13:06Z</time>
      </trkpt>
      <trkpt lat="62.636993137861" lon="17.977686790741">
        <ele>84.4</ele>
        <time>2018-02-22T18:13:07Z</time>
      </trkpt>
      <trkpt lat="62.636975368233" lon="17.97775812071">
        <ele>84.4</ele>
        <time>2018-02-22T18:13:08Z</time>
      </trkpt>
      <trkpt lat="62.63696807598" lon="17.977776057976">
        <ele>84.4</ele>
        <time>2018-02-22T18:13:09Z</time>
      </trkpt>
      <trkpt lat="62.636958520614" lon="17.977832216706">
        <ele>84.4</ele>
        <time>2018-02-22T18:13:10Z</time>
      </trkpt>
      <trkpt lat="62.636955419311" lon="17.977898182259">
        <ele>84.6</ele>
        <time>2018-02-22T18:13:11Z</time>
      </trkpt>
      <trkpt lat="62.636951982732" lon="17.977938247741">
        <ele>84.6</ele>
        <time>2018-02-22T18:13:12Z</time>
      </trkpt>
      <trkpt lat="62.63694376847" lon="17.977999687068">
        <ele>84.6</ele>
        <time>2018-02-22T18:13:13Z</time>
      </trkpt>
      <trkpt lat="62.636934213104" lon="17.978066239354">
        <ele>84.6</ele>
        <time>2018-02-22T18:13:14Z</time>
      </trkpt>
      <trkpt lat="62.636935470389" lon="17.978105885741">
        <ele>84.6</ele>
        <time>2018-02-22T18:13:15Z</time>
      </trkpt>
      <trkpt lat="62.636921556435" lon="17.978174365864">
        <ele>84.8</ele>
        <time>2018-02-22T18:13:16Z</time>
      </trkpt>
      <trkpt lat="62.636910576146" lon="17.978232368612">
        <ele>84.8</ele>
        <time>2018-02-22T18:13:17Z</time>
      </trkpt>
      <trkpt lat="62.6369077263" lon="17.978266482945">
        <ele>84.8</ele>
        <time>2018-02-22T18:13:18Z</time>
      </trkpt>
      <trkpt lat="62.636894566717" lon="17.978328509005">
        <ele>84.8</ele>
        <time>2018-02-22T18:13:19Z</time>
      </trkpt>
      <trkpt lat="62.636883921704" lon="17.97838005769">
        <ele>84.8</ele>
        <time>2018-02-22T18:13:20Z</time>
      </trkpt>
      <trkpt lat="62.636872857596" lon="17.978417860059">
        <ele>85</ele>
        <time>2018-02-22T18:13:21Z</time>
      </trkpt>
      <trkpt lat="62.636848969181" lon="17.978485501992">
        <ele>85</ele>
        <time>2018-02-22T18:13:22Z</time>
      </trkpt>
      <trkpt lat="62.63684150929" lon="17.978517185574">
        <ele>85</ele>
        <time>2018-02-22T18:13:23Z</time>
      </trkpt>
      <trkpt lat="62.636824326395" lon="17.978560184721">
        <ele>85</ele>
        <time>2018-02-22T18:13:24Z</time>
      </trkpt>
      <trkpt lat="62.63680127617" lon="17.978613158329">
        <ele>85.2</ele>
        <time>2018-02-22T18:13:25Z</time>
      </trkpt>
      <trkpt lat="62.63679205608" lon="17.978628413387">
        <ele>85.2</ele>
        <time>2018-02-22T18:13:26Z</time>
      </trkpt>
      <trkpt lat="62.636765234" lon="17.978675771122">
        <ele>85.2</ele>
        <time>2018-02-22T18:13:27Z</time>
      </trkpt>
      <trkpt lat="62.636747799648" lon="17.978700916822">
        <ele>85.4</ele>
        <time>2018-02-22T18:13:28Z</time>
      </trkpt>
      <trkpt lat="62.636728186002" lon="17.978722625943">
        <ele>85.6</ele>
        <time>2018-02-22T18:13:29Z</time>
      </trkpt>
      <trkpt lat="62.636712511849" lon="17.978745759987">
        <ele>85.8</ele>
        <time>2018-02-22T18:13:30Z</time>
      </trkpt>
      <trkpt lat="62.636690383633" lon="17.978759254846">
        <ele>85.8</ele>
        <time>2018-02-22T18:13:31Z</time>
      </trkpt>
      <trkpt lat="62.636660041155" lon="17.978775767189">
        <ele>86</ele>
        <time>2018-02-22T18:13:32Z</time>
      </trkpt>
      <trkpt lat="62.636641684794" lon="17.978786076926">
        <ele>86.2</ele>
        <time>2018-02-22T18:13:33Z</time>
      </trkpt>
      <trkpt lat="62.636627687021" lon="17.978795045559">
        <ele>86.2</ele>
        <time>2018-02-22T18:13:34Z</time>
      </trkpt>
      <trkpt lat="62.636597931276" lon="17.97879496174">
        <ele>86.2</ele>
        <time>2018-02-22T18:13:35Z</time>
      </trkpt>
      <trkpt lat="62.6365724503" lon="17.978793369179">
        <ele>86.4</ele>
        <time>2018-02-22T18:13:36Z</time>
      </trkpt>
      <trkpt lat="62.636548645704" lon="17.978792614808">
        <ele>86.4</ele>
        <time>2018-02-22T18:13:37Z</time>
      </trkpt>
      <trkpt lat="62.636530373162" lon="17.978789429686">
        <ele>86.6</ele>
        <time>2018-02-22T18:13:38Z</time>
      </trkpt>
      <trkpt lat="62.636511346249" lon="17.978790016419">
        <ele>86.6</ele>
        <time>2018-02-22T18:13:39Z</time>
      </trkpt>
      <trkpt lat="62.636485027083" lon="17.978784735822">
        <ele>86.6</ele>
        <time>2018-02-22T18:13:40Z</time>
      </trkpt>
      <trkpt lat="62.636465245799" lon="17.978785490193">
        <ele>86.8</ele>
        <time>2018-02-22T18:13:41Z</time>
      </trkpt>
      <trkpt lat="62.636443871954" lon="17.978788842953">
        <ele>87</ele>
        <time>2018-02-22T18:13:42Z</time>
      </trkpt>
      <trkpt lat="62.63642409067" lon="17.978788842953">
        <ele>87.2</ele>
        <time>2018-02-22T18:13:43Z</time>
      </trkpt>
      <trkpt lat="62.636404644662" lon="17.978796135206">
        <ele>87.2</ele>
        <time>2018-02-22T18:13:44Z</time>
      </trkpt>
      <trkpt lat="62.636383606093" lon="17.978801080527">
        <ele>87.2</ele>
        <time>2018-02-22T18:13:45Z</time>
      </trkpt>
      <trkpt lat="62.636365082094" lon="17.978805606753">
        <ele>87.4</ele>
        <time>2018-02-22T18:13:46Z</time>
      </trkpt>
      <trkpt lat="62.636348234475" lon="17.978807283133">
        <ele>87.6</ele>
        <time>2018-02-22T18:13:47Z</time>
      </trkpt>
      <trkpt lat="62.636328285553" lon="17.978820275078">
        <ele>87.8</ele>
        <time>2018-02-22T18:13:48Z</time>
      </trkpt>
      <trkpt lat="62.636318059635" lon="17.978823963114">
        <ele>88</ele>
        <time>2018-02-22T18:13:49Z</time>
      </trkpt>
      <trkpt lat="62.636297104885" lon="17.978836955059">
        <ele>88.4</ele>
        <time>2018-02-22T18:13:50Z</time>
      </trkpt>
      <trkpt lat="62.636278497067" lon="17.978852293936">
        <ele>88.8</ele>
        <time>2018-02-22T18:13:51Z</time>
      </trkpt>
      <trkpt lat="62.636261062715" lon="17.978866375528">
        <ele>89</ele>
        <time>2018-02-22T18:13:52Z</time>
      </trkpt>
      <trkpt lat="62.636241281431" lon="17.978889761029">
        <ele>89.4</ele>
        <time>2018-02-22T18:13:53Z</time>
      </trkpt>
      <trkpt lat="62.636222422156" lon="17.978912392159">
        <ele>89.4</ele>
        <time>2018-02-22T18:13:54Z</time>
      </trkpt>
      <trkpt lat="62.636206077451" lon="17.978933933642">
        <ele>89.6</ele>
        <time>2018-02-22T18:13:55Z</time>
      </trkpt>
      <trkpt lat="62.636197192637" lon="17.978957067686">
        <ele>89.8</ele>
        <time>2018-02-22T18:13:56Z</time>
      </trkpt>
      <trkpt lat="62.636185709434" lon="17.978979195902">
        <ele>90</ele>
        <time>2018-02-22T18:13:57Z</time>
      </trkpt>
      <trkpt lat="62.636173807136" lon="17.978996630254">
        <ele>90.2</ele>
        <time>2018-02-22T18:13:58Z</time>
      </trkpt>
      <trkpt lat="62.636164335589" lon="17.979007526724">
        <ele>90.4</ele>
        <time>2018-02-22T18:13:59Z</time>
      </trkpt>
      <trkpt lat="62.636153690576" lon="17.979024458162">
        <ele>90.6</ele>
        <time>2018-02-22T18:14:00Z</time>
      </trkpt>
      <trkpt lat="62.636139525165" lon="17.979045832007">
        <ele>91</ele>
        <time>2018-02-22T18:14:01Z</time>
      </trkpt>
      <trkpt lat="62.636128461057" lon="17.97906904987">
        <ele>91.4</ele>
        <time>2018-02-22T18:14:02Z</time>
      </trkpt>
      <trkpt lat="62.636114714741" lon="17.979086903317">
        <ele>91.6</ele>
        <time>2018-02-22T18:14:03Z</time>
      </trkpt>
      <trkpt lat="62.63610222571" lon="17.979108528619">
        <ele>91.8</ele>
        <time>2018-02-22T18:14:04Z</time>
      </trkpt>
      <trkpt lat="62.636086719195" lon="17.979133506681">
        <ele>92</ele>
        <time>2018-02-22T18:14:05Z</time>
      </trkpt>
      <trkpt lat="62.636070039214" lon="17.979166447548">
        <ele>92.4</ele>
        <time>2018-02-22T18:14:06Z</time>
      </trkpt>
      <trkpt lat="62.63606366897" lon="17.979188743402">
        <ele>92.6</ele>
        <time>2018-02-22T18:14:07Z</time>
      </trkpt>
      <trkpt lat="62.636053191595" lon="17.97922914416">
        <ele>92.8</ele>
        <time>2018-02-22T18:14:08Z</time>
      </trkpt>
      <trkpt lat="62.636040451107" lon="17.979270550746">
        <ele>93.2</ele>
        <time>2018-02-22T18:14:09Z</time>
      </trkpt>
      <trkpt lat="62.636035757243" lon="17.979308353115">
        <ele>93.6</ele>
        <time>2018-02-22T18:14:10Z</time>
      </trkpt>
      <trkpt lat="62.636031231017" lon="17.979357303411">
        <ele>93.8</ele>
        <time>2018-02-22T18:14:11Z</time>
      </trkpt>
      <trkpt lat="62.636028045895" lon="17.979400889291">
        <ele>94</ele>
        <time>2018-02-22T18:14:12Z</time>
      </trkpt>
      <trkpt lat="62.636018155253" lon="17.979483786282">
        <ele>94</ele>
        <time>2018-02-22T18:14:13Z</time>
      </trkpt>
      <trkpt lat="62.636018909624" lon="17.979529551456">
        <ele>93.8</ele>
        <time>2018-02-22T18:14:14Z</time>
      </trkpt>
      <trkpt lat="62.63600499567" lon="17.979648993531">
        <ele>93.8</ele>
        <time>2018-02-22T18:14:15Z</time>
      </trkpt>
      <trkpt lat="62.636000553263" lon="17.979782181922">
        <ele>93.4</ele>
        <time>2018-02-22T18:14:16Z</time>
      </trkpt>
      <trkpt lat="62.635997535779" lon="17.979920483272">
        <ele>92.8</ele>
        <time>2018-02-22T18:14:17Z</time>
      </trkpt>
      <trkpt lat="62.635999044521" lon="17.980060461002">
        <ele>92</ele>
        <time>2018-02-22T18:14:18Z</time>
      </trkpt>
      <trkpt lat="62.636007594059" lon="17.980174454842">
        <ele>91.4</ele>
        <time>2018-02-22T18:14:19Z</time>
      </trkpt>
      <trkpt lat="62.636022262384" lon="17.980316528047">
        <ele>90.2</ele>
        <time>2018-02-22T18:14:20Z</time>
      </trkpt>
      <trkpt lat="62.636035924881" lon="17.980437981778">
        <ele>89.4</ele>
        <time>2018-02-22T18:14:21Z</time>
      </trkpt>
      <trkpt lat="62.636051682853" lon="17.98055180798">
        <ele>88.6</ele>
        <time>2018-02-22T18:14:22Z</time>
      </trkpt>
      <trkpt lat="62.636065010074" lon="17.980646104355">
        <ele>88.4</ele>
        <time>2018-02-22T18:14:23Z</time>
      </trkpt>
      <trkpt lat="62.636084456082" lon="17.980744004947">
        <ele>88</ele>
        <time>2018-02-22T18:14:24Z</time>
      </trkpt>
      <trkpt lat="62.636105159375" lon="17.98084601267">
        <ele>87.8</ele>
        <time>2018-02-22T18:14:25Z</time>
      </trkpt>
      <trkpt lat="62.636121001166" lon="17.98093905176">
        <ele>87.8</ele>
        <time>2018-02-22T18:14:26Z</time>
      </trkpt>
      <trkpt lat="62.636135585672" lon="17.981026055882">
        <ele>87.6</ele>
        <time>2018-02-22T18:14:27Z</time>
      </trkpt>
      <trkpt lat="62.636144386667" lon="17.981115574574">
        <ele>87.2</ele>
        <time>2018-02-22T18:14:28Z</time>
      </trkpt>
      <trkpt lat="62.636153774395" lon="17.981200650859">
        <ele>87</ele>
        <time>2018-02-22T18:14:29Z</time>
      </trkpt>
      <trkpt lat="62.636170705833" lon="17.981296539795">
        <ele>87</ele>
        <time>2018-02-22T18:14:30Z</time>
      </trkpt>
      <trkpt lat="62.636191157669" lon="17.981348004661">
        <ele>87</ele>
        <time>2018-02-22T18:14:31Z</time>
      </trkpt>
      <trkpt lat="62.636200713035" lon="17.981441881941">
        <ele>87</ele>
        <time>2018-02-22T18:14:32Z</time>
      </trkpt>
      <trkpt lat="62.636212615333" lon="17.981505752019">
        <ele>87</ele>
        <time>2018-02-22T18:14:33Z</time>
      </trkpt>
      <trkpt lat="62.636218482663" lon="17.981559563817">
        <ele>87</ele>
        <time>2018-02-22T18:14:34Z</time>
      </trkpt>
      <trkpt lat="62.636225691097" lon="17.981646148844">
        <ele>86.8</ele>
        <time>2018-02-22T18:14:35Z</time>
      </trkpt>
      <trkpt lat="62.636243209268" lon="17.98171773027">
        <ele>86.8</ele>
        <time>2018-02-22T18:14:36Z</time>
      </trkpt>
      <trkpt lat="62.636248238408" lon="17.981791742447">
        <ele>86.6</ele>
        <time>2018-02-22T18:14:37Z</time>
      </trkpt>
      <trkpt lat="62.636256704127" lon="17.981860641665">
        <ele>86.8</ele>
        <time>2018-02-22T18:14:38Z</time>
      </trkpt>
      <trkpt lat="62.636272545918" lon="17.981915459291">
        <ele>86.6</ele>
        <time>2018-02-22T18:14:39Z</time>
      </trkpt>
      <trkpt lat="62.636283526207" lon="17.982007324915">
        <ele>86.6</ele>
        <time>2018-02-22T18:14:40Z</time>
      </trkpt>
      <trkpt lat="62.636290147908" lon="17.982080247445">
        <ele>86.6</ele>
        <time>2018-02-22T18:14:41Z</time>
      </trkpt>
      <trkpt lat="62.636300122369" lon="17.982133640148">
        <ele>86.6</ele>
        <time>2018-02-22T18:14:42Z</time>
      </trkpt>
      <trkpt lat="62.636297859256" lon="17.982205389212">
        <ele>86.6</ele>
        <time>2018-02-22T18:14:43Z</time>
      </trkpt>
      <trkpt lat="62.63631596416" lon="17.982249729463">
        <ele>86.6</ele>
        <time>2018-02-22T18:14:44Z</time>
      </trkpt>
      <trkpt lat="62.636312946676" lon="17.982329022237">
        <ele>86.6</ele>
        <time>2018-02-22T18:14:45Z</time>
      </trkpt>
      <trkpt lat="62.636316131798" lon="17.982392724677">
        <ele>86.6</ele>
        <time>2018-02-22T18:14:46Z</time>
      </trkpt>
      <trkpt lat="62.63631764054" lon="17.982430275589">
        <ele>86.4</ele>
        <time>2018-02-22T18:14:47Z</time>
      </trkpt>
      <trkpt lat="62.636314790694" lon="17.982508646354">
        <ele>86.6</ele>
        <time>2018-02-22T18:14:48Z</time>
      </trkpt>
      <trkpt lat="62.636303475129" lon="17.982557009917">
        <ele>86.4</ele>
        <time>2018-02-22T18:14:49Z</time>
      </trkpt>
      <trkpt lat="62.636316634712" lon="17.982619287434">
        <ele>86.6</ele>
        <time>2018-02-22T18:14:50Z</time>
      </trkpt>
      <trkpt lat="62.636309510097" lon="17.982694556896">
        <ele>86.4</ele>
        <time>2018-02-22T18:14:51Z</time>
      </trkpt>
      <trkpt lat="62.636308168993" lon="17.982740489708">
        <ele>86.4</ele>
        <time>2018-02-22T18:14:52Z</time>
      </trkpt>
      <trkpt lat="62.636301547292" lon="17.982803940691">
        <ele>86.4</ele>
        <time>2018-02-22T18:14:53Z</time>
      </trkpt>
      <trkpt lat="62.636303475129" lon="17.982874767746">
        <ele>86.4</ele>
        <time>2018-02-22T18:14:54Z</time>
      </trkpt>
      <trkpt lat="62.636307246984" lon="17.982919443273">
        <ele>86.4</ele>
        <time>2018-02-22T18:14:55Z</time>
      </trkpt>
      <trkpt lat="62.636303810405" lon="17.983004519558">
        <ele>86.6</ele>
        <time>2018-02-22T18:14:56Z</time>
      </trkpt>
      <trkpt lat="62.636307414622" lon="17.983055230053">
        <ele>86.4</ele>
        <time>2018-02-22T18:14:57Z</time>
      </trkpt>
      <trkpt lat="62.636309342459" lon="17.983096636639">
        <ele>86.4</ele>
        <time>2018-02-22T18:14:58Z</time>
      </trkpt>
      <trkpt lat="62.636305570604" lon="17.983187412616">
        <ele>86.6</ele>
        <time>2018-02-22T18:14:59Z</time>
      </trkpt>
      <trkpt lat="62.636308755726" lon="17.98325916168">
        <ele>86.6</ele>
        <time>2018-02-22T18:15:00Z</time>
      </trkpt>
      <trkpt lat="62.636302804577" lon="17.983316074781">
        <ele>86.8</ele>
        <time>2018-02-22T18:15:01Z</time>
      </trkpt>
      <trkpt lat="62.63630003855" lon="17.983378519936">
        <ele>86.8</ele>
        <time>2018-02-22T18:15:02Z</time>
      </trkpt>
      <trkpt lat="62.636302720758" lon="17.983413221002">
        <ele>87</ele>
        <time>2018-02-22T18:15:03Z</time>
      </trkpt>
      <trkpt lat="62.636293081573" lon="17.983466026972">
        <ele>87</ele>
        <time>2018-02-22T18:15:04Z</time>
      </trkpt>
      <trkpt lat="62.636277155963" lon="17.983526628109">
        <ele>87</ele>
        <time>2018-02-22T18:15:05Z</time>
      </trkpt>
      <trkpt lat="62.636275647221" lon="17.983582032468">
        <ele>87</ele>
        <time>2018-02-22T18:15:06Z</time>
      </trkpt>
      <trkpt lat="62.636265253665" lon="17.983628887289">
        <ele>87</ele>
        <time>2018-02-22T18:15:07Z</time>
      </trkpt>
      <trkpt lat="62.636257207041" lon="17.983699295249">
        <ele>87</ele>
        <time>2018-02-22T18:15:08Z</time>
      </trkpt>
      <trkpt lat="62.63624471801" lon="17.98374866464">
        <ele>87.2</ele>
        <time>2018-02-22T18:15:09Z</time>
      </trkpt>
      <trkpt lat="62.636244382734" lon="17.983788311027">
        <ele>87.4</ele>
        <time>2018-02-22T18:15:10Z</time>
      </trkpt>
      <trkpt lat="62.636230636418" lon="17.983853773666">
        <ele>87.4</ele>
        <time>2018-02-22T18:15:11Z</time>
      </trkpt>
      <trkpt lat="62.636215548998" lon="17.983910100034">
        <ele>87.6</ele>
        <time>2018-02-22T18:15:12Z</time>
      </trkpt>
      <trkpt lat="62.636217812111" lon="17.983950836068">
        <ele>87.8</ele>
        <time>2018-02-22T18:15:13Z</time>
      </trkpt>
      <trkpt lat="62.636199707207" lon="17.984031050851">
        <ele>88</ele>
        <time>2018-02-22T18:15:14Z</time>
      </trkpt>
      <trkpt lat="62.636192666411" lon="17.984090478522">
        <ele>88</ele>
        <time>2018-02-22T18:15:15Z</time>
      </trkpt>
      <trkpt lat="62.636194091334" lon="17.984120234267">
        <ele>88.2</ele>
        <time>2018-02-22T18:15:16Z</time>
      </trkpt>
      <trkpt lat="62.63618855928" lon="17.984192486245">
        <ele>88.2</ele>
        <time>2018-02-22T18:15:17Z</time>
      </trkpt>
      <trkpt lat="62.636181686122" lon="17.984237497048">
        <ele>88.2</ele>
        <time>2018-02-22T18:15:18Z</time>
      </trkpt>
      <trkpt lat="62.636182440493" lon="17.984268761535">
        <ele>88.4</ele>
        <time>2018-02-22T18:15:19Z</time>
      </trkpt>
      <trkpt lat="62.636173052765" lon="17.984354089277">
        <ele>88.2</ele>
        <time>2018-02-22T18:15:20Z</time>
      </trkpt>
      <trkpt lat="62.636167185435" lon="17.984413684586">
        <ele>88.4</ele>
        <time>2018-02-22T18:15:21Z</time>
      </trkpt>
      <trkpt lat="62.636179506828" lon="17.984453414792">
        <ele>88.6</ele>
        <time>2018-02-22T18:15:22Z</time>
      </trkpt>
      <trkpt lat="62.636166514883" lon="17.984531785557">
        <ele>88.4</ele>
        <time>2018-02-22T18:15:23Z</time>
      </trkpt>
      <trkpt lat="62.63616508996" lon="17.984598505481">
        <ele>88.6</ele>
        <time>2018-02-22T18:15:24Z</time>
      </trkpt>
      <trkpt lat="62.63616676634" lon="17.984639912067">
        <ele>88.6</ele>
        <time>2018-02-22T18:15:25Z</time>
      </trkpt>
      <trkpt lat="62.636152852386" lon="17.984715013891">
        <ele>88.6</ele>
        <time>2018-02-22T18:15:26Z</time>
      </trkpt>
      <trkpt lat="62.636143045563" lon="17.984786679136">
        <ele>88.6</ele>
        <time>2018-02-22T18:15:27Z</time>
      </trkpt>
      <trkpt lat="62.636153522938" lon="17.984816853976">
        <ele>88.6</ele>
        <time>2018-02-22T18:15:28Z</time>
      </trkpt>
      <trkpt lat="62.636141453002" lon="17.984877371294">
        <ele>88.8</ele>
        <time>2018-02-22T18:15:29Z</time>
      </trkpt>
      <trkpt lat="62.636139692803" lon="17.98494392358">
        <ele>88.8</ele>
        <time>2018-02-22T18:15:30Z</time>
      </trkpt>
      <trkpt lat="62.636143548477" lon="17.984986335994">
        <ele>89</ele>
        <time>2018-02-22T18:15:31Z</time>
      </trkpt>
      <trkpt lat="62.636131394722" lon="17.985031514435">
        <ele>89</ele>
        <time>2018-02-22T18:15:32Z</time>
      </trkpt>
      <trkpt lat="62.636120582071" lon="17.985110220476">
        <ele>89.2</ele>
        <time>2018-02-22T18:15:33Z</time>
      </trkpt>
      <trkpt lat="62.636118402777" lon="17.985161936799">
        <ele>89.4</ele>
        <time>2018-02-22T18:15:34Z</time>
      </trkpt>
      <trkpt lat="62.636121001166" lon="17.985190686716">
        <ele>89.6</ele>
        <time>2018-02-22T18:15:35Z</time>
      </trkpt>
      <trkpt lat="62.636112703085" lon="17.985274505716">
        <ele>89.6</ele>
        <time>2018-02-22T18:15:36Z</time>
      </trkpt>
      <trkpt lat="62.636106165203" lon="17.985334268663">
        <ele>89.8</ele>
        <time>2018-02-22T18:15:37Z</time>
      </trkpt>
      <trkpt lat="62.636109853239" lon="17.985352876481">
        <ele>90</ele>
        <time>2018-02-22T18:15:38Z</time>
      </trkpt>
      <trkpt lat="62.636103566814" lon="17.985423703536">
        <ele>90</ele>
        <time>2018-02-22T18:15:39Z</time>
      </trkpt>
      <trkpt lat="62.636100968425" lon="17.98548455613">
        <ele>90</ele>
        <time>2018-02-22T18:15:40Z</time>
      </trkpt>
      <trkpt lat="62.6361030639" lon="17.985512551676">
        <ele>90.2</ele>
        <time>2018-02-22T18:15:41Z</time>
      </trkpt>
      <trkpt lat="62.636097867122" lon="17.985591760631">
        <ele>90.2</ele>
        <time>2018-02-22T18:15:42Z</time>
      </trkpt>
      <trkpt lat="62.636097280389" lon="17.985635095054">
        <ele>90.4</ele>
        <time>2018-02-22T18:15:43Z</time>
      </trkpt>
      <trkpt lat="62.636085545729" lon="17.98567566345">
        <ele>90.4</ele>
        <time>2018-02-22T18:15:44Z</time>
      </trkpt>
      <trkpt lat="62.636069620119" lon="17.985730061981">
        <ele>90.4</ele>
        <time>2018-02-22T18:15:45Z</time>
      </trkpt>
      <trkpt lat="62.636062914599" lon="17.985762667572">
        <ele>90.4</ele>
        <time>2018-02-22T18:15:46Z</time>
      </trkpt>
      <trkpt lat="62.636053023957" lon="17.985798542104">
        <ele>90.4</ele>
        <time>2018-02-22T18:15:47Z</time>
      </trkpt>
      <trkpt lat="62.636029638456" lon="17.985842127984">
        <ele>90.6</ele>
        <time>2018-02-22T18:15:48Z</time>
      </trkpt>
      <trkpt lat="62.636005750041" lon="17.985879511258">
        <ele>90.6</ele>
        <time>2018-02-22T18:15:49Z</time>
      </trkpt>
      <trkpt lat="62.635993847743" lon="17.985902980578">
        <ele>90.6</ele>
        <time>2018-02-22T18:15:50Z</time>
      </trkpt>
      <trkpt lat="62.63597314445" lon="17.985925779346">
        <ele>90.8</ele>
        <time>2018-02-22T18:15:51Z</time>
      </trkpt>
      <trkpt lat="62.635939030117" lon="17.985948159019">
        <ele>90.8</ele>
        <time>2018-02-22T18:15:52Z</time>
      </trkpt>
      <trkpt lat="62.635928301285" lon="17.98597070633">
        <ele>91</ele>
        <time>2018-02-22T18:15:53Z</time>
      </trkpt>
      <trkpt lat="62.635905753974" lon="17.985985542293">
        <ele>91</ele>
        <time>2018-02-22T18:15:54Z</time>
      </trkpt>
      <trkpt lat="62.635877758428" lon="17.986005994129">
        <ele>91.2</ele>
        <time>2018-02-22T18:15:55Z</time>
      </trkpt>
      <trkpt lat="62.635863760655" lon="17.986025943051">
        <ele>91.4</ele>
        <time>2018-02-22T18:15:56Z</time>
      </trkpt>
      <trkpt lat="62.635847332131" lon="17.986036839521">
        <ele>91.6</ele>
        <time>2018-02-22T18:15:57Z</time>
      </trkpt>
      <trkpt lat="62.635831071245" lon="17.986055698796">
        <ele>91.6</ele>
        <time>2018-02-22T18:15:58Z</time>
      </trkpt>
      <trkpt lat="62.635801818414" lon="17.986074138976">
        <ele>91.8</ele>
        <time>2018-02-22T18:15:59Z</time>
      </trkpt>
      <trkpt lat="62.635784803157" lon="17.986099452314">
        <ele>91.8</ele>
        <time>2018-02-22T18:16:00Z</time>
      </trkpt>
      <trkpt lat="62.635761501475" lon="17.986131806448">
        <ele>91.8</ele>
        <time>2018-02-22T18:16:01Z</time>
      </trkpt>
      <trkpt lat="62.635736691051" lon="17.986171369016">
        <ele>92</ele>
        <time>2018-02-22T18:16:02Z</time>
      </trkpt>
      <trkpt lat="62.635724537296" lon="17.986196011802">
        <ele>92.2</ele>
        <time>2018-02-22T18:16:03Z</time>
      </trkpt>
      <trkpt lat="62.635712886455" lon="17.986211937412">
        <ele>92.2</ele>
        <time>2018-02-22T18:16:04Z</time>
      </trkpt>
      <trkpt lat="62.635695955017" lon="17.986237083112">
        <ele>92.4</ele>
        <time>2018-02-22T18:16:05Z</time>
      </trkpt>
      <trkpt lat="62.635684052719" lon="17.986273712015">
        <ele>92.6</ele>
        <time>2018-02-22T18:16:06Z</time>
      </trkpt>
      <trkpt lat="62.635669803489" lon="17.986299192991">
        <ele>92.6</ele>
        <time>2018-02-22T18:16:07Z</time>
      </trkpt>
      <trkpt lat="62.635649100196" lon="17.986352585694">
        <ele>92.8</ele>
        <time>2018-02-22T18:16:08Z</time>
      </trkpt>
      <trkpt lat="62.63563535388" lon="17.986390304244">
        <ele>93</ele>
        <time>2018-02-22T18:16:09Z</time>
      </trkpt>
      <trkpt lat="62.635622026659" lon="17.986432213744">
        <ele>93</ele>
        <time>2018-02-22T18:16:10Z</time>
      </trkpt>
      <trkpt lat="62.635608447981" lon="17.986491054682">
        <ele>93.2</ele>
        <time>2018-02-22T18:16:11Z</time>
      </trkpt>
      <trkpt lat="62.635596378045" lon="17.986527851223">
        <ele>93.4</ele>
        <time>2018-02-22T18:16:12Z</time>
      </trkpt>
      <trkpt lat="62.635577099675" lon="17.986586943618">
        <ele>93.4</ele>
        <time>2018-02-22T18:16:13Z</time>
      </trkpt>
      <trkpt lat="62.63556326954" lon="17.986640755416">
        <ele>93.6</ele>
        <time>2018-02-22T18:16:14Z</time>
      </trkpt>
      <trkpt lat="62.635548433577" lon="17.986679144518">
        <ele>93.6</ele>
        <time>2018-02-22T18:16:15Z</time>
      </trkpt>
      <trkpt lat="62.635534016709" lon="17.986708900263">
        <ele>93.6</ele>
        <time>2018-02-22T18:16:16Z</time>
      </trkpt>
      <trkpt lat="62.635529239026" lon="17.986746199718">
        <ele>93.8</ele>
        <time>2018-02-22T18:16:17Z</time>
      </trkpt>
      <trkpt lat="62.635508368095" lon="17.98680135262">
        <ele>93.8</ele>
        <time>2018-02-22T18:16:18Z</time>
      </trkpt>
      <trkpt lat="62.635494789417" lon="17.986828929071">
        <ele>94</ele>
        <time>2018-02-22T18:16:19Z</time>
      </trkpt>
      <trkpt lat="62.635477438884" lon="17.986880226299">
        <ele>94</ele>
        <time>2018-02-22T18:16:20Z</time>
      </trkpt>
      <trkpt lat="62.635463441111" lon="17.986941246531">
        <ele>94.2</ele>
        <time>2018-02-22T18:16:21Z</time>
      </trkpt>
      <trkpt lat="62.635460926541" lon="17.986974187398">
        <ele>94.4</ele>
        <time>2018-02-22T18:16:22Z</time>
      </trkpt>
      <trkpt lat="62.635446593492" lon="17.987012660319">
        <ele>94.4</ele>
        <time>2018-02-22T18:16:23Z</time>
      </trkpt>
      <trkpt lat="62.635420944878" lon="17.987067645583">
        <ele>94.4</ele>
        <time>2018-02-22T18:16:24Z</time>
      </trkpt>
      <trkpt lat="62.635410635141" lon="17.98709388093">
        <ele>94.4</ele>
        <time>2018-02-22T18:16:25Z</time>
      </trkpt>
      <trkpt lat="62.635396721187" lon="17.987116595879">
        <ele>94.6</ele>
        <time>2018-02-22T18:16:26Z</time>
      </trkpt>
      <trkpt lat="62.635371826944" lon="17.987152973325">
        <ele>94.8</ele>
        <time>2018-02-22T18:16:27Z</time>
      </trkpt>
      <trkpt lat="62.635351291289" lon="17.987188512581">
        <ele>94.8</ele>
        <time>2018-02-22T18:16:28Z</time>
      </trkpt>
      <trkpt lat="62.635336622964" lon="17.987206449847">
        <ele>95</ele>
        <time>2018-02-22T18:16:29Z</time>
      </trkpt>
      <trkpt lat="62.635310722893" lon="17.987254561953">
        <ele>95.2</ele>
        <time>2018-02-22T18:16:30Z</time>
      </trkpt>
      <trkpt lat="62.635301251346" lon="17.987270068468">
        <ele>95.2</ele>
        <time>2018-02-22T18:16:31Z</time>
      </trkpt>
      <trkpt lat="62.635281134786" lon="17.987313235253">
        <ele>95.2</ele>
        <time>2018-02-22T18:16:32Z</time>
      </trkpt>
      <trkpt lat="62.635255486172" lon="17.98736126354">
        <ele>95.2</ele>
        <time>2018-02-22T18:16:33Z</time>
      </trkpt>
      <trkpt lat="62.63523805182" lon="17.987400826108">
        <ele>95.2</ele>
        <time>2018-02-22T18:16:34Z</time>
      </trkpt>
      <trkpt lat="62.635225730427" lon="17.987426977636">
        <ele>95.2</ele>
        <time>2018-02-22T18:16:35Z</time>
      </trkpt>
      <trkpt lat="62.635197148148" lon="17.987471234068">
        <ele>95.8</ele>
        <time>2018-02-22T18:16:37Z</time>
      </trkpt>
      <trkpt lat="62.635167895317" lon="17.987519849088">
        <ele>95.8</ele>
        <time>2018-02-22T18:16:38Z</time>
      </trkpt>
      <trkpt lat="62.63515507101" lon="17.987543486046">
        <ele>96</ele>
        <time>2018-02-22T18:16:39Z</time>
      </trkpt>
      <trkpt lat="62.635138726305" lon="17.987573241791">
        <ele>96.2</ele>
        <time>2018-02-22T18:16:40Z</time>
      </trkpt>
      <trkpt lat="62.635116598089" lon="17.98760685321">
        <ele>96.4</ele>
        <time>2018-02-22T18:16:41Z</time>
      </trkpt>
      <trkpt lat="62.63509807409" lon="17.987635267851">
        <ele>96.2</ele>
        <time>2018-02-22T18:16:42Z</time>
      </trkpt>
      <trkpt lat="62.635083154308" lon="17.987663347216">
        <ele>96.4</ele>
        <time>2018-02-22T18:16:43Z</time>
      </trkpt>
      <trkpt lat="62.635064378852" lon="17.987690169296">
        <ele>96.6</ele>
        <time>2018-02-22T18:16:44Z</time>
      </trkpt>
      <trkpt lat="62.63504275355" lon="17.987726295285">
        <ele>96.8</ele>
        <time>2018-02-22T18:16:45Z</time>
      </trkpt>
      <trkpt lat="62.635028755777" lon="17.987751357166">
        <ele>97</ele>
        <time>2018-02-22T18:16:46Z</time>
      </trkpt>
      <trkpt lat="62.635008723036" lon="17.987783208386">
        <ele>97</ele>
        <time>2018-02-22T18:16:47Z</time>
      </trkpt>
      <trkpt lat="62.634987265372" lon="17.987813215588">
        <ele>97</ele>
        <time>2018-02-22T18:16:48Z</time>
      </trkpt>
      <trkpt lat="62.634970585391" lon="17.987837690736">
        <ele>97.2</ele>
        <time>2018-02-22T18:16:49Z</time>
      </trkpt>
      <trkpt lat="62.634944517682" lon="17.987868452309">
        <ele>97.2</ele>
        <time>2018-02-22T18:16:50Z</time>
      </trkpt>
      <trkpt lat="62.634922557104" lon="17.987895274389">
        <ele>97.2</ele>
        <time>2018-02-22T18:16:51Z</time>
      </trkpt>
      <trkpt lat="62.634904619838" lon="17.987922180288">
        <ele>97.4</ele>
        <time>2018-02-22T18:16:52Z</time>
      </trkpt>
      <trkpt lat="62.634886431115" lon="17.987948331816">
        <ele>97.4</ele>
        <time>2018-02-22T18:16:53Z</time>
      </trkpt>
      <trkpt lat="62.634866901288" lon="17.9879681131">
        <ele>97.4</ele>
        <time>2018-02-22T18:16:54Z</time>
      </trkpt>
      <trkpt lat="62.634844018701" lon="17.987988648755">
        <ele>97.6</ele>
        <time>2018-02-22T18:16:55Z</time>
      </trkpt>
      <trkpt lat="62.634825159426" lon="17.988007927125">
        <ele>97.8</ele>
        <time>2018-02-22T18:16:56Z</time>
      </trkpt>
      <trkpt lat="62.634806132513" lon="17.988024690925">
        <ele>97.8</ele>
        <time>2018-02-22T18:16:57Z</time>
      </trkpt>
      <trkpt lat="62.634774365112" lon="17.98804187382">
        <ele>98</ele>
        <time>2018-02-22T18:16:58Z</time>
      </trkpt>
      <trkpt lat="62.634756008751" lon="17.988060062543">
        <ele>98.2</ele>
        <time>2018-02-22T18:16:59Z</time>
      </trkpt>
      <trkpt lat="62.634733209983" lon="17.9880770778">
        <ele>98.2</ele>
        <time>2018-02-22T18:17:00Z</time>
      </trkpt>
      <trkpt lat="62.634713512518" lon="17.988084202415">
        <ele>98.4</ele>
        <time>2018-02-22T18:17:01Z</time>
      </trkpt>
      <trkpt lat="62.634694653243" lon="17.988098116369">
        <ele>98.4</ele>
        <time>2018-02-22T18:17:02Z</time>
      </trkpt>
      <trkpt lat="62.634669256086" lon="17.988104821889">
        <ele>98.6</ele>
        <time>2018-02-22T18:17:03Z</time>
      </trkpt>
      <trkpt lat="62.634647211689" lon="17.988105660079">
        <ele>98.6</ele>
        <time>2018-02-22T18:17:04Z</time>
      </trkpt>
      <trkpt lat="62.634626424577" lon="17.988110353943">
        <ele>98.8</ele>
        <time>2018-02-22T18:17:05Z</time>
      </trkpt>
      <trkpt lat="62.634593651348" lon="17.988119657852">
        <ele>98.8</ele>
        <time>2018-02-22T18:17:06Z</time>
      </trkpt>
      <trkpt lat="62.63457588172" lon="17.988125944277">
        <ele>99</ele>
        <time>2018-02-22T18:17:07Z</time>
      </trkpt>
      <trkpt lat="62.634558615006" lon="17.988137511299">
        <ele>99.2</ele>
        <time>2018-02-22T18:17:08Z</time>
      </trkpt>
      <trkpt lat="62.634533720763" lon="17.988144049181">
        <ele>99.2</ele>
        <time>2018-02-22T18:17:09Z</time>
      </trkpt>
      <trkpt lat="62.63451553204" lon="17.988137176023">
        <ele>99.2</ele>
        <time>2018-02-22T18:17:10Z</time>
      </trkpt>
      <trkpt lat="62.634494661109" lon="17.988148407769">
        <ele>99.2</ele>
        <time>2018-02-22T18:17:11Z</time>
      </trkpt>
      <trkpt lat="62.634464150993" lon="17.988151592891">
        <ele>99.4</ele>
        <time>2018-02-22T18:17:12Z</time>
      </trkpt>
      <trkpt lat="62.634442022777" lon="17.988154526556">
        <ele>99.6</ele>
        <time>2018-02-22T18:17:13Z</time>
      </trkpt>
      <trkpt lat="62.634419307828" lon="17.988166847949">
        <ele>99.4</ele>
        <time>2018-02-22T18:17:14Z</time>
      </trkpt>
      <trkpt lat="62.634394413585" lon="17.988176570953">
        <ele>99.6</ele>
        <time>2018-02-22T18:17:15Z</time>
      </trkpt>
      <trkpt lat="62.634373458835" lon="17.988179420799">
        <ele>99.6</ele>
        <time>2018-02-22T18:17:16Z</time>
      </trkpt>
      <trkpt lat="62.634353509913" lon="17.98819274802">
        <ele>99.8</ele>
        <time>2018-02-22T18:17:17Z</time>
      </trkpt>
      <trkpt lat="62.634324843815" lon="17.988198866807">
        <ele>100</ele>
        <time>2018-02-22T18:17:18Z</time>
      </trkpt>
      <trkpt lat="62.634303889065" lon="17.988199956454">
        <ele>100</ele>
        <time>2018-02-22T18:17:19Z</time>
      </trkpt>
      <trkpt lat="62.634273965682" lon="17.988200375549">
        <ele>100.2</ele>
        <time>2018-02-22T18:17:20Z</time>
      </trkpt>
      <trkpt lat="62.634241779186" lon="17.988201297558">
        <ele>100.2</ele>
        <time>2018-02-22T18:17:21Z</time>
      </trkpt>
      <trkpt lat="62.634218896599" lon="17.988204566499">
        <ele>100.4</ele>
        <time>2018-02-22T18:17:22Z</time>
      </trkpt>
      <trkpt lat="62.634184111714" lon="17.988197944798">
        <ele>100.4</ele>
        <time>2018-02-22T18:17:23Z</time>
      </trkpt>
      <trkpt lat="62.634154188331" lon="17.988187132147">
        <ele>100.4</ele>
        <time>2018-02-22T18:17:24Z</time>
      </trkpt>
      <trkpt lat="62.634128372079" lon="17.988183863206">
        <ele>100.6</ele>
        <time>2018-02-22T18:17:25Z</time>
      </trkpt>
      <trkpt lat="62.634094844479" lon="17.988174224021">
        <ele>100.6</ele>
        <time>2018-02-22T18:17:26Z</time>
      </trkpt>
      <trkpt lat="62.634075985204" lon="17.988174224021">
        <ele>100.6</ele>
        <time>2018-02-22T18:17:27Z</time>
      </trkpt>
      <trkpt lat="62.634049582219" lon="17.988159388058">
        <ele>100.8</ele>
        <time>2018-02-22T18:17:28Z</time>
      </trkpt>
      <trkpt lat="62.634024436519" lon="17.988148491588">
        <ele>101</ele>
        <time>2018-02-22T18:17:29Z</time>
      </trkpt>
      <trkpt lat="62.633996524792" lon="17.988136002557">
        <ele>100.8</ele>
        <time>2018-02-22T18:17:30Z</time>
      </trkpt>
      <trkpt lat="62.633970540902" lon="17.988115215445">
        <ele>100.8</ele>
        <time>2018-02-22T18:17:31Z</time>
      </trkpt>
      <trkpt lat="62.633942964451" lon="17.988088477184">
        <ele>100.8</ele>
        <time>2018-02-22T18:17:32Z</time>
      </trkpt>
      <trkpt lat="62.633919495131" lon="17.988080933474">
        <ele>101</ele>
        <time>2018-02-22T18:17:33Z</time>
      </trkpt>
      <trkpt lat="62.633892505413" lon="17.988065510778">
        <ele>101</ele>
        <time>2018-02-22T18:17:34Z</time>
      </trkpt>
      <trkpt lat="62.633863587858" lon="17.98804606477">
        <ele>101</ele>
        <time>2018-02-22T18:17:35Z</time>
      </trkpt>
      <trkpt lat="62.633835005579" lon="17.988032150816">
        <ele>101.2</ele>
        <time>2018-02-22T18:17:36Z</time>
      </trkpt>
      <trkpt lat="62.633808602594" lon="17.988006083107">
        <ele>101.2</ele>
        <time>2018-02-22T18:17:37Z</time>
      </trkpt>
      <trkpt lat="62.633781109962" lon="17.987981188864">
        <ele>101.2</ele>
        <time>2018-02-22T18:17:38Z</time>
      </trkpt>
      <trkpt lat="62.633760658126" lon="17.987962664865">
        <ele>101.2</ele>
        <time>2018-02-22T18:17:39Z</time>
      </trkpt>
      <trkpt lat="62.633734171322" lon="17.987934334043">
        <ele>101.4</ele>
        <time>2018-02-22T18:17:40Z</time>
      </trkpt>
      <trkpt lat="62.633711121097" lon="17.987913044017">
        <ele>101.4</ele>
        <time>2018-02-22T18:17:41Z</time>
      </trkpt>
      <trkpt lat="62.633691255994" lon="17.987894017104">
        <ele>101.4</ele>
        <time>2018-02-22T18:17:42Z</time>
      </trkpt>
      <trkpt lat="62.633666780846" lon="17.98786920668">
        <ele>101.6</ele>
        <time>2018-02-22T18:17:43Z</time>
      </trkpt>
      <trkpt lat="62.633643060069" lon="17.987841378772">
        <ele>101.8</ele>
        <time>2018-02-22T18:17:44Z</time>
      </trkpt>
      <trkpt lat="62.633621099491" lon="17.987808605543">
        <ele>101.8</ele>
        <time>2018-02-22T18:17:45Z</time>
      </trkpt>
      <trkpt lat="62.633601988759" lon="17.98778203492">
        <ele>102</ele>
        <time>2018-02-22T18:17:46Z</time>
      </trkpt>
      <trkpt lat="62.633583716217" lon="17.987765019663">
        <ele>102.2</ele>
        <time>2018-02-22T18:17:47Z</time>
      </trkpt>
      <trkpt lat="62.633563934933" lon="17.987740795972">
        <ele>102.4</ele>
        <time>2018-02-22T18:17:48Z</time>
      </trkpt>
      <trkpt lat="62.633547338771" lon="17.987721517602">
        <ele>102.6</ele>
        <time>2018-02-22T18:17:49Z</time>
      </trkpt>
      <trkpt lat="62.633523450356" lon="17.987685475432">
        <ele>103</ele>
        <time>2018-02-22T18:17:50Z</time>
      </trkpt>
      <trkpt lat="62.633500064855" lon="17.987653540393">
        <ele>103.2</ele>
        <time>2018-02-22T18:17:51Z</time>
      </trkpt>
      <trkpt lat="62.633484139245" lon="17.98763702805">
        <ele>103.4</ele>
        <time>2018-02-22T18:17:52Z</time>
      </trkpt>
      <trkpt lat="62.633460334649" lon="17.987602410803">
        <ele>103.6</ele>
        <time>2018-02-22T18:17:53Z</time>
      </trkpt>
      <trkpt lat="62.63344097246" lon="17.987564440796">
        <ele>103.6</ele>
        <time>2018-02-22T18:17:54Z</time>
      </trkpt>
      <trkpt lat="62.633423873384" lon="17.98752973973">
        <ele>103.8</ele>
        <time>2018-02-22T18:17:55Z</time>
      </trkpt>
      <trkpt lat="62.633409288878" lon="17.987494954845">
        <ele>103.6</ele>
        <time>2018-02-22T18:17:56Z</time>
      </trkpt>
      <trkpt lat="62.633395291105" lon="17.987466288747">
        <ele>103.8</ele>
        <time>2018-02-22T18:17:57Z</time>
      </trkpt>
      <trkpt lat="62.633379700771" lon="17.987432342052">
        <ele>103.8</ele>
        <time>2018-02-22T18:17:58Z</time>
      </trkpt>
      <trkpt lat="62.633364613351" lon="17.987404430325">
        <ele>104</ele>
        <time>2018-02-22T18:17:59Z</time>
      </trkpt>
      <trkpt lat="62.63334122785" lon="17.987354474201">
        <ele>104.2</ele>
        <time>2018-02-22T18:18:00Z</time>
      </trkpt>
      <trkpt lat="62.633318429082" lon="17.987309211941">
        <ele>104.4</ele>
        <time>2018-02-22T18:18:01Z</time>
      </trkpt>
      <trkpt lat="62.633292948106" lon="17.987240731818">
        <ele>104.6</ele>
        <time>2018-02-22T18:18:02Z</time>
      </trkpt>
      <trkpt lat="62.633274005012" lon="17.987174850084">
        <ele>104.8</ele>
        <time>2018-02-22T18:18:03Z</time>
      </trkpt>
      <trkpt lat="62.63324818876" lon="17.987082481546">
        <ele>105</ele>
        <time>2018-02-22T18:18:04Z</time>
      </trkpt>
      <trkpt lat="62.63322555763" lon="17.986965554041">
        <ele>104.4</ele>
        <time>2018-02-22T18:18:05Z</time>
      </trkpt>
      <trkpt lat="62.633207201269" lon="17.986850889649">
        <ele>103.6</ele>
        <time>2018-02-22T18:18:06Z</time>
      </trkpt>
      <trkpt lat="62.633186497976" lon="17.986750893582">
        <ele>102.8</ele>
        <time>2018-02-22T18:18:07Z</time>
      </trkpt>
      <trkpt lat="62.633169734176" lon="17.986646958022">
        <ele>102</ele>
        <time>2018-02-22T18:18:08Z</time>
      </trkpt>
      <trkpt lat="62.633159005344" lon="17.986561295004">
        <ele>101.6</ele>
        <time>2018-02-22T18:18:09Z</time>
      </trkpt>
      <trkpt lat="62.633148863245" lon="17.986464986973">
        <ele>101.6</ele>
        <time>2018-02-22T18:18:10Z</time>
      </trkpt>
      <trkpt lat="62.633142241544" lon="17.98637639029">
        <ele>101.6</ele>
        <time>2018-02-22T18:18:11Z</time>
      </trkpt>
      <trkpt lat="62.633125142468" lon="17.986283686476">
        <ele>101.8</ele>
        <time>2018-02-22T18:18:12Z</time>
      </trkpt>
      <trkpt lat="62.633124304278" lon="17.98617019555">
        <ele>101.8</ele>
        <time>2018-02-22T18:18:13Z</time>
      </trkpt>
      <trkpt lat="62.63312497483" lon="17.986062152859">
        <ele>101.6</ele>
        <time>2018-02-22T18:18:14Z</time>
      </trkpt>
      <trkpt lat="62.633128076133" lon="17.98594891339">
        <ele>101</ele>
        <time>2018-02-22T18:18:15Z</time>
      </trkpt>
      <trkpt lat="62.633133440549" lon="17.985842379441">
        <ele>100.4</ele>
        <time>2018-02-22T18:18:16Z</time>
      </trkpt>
      <trkpt lat="62.6331358713" lon="17.985739617347">
        <ele>100</ele>
        <time>2018-02-22T18:18:17Z</time>
      </trkpt>
      <trkpt lat="62.633138302051" lon="17.985628892448">
        <ele>99.6</ele>
        <time>2018-02-22T18:18:18Z</time>
      </trkpt>
      <trkpt lat="62.633134362558" lon="17.985549767312">
        <ele>99.2</ele>
        <time>2018-02-22T18:18:19Z</time>
      </trkpt>
      <trkpt lat="62.633135452205" lon="17.985451196168">
        <ele>99</ele>
        <time>2018-02-22T18:18:20Z</time>
      </trkpt>
      <trkpt lat="62.633134949291" lon="17.985352625024">
        <ele>99.2</ele>
        <time>2018-02-22T18:18:21Z</time>
      </trkpt>
      <trkpt lat="62.633146683951" lon="17.985234188777">
        <ele>99.2</ele>
        <time>2018-02-22T18:18:22Z</time>
      </trkpt>
      <trkpt lat="62.633160430267" lon="17.98511323796">
        <ele>99.4</ele>
        <time>2018-02-22T18:18:23Z</time>
      </trkpt>
      <trkpt lat="62.633177110248" lon="17.984989353478">
        <ele>99.2</ele>
        <time>2018-02-22T18:18:24Z</time>
      </trkpt>
      <trkpt lat="62.633198987007" lon="17.984872342154">
        <ele>98.6</ele>
        <time>2018-02-22T18:18:25Z</time>
      </trkpt>
      <trkpt lat="62.633222121051" lon="17.984764215644">
        <ele>97.8</ele>
        <time>2018-02-22T18:18:26Z</time>
      </trkpt>
      <trkpt lat="62.633243327258" lon="17.984665309224">
        <ele>96.8</ele>
        <time>2018-02-22T18:18:27Z</time>
      </trkpt>
      <trkpt lat="62.633265371655" lon="17.984576041989">
        <ele>96</ele>
        <time>2018-02-22T18:18:28Z</time>
      </trkpt>
      <trkpt lat="62.633287499871" lon="17.984503119459">
        <ele>95.4</ele>
        <time>2018-02-22T18:18:29Z</time>
      </trkpt>
      <trkpt lat="62.633306442965" lon="17.984410080369">
        <ele>95.4</ele>
        <time>2018-02-22T18:18:30Z</time>
      </trkpt>
      <trkpt lat="62.63331021482" lon="17.984342438436">
        <ele>95.4</ele>
        <time>2018-02-22T18:18:31Z</time>
      </trkpt>
      <trkpt lat="62.633315998331" lon="17.98426247511">
        <ele>95.8</ele>
        <time>2018-02-22T18:18:32Z</time>
      </trkpt>
      <trkpt lat="62.633322368575" lon="17.984184104345">
        <ele>96</ele>
        <time>2018-02-22T18:18:33Z</time>
      </trkpt>
      <trkpt lat="62.633321027471" lon="17.984125598683">
        <ele>96.2</ele>
        <time>2018-02-22T18:18:34Z</time>
      </trkpt>
      <trkpt lat="62.633327313896" lon="17.984044880986">
        <ele>96.4</ele>
        <time>2018-02-22T18:18:35Z</time>
      </trkpt>
      <trkpt lat="62.633334270873" lon="17.983977322872">
        <ele>96.6</ele>
        <time>2018-02-22T18:18:36Z</time>
      </trkpt>
      <trkpt lat="62.633338545642" lon="17.983919068667">
        <ele>96.6</ele>
        <time>2018-02-22T18:18:37Z</time>
      </trkpt>
      <trkpt lat="62.633346759904" lon="17.983852432562">
        <ele>96.8</ele>
        <time>2018-02-22T18:18:38Z</time>
      </trkpt>
      <trkpt lat="62.63334960975" lon="17.983795100366">
        <ele>96.8</ele>
        <time>2018-02-22T18:18:39Z</time>
      </trkpt>
      <trkpt lat="62.633358662202" lon="17.983738438722">
        <ele>96.8</ele>
        <time>2018-02-22T18:18:40Z</time>
      </trkpt>
      <trkpt lat="62.633375426002" lon="17.983674652463">
        <ele>96.8</ele>
        <time>2018-02-22T18:18:41Z</time>
      </trkpt>
      <trkpt lat="62.633388501766" lon="17.983615643887">
        <ele>96.8</ele>
        <time>2018-02-22T18:18:42Z</time>
      </trkpt>
      <trkpt lat="62.633400068788" lon="17.983559401338">
        <ele>96.6</ele>
        <time>2018-02-22T18:18:43Z</time>
      </trkpt>
      <trkpt lat="62.633413396009" lon="17.983488993378">
        <ele>96.6</ele>
        <time>2018-02-22T18:18:44Z</time>
      </trkpt>
      <trkpt lat="62.633426974687" lon="17.983417998685">
        <ele>96.6</ele>
        <time>2018-02-22T18:18:45Z</time>
      </trkpt>
      <trkpt lat="62.633437452062" lon="17.983359409204">
        <ele>96.6</ele>
        <time>2018-02-22T18:18:46Z</time>
      </trkpt>
      <trkpt lat="62.633450108731" lon="17.983289168882">
        <ele>96.6</ele>
        <time>2018-02-22T18:18:47Z</time>
      </trkpt>
      <trkpt lat="62.633461759572" lon="17.983221778406">
        <ele>96.6</ele>
        <time>2018-02-22T18:18:48Z</time>
      </trkpt>
      <trkpt lat="62.633478774829" lon="17.983164613848">
        <ele>96.8</ele>
        <time>2018-02-22T18:18:49Z</time>
      </trkpt>
      <trkpt lat="62.633496795914" lon="17.983090517852">
        <ele>96.8</ele>
        <time>2018-02-22T18:18:50Z</time>
      </trkpt>
      <trkpt lat="62.633505429271" lon="17.983032263647">
        <ele>96.6</ele>
        <time>2018-02-22T18:18:51Z</time>
      </trkpt>
      <trkpt lat="62.633523617994" lon="17.982967639198">
        <ele>96.6</ele>
        <time>2018-02-22T18:18:52Z</time>
      </trkpt>
      <trkpt lat="62.633536861396" lon="17.982904523491">
        <ele>96.6</ele>
        <time>2018-02-22T18:18:53Z</time>
      </trkpt>
      <trkpt lat="62.633544740382" lon="17.982845263458">
        <ele>96.6</ele>
        <time>2018-02-22T18:18:54Z</time>
      </trkpt>
      <trkpt lat="62.633562007096" lon="17.982777537706">
        <ele>96.8</ele>
        <time>2018-02-22T18:18:55Z</time>
      </trkpt>
      <trkpt lat="62.633578351801" lon="17.982719451139">
        <ele>96.8</ele>
        <time>2018-02-22T18:18:56Z</time>
      </trkpt>
      <trkpt lat="62.633590757013" lon="17.982661280753">
        <ele>97</ele>
        <time>2018-02-22T18:18:57Z</time>
      </trkpt>
      <trkpt lat="62.633604670967" lon="17.982598165046">
        <ele>97</ele>
        <time>2018-02-22T18:18:58Z</time>
      </trkpt>
      <trkpt lat="62.633609867745" lon="17.982547706008">
        <ele>97</ele>
        <time>2018-02-22T18:18:59Z</time>
      </trkpt>
      <trkpt lat="62.633625458079" lon="17.982480231713">
        <ele>97</ele>
        <time>2018-02-22T18:19:00Z</time>
      </trkpt>
      <trkpt lat="62.633635097264" lon="17.982424072983">
        <ele>97</ele>
        <time>2018-02-22T18:19:01Z</time>
      </trkpt>
      <trkpt lat="62.633641467508" lon="17.98236732752">
        <ele>97</ele>
        <time>2018-02-22T18:19:02Z</time>
      </trkpt>
      <trkpt lat="62.633655381462" lon="17.982291303687">
        <ele>96.8</ele>
        <time>2018-02-22T18:19:03Z</time>
      </trkpt>
      <trkpt lat="62.633664266276" lon="17.982225254315">
        <ele>96.8</ele>
        <time>2018-02-22T18:19:04Z</time>
      </trkpt>
      <trkpt lat="62.633673067271" lon="17.982163312074">
        <ele>96.8</ele>
        <time>2018-02-22T18:19:05Z</time>
      </trkpt>
      <trkpt lat="62.633685640121" lon="17.98209491577">
        <ele>96.8</ele>
        <time>2018-02-22T18:19:06Z</time>
      </trkpt>
      <trkpt lat="62.633687903234" lon="17.982035236642">
        <ele>96.8</ele>
        <time>2018-02-22T18:19:07Z</time>
      </trkpt>
      <trkpt lat="62.633691423632" lon="17.981982765948">
        <ele>96.8</ele>
        <time>2018-02-22T18:19:08Z</time>
      </trkpt>
      <trkpt lat="62.633697542419" lon="17.981920404612">
        <ele>96.8</ele>
        <time>2018-02-22T18:19:09Z</time>
      </trkpt>
      <trkpt lat="62.633700140808" lon="17.981861563674">
        <ele>96.8</ele>
        <time>2018-02-22T18:19:10Z</time>
      </trkpt>
      <trkpt lat="62.63370751688" lon="17.981812110464">
        <ele>97</ele>
        <time>2018-02-22T18:19:11Z</time>
      </trkpt>
      <trkpt lat="62.633714306219" lon="17.981746983101">
        <ele>97.2</ele>
        <time>2018-02-22T18:19:12Z</time>
      </trkpt>
      <trkpt lat="62.633714138581" lon="17.981698619538">
        <ele>97.2</ele>
        <time>2018-02-22T18:19:13Z</time>
      </trkpt>
      <trkpt lat="62.63371925154" lon="17.981634498003">
        <ele>97.4</ele>
        <time>2018-02-22T18:19:14Z</time>
      </trkpt>
      <trkpt lat="62.633719754454" lon="17.981569873554">
        <ele>97.4</ele>
        <time>2018-02-22T18:19:15Z</time>
      </trkpt>
      <trkpt lat="62.633723526309" lon="17.981522180543">
        <ele>97.4</ele>
        <time>2018-02-22T18:19:16Z</time>
      </trkpt>
      <trkpt lat="62.633735847702" lon="17.98145789137">
        <ele>97.4</ele>
        <time>2018-02-22T18:19:17Z</time>
      </trkpt>
      <trkpt lat="62.63374858819" lon="17.981388489238">
        <ele>97.2</ele>
        <time>2018-02-22T18:19:18Z</time>
      </trkpt>
      <trkpt lat="62.633762585963" lon="17.981335934725">
        <ele>97.2</ele>
        <time>2018-02-22T18:19:19Z</time>
      </trkpt>
      <trkpt lat="62.633779852677" lon="17.981267706059">
        <ele>97.2</ele>
        <time>2018-02-22T18:19:20Z</time>
      </trkpt>
      <trkpt lat="62.633796532658" lon="17.981212217881">
        <ele>97.2</ele>
        <time>2018-02-22T18:19:21Z</time>
      </trkpt>
      <trkpt lat="62.633808686413" lon="17.981167458535">
        <ele>97.2</ele>
        <time>2018-02-22T18:19:22Z</time>
      </trkpt>
      <trkpt lat="62.633821007806" lon="17.981127979786">
        <ele>97.2</ele>
        <time>2018-02-22T18:19:23Z</time>
      </trkpt>
      <trkpt lat="62.633840956728" lon="17.981083555716">
        <ele>97.2</ele>
        <time>2018-02-22T18:19:24Z</time>
      </trkpt>
      <trkpt lat="62.633864593686" lon="17.981038125818">
        <ele>97.2</ele>
        <time>2018-02-22T18:19:25Z</time>
      </trkpt>
      <trkpt lat="62.63388688954" lon="17.981002167467">
        <ele>97.4</ele>
        <time>2018-02-22T18:19:26Z</time>
      </trkpt>
      <trkpt lat="62.633908431023" lon="17.980961934347">
        <ele>97.4</ele>
        <time>2018-02-22T18:19:27Z</time>
      </trkpt>
      <trkpt lat="62.633930726877" lon="17.980911223852">
        <ele>97.4</ele>
        <time>2018-02-22T18:19:28Z</time>
      </trkpt>
      <trkpt lat="62.633948999419" lon="17.980866883601">
        <ele>97.8</ele>
        <time>2018-02-22T18:19:29Z</time>
      </trkpt>
      <trkpt lat="62.633969618893" lon="17.980817849486">
        <ele>98</ele>
        <time>2018-02-22T18:19:30Z</time>
      </trkpt>
      <trkpt lat="62.633992920575" lon="17.980760098195">
        <ele>98</ele>
        <time>2018-02-22T18:19:31Z</time>
      </trkpt>
      <trkpt lat="62.63401010347" lon="17.980712069908">
        <ele>98.2</ele>
        <time>2018-02-22T18:19:32Z</time>
      </trkpt>
      <trkpt lat="62.634030303849" lon="17.980645852898">
        <ele>98.2</ele>
        <time>2018-02-22T18:19:33Z</time>
      </trkpt>
      <trkpt lat="62.634045223631" lon="17.980594136575">
        <ele>98.2</ele>
        <time>2018-02-22T18:19:34Z</time>
      </trkpt>
      <trkpt lat="62.634057628843" lon="17.980540995329">
        <ele>98.4</ele>
        <time>2018-02-22T18:19:35Z</time>
      </trkpt>
      <trkpt lat="62.634076991032" lon="17.980474359224">
        <ele>98.4</ele>
        <time>2018-02-22T18:19:36Z</time>
      </trkpt>
      <trkpt lat="62.634092832823" lon="17.980425995661">
        <ele>98.4</ele>
        <time>2018-02-22T18:19:37Z</time>
      </trkpt>
      <trkpt lat="62.634113619935" lon="17.980369836931">
        <ele>98.4</ele>
        <time>2018-02-22T18:19:38Z</time>
      </trkpt>
      <trkpt lat="62.63412828826" lon="17.980311666545">
        <ele>98.4</ele>
        <time>2018-02-22T18:19:39Z</time>
      </trkpt>
      <trkpt lat="62.634147482811" lon="17.980260872231">
        <ele>98.4</ele>
        <time>2018-02-22T18:19:40Z</time>
      </trkpt>
      <trkpt lat="62.63417271233" lon="17.98022575207">
        <ele>98.4</ele>
        <time>2018-02-22T18:19:41Z</time>
      </trkpt>
      <trkpt lat="62.634192577433" lon="17.980178394335">
        <ele>98.6</ele>
        <time>2018-02-22T18:19:42Z</time>
      </trkpt>
      <trkpt lat="62.634216214391" lon="17.980132880618">
        <ele>98.6</ele>
        <time>2018-02-22T18:19:43Z</time>
      </trkpt>
      <trkpt lat="62.634239599892" lon="17.980084349417">
        <ele>98.6</ele>
        <time>2018-02-22T18:19:44Z</time>
      </trkpt>
      <trkpt lat="62.634259716452" lon="17.980032465456">
        <ele>98.8</ele>
        <time>2018-02-22T18:19:45Z</time>
      </trkpt>
      <trkpt lat="62.634280587383" lon="17.97998183878">
        <ele>98.6</ele>
        <time>2018-02-22T18:19:46Z</time>
      </trkpt>
      <trkpt lat="62.634299195201" lon="17.979931295923">
        <ele>98.6</ele>
        <time>2018-02-22T18:19:47Z</time>
      </trkpt>
      <trkpt lat="62.634313444431" lon="17.979876645935">
        <ele>98.6</ele>
        <time>2018-02-22T18:19:48Z</time>
      </trkpt>
      <trkpt lat="62.634328448032" lon="17.979825181069">
        <ele>98.6</ele>
        <time>2018-02-22T18:19:49Z</time>
      </trkpt>
      <trkpt lat="62.634345798565" lon="17.979755778937">
        <ele>98.6</ele>
        <time>2018-02-22T18:19:50Z</time>
      </trkpt>
      <trkpt lat="62.634359963976" lon="17.979700709854">
        <ele>98.6</ele>
        <time>2018-02-22T18:19:51Z</time>
      </trkpt>
      <trkpt lat="62.634376560138" lon="17.979631559179">
        <ele>98.6</ele>
        <time>2018-02-22T18:19:52Z</time>
      </trkpt>
      <trkpt lat="62.63438645078" lon="17.97958034577">
        <ele>98.6</ele>
        <time>2018-02-22T18:19:53Z</time>
      </trkpt>
      <trkpt lat="62.634399778001" lon="17.979519493176">
        <ele>98.6</ele>
        <time>2018-02-22T18:19:54Z</time>
      </trkpt>
      <trkpt lat="62.634408914272" lon="17.979461071333">
        <ele>98.6</ele>
        <time>2018-02-22T18:19:55Z</time>
      </trkpt>
      <trkpt lat="62.634411428842" lon="17.979401476024">
        <ele>98.6</ele>
        <time>2018-02-22T18:19:56Z</time>
      </trkpt>
      <trkpt lat="62.634425175158" lon="17.979341964534">
        <ele>98.6</ele>
        <time>2018-02-22T18:19:57Z</time>
      </trkpt>
      <trkpt lat="62.634439843483" lon="17.979285721985">
        <ele>98.4</ele>
        <time>2018-02-22T18:19:58Z</time>
      </trkpt>
      <trkpt lat="62.63444847684" lon="17.97924339339">
        <ele>98.4</ele>
        <time>2018-02-22T18:19:59Z</time>
      </trkpt>
      <trkpt lat="62.6344602115" lon="17.979181032054">
        <ele>98.4</ele>
        <time>2018-02-22T18:20:00Z</time>
      </trkpt>
      <trkpt lat="62.634470185961" lon="17.979135602156">
        <ele>98.4</ele>
        <time>2018-02-22T18:20:01Z</time>
      </trkpt>
      <trkpt lat="62.63448284263" lon="17.979056057925">
        <ele>98.4</ele>
        <time>2018-02-22T18:20:02Z</time>
      </trkpt>
      <trkpt lat="62.634490553978" lon="17.978991601114">
        <ele>98.4</ele>
        <time>2018-02-22T18:20:03Z</time>
      </trkpt>
      <trkpt lat="62.634493655281" lon="17.978943656646">
        <ele>98.6</ele>
        <time>2018-02-22T18:20:04Z</time>
      </trkpt>
      <trkpt lat="62.634501031353" lon="17.978892946151">
        <ele>98.6</ele>
        <time>2018-02-22T18:20:05Z</time>
      </trkpt>
      <trkpt lat="62.634511592547" lon="17.978808456599">
        <ele>98.6</ele>
        <time>2018-02-22T18:20:06Z</time>
      </trkpt>
      <trkpt lat="62.634521567008" lon="17.978751292041">
        <ele>98.6</ele>
        <time>2018-02-22T18:20:07Z</time>
      </trkpt>
      <trkpt lat="62.634533217849" lon="17.978681135538">
        <ele>98.4</ele>
        <time>2018-02-22T18:20:08Z</time>
      </trkpt>
      <trkpt lat="62.6345440305" lon="17.978627491378">
        <ele>98.4</ele>
        <time>2018-02-22T18:20:09Z</time>
      </trkpt>
      <trkpt lat="62.634557190083" lon="17.978551551364">
        <ele>98.4</ele>
        <time>2018-02-22T18:20:10Z</time>
      </trkpt>
      <trkpt lat="62.634564901431" lon="17.978478628834">
        <ele>98.4</ele>
        <time>2018-02-22T18:20:11Z</time>
      </trkpt>
      <trkpt lat="62.634570936399" lon="17.978413166195">
        <ele>98.4</ele>
        <time>2018-02-22T18:20:12Z</time>
      </trkpt>
      <trkpt lat="62.634585520905" lon="17.978327838453">
        <ele>98.4</ele>
        <time>2018-02-22T18:20:13Z</time>
      </trkpt>
      <trkpt lat="62.634593651348" lon="17.97825181462">
        <ele>98.4</ele>
        <time>2018-02-22T18:20:14Z</time>
      </trkpt>
      <trkpt lat="62.634602452343" lon="17.978169588181">
        <ele>98.2</ele>
        <time>2018-02-22T18:20:15Z</time>
      </trkpt>
      <trkpt lat="62.634614187003" lon="17.978085098629">
        <ele>98</ele>
        <time>2018-02-22T18:20:16Z</time>
      </trkpt>
      <trkpt lat="62.634623910007" lon="17.978002285457">
        <ele>97.8</ele>
        <time>2018-02-22T18:20:17Z</time>
      </trkpt>
      <trkpt lat="62.634634722658" lon="17.977923998511">
        <ele>97.4</ele>
        <time>2018-02-22T18:20:18Z</time>
      </trkpt>
      <trkpt lat="62.634643942748" lon="17.97785451256">
        <ele>97.4</ele>
        <time>2018-02-22T18:20:19Z</time>
      </trkpt>
      <trkpt lat="62.634656515598" lon="17.977778656365">
        <ele>97.2</ele>
        <time>2018-02-22T18:20:20Z</time>
      </trkpt>
      <trkpt lat="62.634667998801" lon="17.977706069111">
        <ele>97.2</ele>
        <time>2018-02-22T18:20:21Z</time>
      </trkpt>
      <trkpt lat="62.634678811452" lon="17.977628368898">
        <ele>97</ele>
        <time>2018-02-22T18:20:22Z</time>
      </trkpt>
      <trkpt lat="62.634684259687" lon="17.977566091381">
        <ele>97</ele>
        <time>2018-02-22T18:20:23Z</time>
      </trkpt>
      <trkpt lat="62.634696748718" lon="17.977495934878">
        <ele>96.8</ele>
        <time>2018-02-22T18:20:24Z</time>
      </trkpt>
      <trkpt lat="62.634706304084" lon="17.977416558285">
        <ele>96.8</ele>
        <time>2018-02-22T18:20:25Z</time>
      </trkpt>
      <trkpt lat="62.634718457839" lon="17.977359393727">
        <ele>96.8</ele>
        <time>2018-02-22T18:20:26Z</time>
      </trkpt>
      <trkpt lat="62.634730192499" lon="17.977303486454">
        <ele>96.8</ele>
        <time>2018-02-22T18:20:27Z</time>
      </trkpt>
      <trkpt lat="62.634744441729" lon="17.977251686312">
        <ele>96.8</ele>
        <time>2018-02-22T18:20:28Z</time>
      </trkpt>
      <trkpt lat="62.634755589656" lon="17.97720323893">
        <ele>96.6</ele>
        <time>2018-02-22T18:20:29Z</time>
      </trkpt>
      <trkpt lat="62.634770593257" lon="17.97713534554">
        <ele>96.6</ele>
        <time>2018-02-22T18:20:30Z</time>
      </trkpt>
      <trkpt lat="62.634783836659" lon="17.97706493758">
        <ele>96.6</ele>
        <time>2018-02-22T18:20:31Z</time>
      </trkpt>
      <trkpt lat="62.634791380369" lon="17.977001905692">
        <ele>96.6</ele>
        <time>2018-02-22T18:20:32Z</time>
      </trkpt>
      <trkpt lat="62.634804456133" lon="17.976923954022">
        <ele>96.6</ele>
        <time>2018-02-22T18:20:33Z</time>
      </trkpt>
      <trkpt lat="62.63481392768" lon="17.976857317917">
        <ele>96.6</ele>
        <time>2018-02-22T18:20:34Z</time>
      </trkpt>
      <trkpt lat="62.634824572693" lon="17.976793950753">
        <ele>96.6</ele>
        <time>2018-02-22T18:20:35Z</time>
      </trkpt>
      <trkpt lat="62.634836642629" lon="17.976721195861">
        <ele>96.4</ele>
        <time>2018-02-22T18:20:36Z</time>
      </trkpt>
      <trkpt lat="62.634839576294" lon="17.976653218652">
        <ele>96.2</ele>
        <time>2018-02-22T18:20:37Z</time>
      </trkpt>
      <trkpt lat="62.634850891859" lon="17.97658381652">
        <ele>96.2</ele>
        <time>2018-02-22T18:20:38Z</time>
      </trkpt>
      <trkpt lat="62.634863129433" lon="17.976512905646">
        <ele>96.2</ele>
        <time>2018-02-22T18:20:39Z</time>
      </trkpt>
      <trkpt lat="62.634877127206" lon="17.976438725831">
        <ele>96.2</ele>
        <time>2018-02-22T18:20:40Z</time>
      </trkpt>
      <trkpt lat="62.634893304273" lon="17.976374939572">
        <ele>96.2</ele>
        <time>2018-02-22T18:20:41Z</time>
      </trkpt>
      <trkpt lat="62.634906882951" lon="17.97630805201">
        <ele>96.2</ele>
        <time>2018-02-22T18:20:42Z</time>
      </trkpt>
      <trkpt lat="62.634917947059" lon="17.976244936303">
        <ele>96</ele>
        <time>2018-02-22T18:20:43Z</time>
      </trkpt>
      <trkpt lat="62.634939907637" lon="17.976171678497">
        <ele>96</ele>
        <time>2018-02-22T18:20:44Z</time>
      </trkpt>
      <trkpt lat="62.634959186007" lon="17.976094565017">
        <ele>95.8</ele>
        <time>2018-02-22T18:20:45Z</time>
      </trkpt>
      <trkpt lat="62.634977793825" lon="17.97601468551">
        <ele>95.8</ele>
        <time>2018-02-22T18:20:46Z</time>
      </trkpt>
      <trkpt lat="62.634990869589" lon="17.97594427755">
        <ele>95.6</ele>
        <time>2018-02-22T18:20:47Z</time>
      </trkpt>
      <trkpt lat="62.635010567054" lon="17.975851657555">
        <ele>95.6</ele>
        <time>2018-02-22T18:20:48Z</time>
      </trkpt>
      <trkpt lat="62.635028001406" lon="17.975769179659">
        <ele>95.4</ele>
        <time>2018-02-22T18:20:49Z</time>
      </trkpt>
      <trkpt lat="62.635044513749" lon="17.975678236044">
        <ele>95.2</ele>
        <time>2018-02-22T18:20:50Z</time>
      </trkpt>
      <trkpt lat="62.635054823486" lon="17.975592740664">
        <ele>95.2</ele>
        <time>2018-02-22T18:20:51Z</time>
      </trkpt>
      <trkpt lat="62.635063373024" lon="17.97552266798">
        <ele>95.2</ele>
        <time>2018-02-22T18:20:52Z</time>
      </trkpt>
      <trkpt lat="62.635072676933" lon="17.975460725739">
        <ele>95</ele>
        <time>2018-02-22T18:20:53Z</time>
      </trkpt>
      <trkpt lat="62.635078963358" lon="17.975380259499">
        <ele>94.8</ele>
        <time>2018-02-22T18:20:54Z</time>
      </trkpt>
      <trkpt lat="62.635090195104" lon="17.975308258978">
        <ele>94.6</ele>
        <time>2018-02-22T18:20:55Z</time>
      </trkpt>
      <trkpt lat="62.635098660823" lon="17.975216644811">
        <ele>94.4</ele>
        <time>2018-02-22T18:20:56Z</time>
      </trkpt>
      <trkpt lat="62.635100085746" lon="17.975136849123">
        <ele>94.2</ele>
        <time>2018-02-22T18:20:57Z</time>
      </trkpt>
      <trkpt lat="62.63508801581" lon="17.975046156965">
        <ele>94</ele>
        <time>2018-02-22T18:20:58Z</time>
      </trkpt>
      <trkpt lat="62.635076700245" lon="17.974972312426">
        <ele>94.2</ele>
        <time>2018-02-22T18:20:59Z</time>
      </trkpt>
      <trkpt lat="62.635054236753" lon="17.974882207001">
        <ele>93.6</ele>
        <time>2018-02-22T18:21:00Z</time>
      </trkpt>
      <trkpt lat="62.635031437985" lon="17.97480182458">
        <ele>93</ele>
        <time>2018-02-22T18:21:01Z</time>
      </trkpt>
      <trkpt lat="62.635009393588" lon="17.974720268693">
        <ele>92.6</ele>
        <time>2018-02-22T18:21:02Z</time>
      </trkpt>
      <trkpt lat="62.63499330034" lon="17.974630330906">
        <ele>92</ele>
        <time>2018-02-22T18:21:03Z</time>
      </trkpt>
      <trkpt lat="62.634981062766" lon="17.974547182458">
        <ele>91.6</ele>
        <time>2018-02-22T18:21:04Z</time>
      </trkpt>
      <trkpt lat="62.634961365301" lon="17.974460262155">
        <ele>91.4</ele>
        <time>2018-02-22T18:21:05Z</time>
      </trkpt>
      <trkpt lat="62.634940075275" lon="17.974375940241">
        <ele>91.4</ele>
        <time>2018-02-22T18:21:06Z</time>
      </trkpt>
      <trkpt lat="62.634921970371" lon="17.974300503141">
        <ele>91.4</ele>
        <time>2018-02-22T18:21:07Z</time>
      </trkpt>
      <trkpt lat="62.634905877123" lon="17.974220623634">
        <ele>91.4</ele>
        <time>2018-02-22T18:21:08Z</time>
      </trkpt>
      <trkpt lat="62.634892130807" lon="17.974148120199">
        <ele>91.4</ele>
        <time>2018-02-22T18:21:09Z</time>
      </trkpt>
      <trkpt lat="62.634879893233" lon="17.974080813542">
        <ele>91.2</ele>
        <time>2018-02-22T18:21:10Z</time>
      </trkpt>
      <trkpt lat="62.634866817469" lon="17.973999928207">
        <ele>91.4</ele>
        <time>2018-02-22T18:21:11Z</time>
      </trkpt>
      <trkpt lat="62.634848461108" lon="17.973927173315">
        <ele>91.2</ele>
        <time>2018-02-22T18:21:12Z</time>
      </trkpt>
      <trkpt lat="62.634827003444" lon="17.973860201934">
        <ele>91</ele>
        <time>2018-02-22T18:21:13Z</time>
      </trkpt>
      <trkpt lat="62.634811496929" lon="17.97379599658">
        <ele>91.2</ele>
        <time>2018-02-22T18:21:14Z</time>
      </trkpt>
      <trkpt lat="62.63479381112" lon="17.973721649127">
        <ele>91</ele>
        <time>2018-02-22T18:21:15Z</time>
      </trkpt>
      <trkpt lat="62.634779478071" lon="17.973648056045">
        <ele>91.2</ele>
        <time>2018-02-22T18:21:16Z</time>
      </trkpt>
      <trkpt lat="62.634763133366" lon="17.973576893714">
        <ele>91</ele>
        <time>2018-02-22T18:21:17Z</time>
      </trkpt>
      <trkpt lat="62.634748381222" lon="17.973505563745">
        <ele>91.2</ele>
        <time>2018-02-22T18:21:18Z</time>
      </trkpt>
      <trkpt lat="62.63474016696" lon="17.973430964835">
        <ele>91</ele>
        <time>2018-02-22T18:21:19Z</time>
      </trkpt>
      <trkpt lat="62.634726923558" lon="17.973343457799">
        <ele>90.8</ele>
        <time>2018-02-22T18:21:20Z</time>
      </trkpt>
      <trkpt lat="62.634724660445" lon="17.973267350147">
        <ele>90.8</ele>
        <time>2018-02-22T18:21:21Z</time>
      </trkpt>
      <trkpt lat="62.634726839739" lon="17.973188895563">
        <ele>90.6</ele>
        <time>2018-02-22T18:21:22Z</time>
      </trkpt>
      <trkpt lat="62.634726504463" lon="17.973120331621">
        <ele>90.6</ele>
        <time>2018-02-22T18:21:23Z</time>
      </trkpt>
      <trkpt lat="62.634739747865" lon="17.973035255336">
        <ele>90.6</ele>
        <time>2018-02-22T18:21:24Z</time>
      </trkpt>
      <trkpt lat="62.634745866652" lon="17.972958980046">
        <ele>90.6</ele>
        <time>2018-02-22T18:21:25Z</time>
      </trkpt>
      <trkpt lat="62.634756679303" lon="17.972886811887">
        <ele>90.4</ele>
        <time>2018-02-22T18:21:26Z</time>
      </trkpt>
      <trkpt lat="62.634773275465" lon="17.972802238516">
        <ele>90.4</ele>
        <time>2018-02-22T18:21:27Z</time>
      </trkpt>
      <trkpt lat="62.634796828604" lon="17.972735853868">
        <ele>90.4</ele>
        <time>2018-02-22T18:21:28Z</time>
      </trkpt>
      <trkpt lat="62.634817615716" lon="17.972665865003">
        <ele>90.2</ele>
        <time>2018-02-22T18:21:29Z</time>
      </trkpt>
      <trkpt lat="62.634841839407" lon="17.972582632736">
        <ele>90.2</ele>
        <time>2018-02-22T18:21:30Z</time>
      </trkpt>
      <trkpt lat="62.634857848836" lon="17.972519684667">
        <ele>90</ele>
        <time>2018-02-22T18:21:31Z</time>
      </trkpt>
      <trkpt lat="62.634878216853" lon="17.972443828472">
        <ele>90</ele>
        <time>2018-02-22T18:21:32Z</time>
      </trkpt>
      <trkpt lat="62.634903027277" lon="17.972378449652">
        <ele>89.8</ele>
        <time>2018-02-22T18:21:33Z</time>
      </trkpt>
      <trkpt lat="62.634923060018" lon="17.972324470216">
        <ele>89.6</ele>
        <time>2018-02-22T18:21:34Z</time>
      </trkpt>
      <trkpt lat="62.634948373356" lon="17.972247692012">
        <ele>89.4</ele>
        <time>2018-02-22T18:21:35Z</time>
      </trkpt>
      <trkpt lat="62.634969160468" lon="17.972174266568">
        <ele>89.2</ele>
        <time>2018-02-22T18:21:36Z</time>
      </trkpt>
      <trkpt lat="62.634995563453" lon="17.972097320726">
        <ele>89</ele>
        <time>2018-02-22T18:21:37Z</time>
      </trkpt>
      <trkpt lat="62.635016015289" lon="17.972028505327">
        <ele>89</ele>
        <time>2018-02-22T18:21:38Z</time>
      </trkpt>
      <trkpt lat="62.635034623107" lon="17.971959103195">
        <ele>89</ele>
        <time>2018-02-22T18:21:39Z</time>
      </trkpt>
      <trkpt lat="62.635056248409" lon="17.971857598386">
        <ele>88.6</ele>
        <time>2018-02-22T18:21:40Z</time>
      </trkpt>
      <trkpt lat="62.63507628115" lon="17.97174578384">
        <ele>88.6</ele>
        <time>2018-02-22T18:21:41Z</time>
      </trkpt>
      <trkpt lat="62.635093128769" lon="17.971622653729">
        <ele>87.6</ele>
        <time>2018-02-22T18:21:42Z</time>
      </trkpt>
      <trkpt lat="62.635110982216" lon="17.971508659889">
        <ele>86.8</ele>
        <time>2018-02-22T18:21:43Z</time>
      </trkpt>
      <trkpt lat="62.635125482903" lon="17.971403718501">
        <ele>86</ele>
        <time>2018-02-22T18:21:44Z</time>
      </trkpt>
      <trkpt lat="62.635138726305" lon="17.971291568679">
        <ele>85.2</ele>
        <time>2018-02-22T18:21:45Z</time>
      </trkpt>
      <trkpt lat="62.635153897544" lon="17.971182101065">
        <ele>84.4</ele>
        <time>2018-02-22T18:21:46Z</time>
      </trkpt>
      <trkpt lat="62.635167308584" lon="17.971072633451">
        <ele>84.2</ele>
        <time>2018-02-22T18:21:47Z</time>
      </trkpt>
      <trkpt lat="62.635182144547" lon="17.970955538308">
        <ele>83.8</ele>
        <time>2018-02-22T18:21:48Z</time>
      </trkpt>
      <trkpt lat="62.635193879207" lon="17.970858643544">
        <ele>83.6</ele>
        <time>2018-02-22T18:21:49Z</time>
      </trkpt>
      <trkpt lat="62.635208966627" lon="17.970734172329">
        <ele>83.2</ele>
        <time>2018-02-22T18:21:50Z</time>
      </trkpt>
      <trkpt lat="62.635222461486" lon="17.970626381095">
        <ele>83</ele>
        <time>2018-02-22T18:21:51Z</time>
      </trkpt>
      <trkpt lat="62.635236710716" lon="17.970522445535">
        <ele>82.8</ele>
        <time>2018-02-22T18:21:52Z</time>
      </trkpt>
      <trkpt lat="62.635247523367" lon="17.970419180527">
        <ele>82.6</ele>
        <time>2018-02-22T18:21:53Z</time>
      </trkpt>
      <trkpt lat="62.635261102045" lon="17.970314742053">
        <ele>82.2</ele>
        <time>2018-02-22T18:21:54Z</time>
      </trkpt>
      <trkpt lat="62.635278620216" lon="17.970203849516">
        <ele>82</ele>
        <time>2018-02-22T18:21:55Z</time>
      </trkpt>
      <trkpt lat="62.635297647129" lon="17.970100835965">
        <ele>81.6</ele>
        <time>2018-02-22T18:21:56Z</time>
      </trkpt>
      <trkpt lat="62.635318601879" lon="17.969993044731">
        <ele>81.2</ele>
        <time>2018-02-22T18:21:57Z</time>
      </trkpt>
      <trkpt lat="62.635342993208" lon="17.969883409479">
        <ele>80.8</ele>
        <time>2018-02-22T18:21:58Z</time>
      </trkpt>
      <trkpt lat="62.635365289062" lon="17.969789029285">
        <ele>80.2</ele>
        <time>2018-02-22T18:21:59Z</time>
      </trkpt>
      <trkpt lat="62.635395715359" lon="17.969677298558">
        <ele>79.8</ele>
        <time>2018-02-22T18:22:00Z</time>
      </trkpt>
      <trkpt lat="62.635424046181" lon="17.969571016066">
        <ele>79.2</ele>
        <time>2018-02-22T18:22:01Z</time>
      </trkpt>
      <trkpt lat="62.635451957908" lon="17.969468086334">
        <ele>79</ele>
        <time>2018-02-22T18:22:02Z</time>
      </trkpt>
      <trkpt lat="62.635479534359" lon="17.969366497706">
        <ele>78.6</ele>
        <time>2018-02-22T18:22:03Z</time>
      </trkpt>
      <trkpt lat="62.635504680059" lon="17.96927396153">
        <ele>78.6</ele>
        <time>2018-02-22T18:22:04Z</time>
      </trkpt>
      <trkpt lat="62.635538626754" lon="17.969150496143">
        <ele>78.4</ele>
        <time>2018-02-22T18:22:05Z</time>
      </trkpt>
      <trkpt lat="62.635571483802" lon="17.969037089036">
        <ele>78</ele>
        <time>2018-02-22T18:22:06Z</time>
      </trkpt>
      <trkpt lat="62.635605346678" lon="17.968933991666">
        <ele>77.4</ele>
        <time>2018-02-22T18:22:07Z</time>
      </trkpt>
      <trkpt lat="62.635640047744" lon="17.96883307359">
        <ele>76.8</ele>
        <time>2018-02-22T18:22:08Z</time>
      </trkpt>
      <trkpt lat="62.635675335543" lon="17.968743219622">
        <ele>76.4</ele>
        <time>2018-02-22T18:22:09Z</time>
      </trkpt>
      <trkpt lat="62.635719508156" lon="17.968650683446">
        <ele>75.8</ele>
        <time>2018-02-22T18:22:10Z</time>
      </trkpt>
      <trkpt lat="62.635760747104" lon="17.968575330165">
        <ele>75.4</ele>
        <time>2018-02-22T18:22:11Z</time>
      </trkpt>
      <trkpt lat="62.635855043479" lon="17.968476926659">
        <ele>74.6</ele>
        <time>2018-02-22T18:22:13Z</time>
      </trkpt>
      <trkpt lat="62.635904077594" lon="17.968449853122">
        <ele>74.4</ele>
        <time>2018-02-22T18:22:14Z</time>
      </trkpt>
      <trkpt lat="62.635960655419" lon="17.968427305811">
        <ele>74.2</ele>
        <time>2018-02-22T18:22:15Z</time>
      </trkpt>
      <trkpt lat="62.636001307634" lon="17.968408530355">
        <ele>73.8</ele>
        <time>2018-02-22T18:22:16Z</time>
      </trkpt>
      <trkpt lat="62.636042043668" lon="17.968399896998">
        <ele>73.6</ele>
        <time>2018-02-22T18:22:17Z</time>
      </trkpt>
      <trkpt lat="62.636087054471" lon="17.968413559495">
        <ele>73.4</ele>
        <time>2018-02-22T18:22:18Z</time>
      </trkpt>
      <trkpt lat="62.636117061673" lon="17.968407189251">
        <ele>73.2</ele>
        <time>2018-02-22T18:22:19Z</time>
      </trkpt>
      <trkpt lat="62.636153606757" lon="17.968415403513">
        <ele>73</ele>
        <time>2018-02-22T18:22:20Z</time>
      </trkpt>
      <trkpt lat="62.636183362502" lon="17.968425880888">
        <ele>73</ele>
        <time>2018-02-22T18:22:21Z</time>
      </trkpt>
      <trkpt lat="62.636206580365" lon="17.968432921684">
        <ele>73.2</ele>
        <time>2018-02-22T18:22:22Z</time>
      </trkpt>
      <trkpt lat="62.636241029974" lon="17.968452032416">
        <ele>73.2</ele>
        <time>2018-02-22T18:22:23Z</time>
      </trkpt>
      <trkpt lat="62.636273048832" lon="17.96847349008">
        <ele>73.2</ele>
        <time>2018-02-22T18:22:24Z</time>
      </trkpt>
      <trkpt lat="62.636302804577" lon="17.968489164233">
        <ele>73.4</ele>
        <time>2018-02-22T18:22:25Z</time>
      </trkpt>
      <trkpt lat="62.636328034096" lon="17.968522691833">
        <ele>73.2</ele>
        <time>2018-02-22T18:22:26Z</time>
      </trkpt>
      <trkpt lat="62.636354101805" lon="17.968561751487">
        <ele>73.2</ele>
        <time>2018-02-22T18:22:27Z</time>
      </trkpt>
      <trkpt lat="62.63637547565" lon="17.968614389819">
        <ele>73.2</ele>
        <time>2018-02-22T18:22:28Z</time>
      </trkpt>
      <trkpt lat="62.636393496735" lon="17.968652443645">
        <ele>73.2</ele>
        <time>2018-02-22T18:22:29Z</time>
      </trkpt>
      <trkpt lat="62.636418055702" lon="17.968706674538">
        <ele>73</ele>
        <time>2018-02-22T18:22:30Z</time>
      </trkpt>
      <trkpt lat="62.636438591357" lon="17.968751266246">
        <ele>73</ele>
        <time>2018-02-22T18:22:31Z</time>
      </trkpt>
      <trkpt lat="62.636453678777" lon="17.968790158262">
        <ele>73</ele>
        <time>2018-02-22T18:22:32Z</time>
      </trkpt>
      <trkpt lat="62.636474298251" lon="17.968844389155">
        <ele>73</ele>
        <time>2018-02-22T18:22:33Z</time>
      </trkpt>
      <trkpt lat="62.636492570793" lon="17.968891327795">
        <ele>73</ele>
        <time>2018-02-22T18:22:34Z</time>
      </trkpt>
      <trkpt lat="62.63651210062" lon="17.968943882308">
        <ele>73</ele>
        <time>2018-02-22T18:22:35Z</time>
      </trkpt>
      <trkpt lat="62.636533474465" lon="17.969004399626">
        <ele>73</ele>
        <time>2018-02-22T18:22:36Z</time>
      </trkpt>
      <trkpt lat="62.636552669016" lon="17.969046560583">
        <ele>73.2</ele>
        <time>2018-02-22T18:22:37Z</time>
      </trkpt>
      <trkpt lat="62.636571779748" lon="17.969109089557">
        <ele>73.2</ele>
        <time>2018-02-22T18:22:38Z</time>
      </trkpt>
      <trkpt lat="62.636585190788" lon="17.969162230803">
        <ele>73.2</ele>
        <time>2018-02-22T18:22:39Z</time>
      </trkpt>
      <trkpt lat="62.636597596" lon="17.969209253262">
        <ele>73.2</ele>
        <time>2018-02-22T18:22:40Z</time>
      </trkpt>
      <trkpt lat="62.636613018696" lon="17.969265663449">
        <ele>73.4</ele>
        <time>2018-02-22T18:22:41Z</time>
      </trkpt>
      <trkpt lat="62.636625340089" lon="17.969324755844">
        <ele>73.4</ele>
        <time>2018-02-22T18:22:42Z</time>
      </trkpt>
      <trkpt lat="62.636635817464" lon="17.969365575697">
        <ele>73.4</ele>
        <time>2018-02-22T18:22:43Z</time>
      </trkpt>
      <trkpt lat="62.636647133029" lon="17.96942483573">
        <ele>73.4</ele>
        <time>2018-02-22T18:22:44Z</time>
      </trkpt>
      <trkpt lat="62.63665878387" lon="17.969487113247">
        <ele>73.4</ele>
        <time>2018-02-22T18:22:45Z</time>
      </trkpt>
      <trkpt lat="62.636668506874" lon="17.969526591996">
        <ele>73.4</ele>
        <time>2018-02-22T18:22:46Z</time>
      </trkpt>
      <trkpt lat="62.636681163543" lon="17.969582918364">
        <ele>73.4</ele>
        <time>2018-02-22T18:22:47Z</time>
      </trkpt>
      <trkpt lat="62.636695915687" lon="17.969636227248">
        <ele>73.4</ele>
        <time>2018-02-22T18:22:48Z</time>
      </trkpt>
      <trkpt lat="62.636705135777" lon="17.969677466196">
        <ele>73.4</ele>
        <time>2018-02-22T18:22:49Z</time>
      </trkpt>
      <trkpt lat="62.63671578079" lon="17.969740581903">
        <ele>73.6</ele>
        <time>2018-02-22T18:22:50Z</time>
      </trkpt>
      <trkpt lat="62.636730784391" lon="17.969787772">
        <ele>73.6</ele>
        <time>2018-02-22T18:22:51Z</time>
      </trkpt>
      <trkpt lat="62.636746542363" lon="17.969831776975">
        <ele>73.6</ele>
        <time>2018-02-22T18:22:52Z</time>
      </trkpt>
      <trkpt lat="62.636764814905" lon="17.969878715615">
        <ele>73.6</ele>
        <time>2018-02-22T18:22:53Z</time>
      </trkpt>
      <trkpt lat="62.63678115961" lon="17.96991014774">
        <ele>73.8</ele>
        <time>2018-02-22T18:22:54Z</time>
      </trkpt>
      <trkpt lat="62.636802784912" lon="17.969953817439">
        <ele>73.8</ele>
        <time>2018-02-22T18:22:55Z</time>
      </trkpt>
      <trkpt lat="62.636825164585" lon="17.969989859609">
        <ele>73.8</ele>
        <time>2018-02-22T18:22:56Z</time>
      </trkpt>
      <trkpt lat="62.636843437127" lon="17.970016094956">
        <ele>73.8</ele>
        <time>2018-02-22T18:22:57Z</time>
      </trkpt>
      <trkpt lat="62.63686749318" lon="17.970049119642">
        <ele>73.8</ele>
        <time>2018-02-22T18:22:58Z</time>
      </trkpt>
      <trkpt lat="62.636886687731" lon="17.970059932293">
        <ele>74</ele>
        <time>2018-02-22T18:22:59Z</time>
      </trkpt>
      <trkpt lat="62.636917616942" lon="17.970088011658">
        <ele>74.2</ele>
        <time>2018-02-22T18:23:00Z</time>
      </trkpt>
      <trkpt lat="62.63694795942" lon="17.970108631132">
        <ele>74</ele>
        <time>2018-02-22T18:23:01Z</time>
      </trkpt>
      <trkpt lat="62.636968997989" lon="17.970107457666">
        <ele>74</ele>
        <time>2018-02-22T18:23:02Z</time>
      </trkpt>
      <trkpt lat="62.63700747091" lon="17.970109972236">
        <ele>74</ele>
        <time>2018-02-22T18:23:03Z</time>
      </trkpt>
      <trkpt lat="62.63703429299" lon="17.970104104906">
        <ele>73.8</ele>
        <time>2018-02-22T18:23:04Z</time>
      </trkpt>
      <trkpt lat="62.637064886925" lon="17.970104021087">
        <ele>73.8</ele>
        <time>2018-02-22T18:23:05Z</time>
      </trkpt>
      <trkpt lat="62.637119620732" lon="17.970092286427">
        <ele>73.8</ele>
        <time>2018-02-22T18:23:06Z</time>
      </trkpt>
      <trkpt lat="62.637159937671" lon="17.970071499315">
        <ele>73.6</ele>
        <time>2018-02-22T18:23:07Z</time>
      </trkpt>
      <trkpt lat="62.63720193099" lon="17.970051047479">
        <ele>73.2</ele>
        <time>2018-02-22T18:23:08Z</time>
      </trkpt>
      <trkpt lat="62.637239900997" lon="17.970036630611">
        <ele>73</ele>
        <time>2018-02-22T18:23:09Z</time>
      </trkpt>
      <trkpt lat="62.637285247076" lon="17.970017268422">
        <ele>72.8</ele>
        <time>2018-02-22T18:23:10Z</time>
      </trkpt>
      <trkpt lat="62.63732011578" lon="17.970003605925">
        <ele>72.4</ele>
        <time>2018-02-22T18:23:11Z</time>
      </trkpt>
      <trkpt lat="62.637362695832" lon="17.969992374179">
        <ele>72</ele>
        <time>2018-02-22T18:23:12Z</time>
      </trkpt>
      <trkpt lat="62.637400330563" lon="17.969984327555">
        <ele>71.6</ele>
        <time>2018-02-22T18:23:13Z</time>
      </trkpt>
      <trkpt lat="62.63743410962" lon="17.96997804113">
        <ele>71.4</ele>
        <time>2018-02-22T18:23:14Z</time>
      </trkpt>
      <trkpt lat="62.637472498722" lon="17.969986087754">
        <ele>71</ele>
        <time>2018-02-22T18:23:15Z</time>
      </trkpt>
      <trkpt lat="62.637505439589" lon="17.970003522106">
        <ele>70.6</ele>
        <time>2018-02-22T18:23:16Z</time>
      </trkpt>
      <trkpt lat="62.637532094031" lon="17.970014670033">
        <ele>70.4</ele>
        <time>2018-02-22T18:23:17Z</time>
      </trkpt>
      <trkpt lat="62.637564615803" lon="17.970040570104">
        <ele>70.6</ele>
        <time>2018-02-22T18:23:18Z</time>
      </trkpt>
      <trkpt lat="62.63759168934" lon="17.970078959206">
        <ele>70.6</ele>
        <time>2018-02-22T18:23:19Z</time>
      </trkpt>
      <trkpt lat="62.637623205284" lon="17.970134112108">
        <ele>70.8</ele>
        <time>2018-02-22T18:23:20Z</time>
      </trkpt>
      <trkpt lat="62.637648602441" lon="17.97017920673">
        <ele>71</ele>
        <time>2018-02-22T18:23:21Z</time>
      </trkpt>
      <trkpt lat="62.637671401209" lon="17.97024123279">
        <ele>71.2</ele>
        <time>2018-02-22T18:23:22Z</time>
      </trkpt>
      <trkpt lat="62.637693361787" lon="17.970295296045">
        <ele>71.4</ele>
        <time>2018-02-22T18:23:23Z</time>
      </trkpt>
      <trkpt lat="62.637714148899" lon="17.970351370956">
        <ele>71.6</ele>
        <time>2018-02-22T18:23:24Z</time>
      </trkpt>
      <trkpt lat="62.637731080337" lon="17.970412977921">
        <ele>71.4</ele>
        <time>2018-02-22T18:23:25Z</time>
      </trkpt>
      <trkpt lat="62.637742814997" lon="17.970471651221">
        <ele>71.2</ele>
        <time>2018-02-22T18:23:26Z</time>
      </trkpt>
      <trkpt lat="62.637753962924" lon="17.970520852974">
        <ele>71.2</ele>
        <time>2018-02-22T18:23:27Z</time>
      </trkpt>
      <trkpt lat="62.637768128335" lon="17.970569719451">
        <ele>71.2</ele>
        <time>2018-02-22T18:23:28Z</time>
      </trkpt>
      <trkpt lat="62.637777935158" lon="17.970616322815">
        <ele>71</ele>
        <time>2018-02-22T18:23:29Z</time>
      </trkpt>
      <trkpt lat="62.637788999266" lon="17.970677343047">
        <ele>71.2</ele>
        <time>2018-02-22T18:23:30Z</time>
      </trkpt>
      <trkpt lat="62.637796710614" lon="17.970734004691">
        <ele>71.4</ele>
        <time>2018-02-22T18:23:31Z</time>
      </trkpt>
      <trkpt lat="62.637806182161" lon="17.970792091258">
        <ele>71.4</ele>
        <time>2018-02-22T18:23:32Z</time>
      </trkpt>
      <trkpt lat="62.637811965672" lon="17.970846070694">
        <ele>71.6</ele>
        <time>2018-02-22T18:23:33Z</time>
      </trkpt>
      <trkpt lat="62.63781548607" lon="17.970891416773">
        <ele>71.6</ele>
        <time>2018-02-22T18:23:34Z</time>
      </trkpt>
      <trkpt lat="62.637825460531" lon="17.970939696517">
        <ele>71.6</ele>
        <time>2018-02-22T18:23:35Z</time>
      </trkpt>
      <trkpt lat="62.637834429164" lon="17.970988562994">
        <ele>71.8</ele>
        <time>2018-02-22T18:23:36Z</time>
      </trkpt>
      <trkpt lat="62.637846582919" lon="17.971059725325">
        <ele>71.8</ele>
        <time>2018-02-22T18:23:37Z</time>
      </trkpt>
      <trkpt lat="62.637855970647" lon="17.971116135512">
        <ele>71.8</ele>
        <time>2018-02-22T18:23:38Z</time>
      </trkpt>
      <trkpt lat="62.637865945108" lon="17.971170534043">
        <ele>71.8</ele>
        <time>2018-02-22T18:23:39Z</time>
      </trkpt>
      <trkpt lat="62.637878098863" lon="17.971238427433">
        <ele>71.6</ele>
        <time>2018-02-22T18:23:40Z</time>
      </trkpt>
      <trkpt lat="62.63788421765" lon="17.971297603647">
        <ele>71.6</ele>
        <time>2018-02-22T18:23:41Z</time>
      </trkpt>
      <trkpt lat="62.637894443568" lon="17.971363401562">
        <ele>71.4</ele>
        <time>2018-02-22T18:23:42Z</time>
      </trkpt>
      <trkpt lat="62.637902154916" lon="17.971410004926">
        <ele>71.4</ele>
        <time>2018-02-22T18:23:43Z</time>
      </trkpt>
      <trkpt lat="62.63791020154" lon="17.971464152">
        <ele>71.4</ele>
        <time>2018-02-22T18:23:44Z</time>
      </trkpt>
      <trkpt lat="62.637919505449" lon="17.971531458657">
        <ele>71.6</ele>
        <time>2018-02-22T18:23:45Z</time>
      </trkpt>
      <trkpt lat="62.63792696534" lon="17.971583510256">
        <ele>71.8</ele>
        <time>2018-02-22T18:23:46Z</time>
      </trkpt>
      <trkpt lat="62.637932413575" lon="17.971627431412">
        <ele>72</ele>
        <time>2018-02-22T18:23:47Z</time>
      </trkpt>
      <trkpt lat="62.637943058588" lon="17.971703539064">
        <ele>72</ele>
        <time>2018-02-22T18:23:48Z</time>
      </trkpt>
      <trkpt lat="62.637950183203" lon="17.971758691966">
        <ele>72</ele>
        <time>2018-02-22T18:23:49Z</time>
      </trkpt>
      <trkpt lat="62.637958397465" lon="17.971819879836">
        <ele>72</ele>
        <time>2018-02-22T18:23:50Z</time>
      </trkpt>
      <trkpt lat="62.637961750225" lon="17.971883666095">
        <ele>72</ele>
        <time>2018-02-22T18:23:51Z</time>
      </trkpt>
      <trkpt lat="62.637964851528" lon="17.971954996064">
        <ele>72</ele>
        <time>2018-02-22T18:23:52Z</time>
      </trkpt>
      <trkpt lat="62.637964935347" lon="17.971997324659">
        <ele>72</ele>
        <time>2018-02-22T18:23:53Z</time>
      </trkpt>
      <trkpt lat="62.637965438261" lon="17.972058680167">
        <ele>72.2</ele>
        <time>2018-02-22T18:23:54Z</time>
      </trkpt>
      <trkpt lat="62.637965941175" lon="17.97213554219">
        <ele>72</ele>
        <time>2018-02-22T18:23:55Z</time>
      </trkpt>
      <trkpt lat="62.637968623383" lon="17.972194634585">
        <ele>72.2</ele>
        <time>2018-02-22T18:23:56Z</time>
      </trkpt>
      <trkpt lat="62.637972395238" lon="17.972250458039">
        <ele>72.2</ele>
        <time>2018-02-22T18:23:57Z</time>
      </trkpt>
      <trkpt lat="62.637972981971" lon="17.972311142995">
        <ele>72.2</ele>
        <time>2018-02-22T18:23:58Z</time>
      </trkpt>
      <trkpt lat="62.637976250912" lon="17.972360847662">
        <ele>72.2</ele>
        <time>2018-02-22T18:23:59Z</time>
      </trkpt>
      <trkpt lat="62.637982202061" lon="17.972418347496">
        <ele>72.2</ele>
        <time>2018-02-22T18:24:00Z</time>
      </trkpt>
      <trkpt lat="62.63798647683" lon="17.972460592272">
        <ele>72.2</ele>
        <time>2018-02-22T18:24:01Z</time>
      </trkpt>
      <trkpt lat="62.637990751599" lon="17.972509877844">
        <ele>72.2</ele>
        <time>2018-02-22T18:24:02Z</time>
      </trkpt>
      <trkpt lat="62.637995277825" lon="17.972565868936">
        <ele>72.4</ele>
        <time>2018-02-22T18:24:03Z</time>
      </trkpt>
      <trkpt lat="62.638000055508" lon="17.972607526979">
        <ele>72.6</ele>
        <time>2018-02-22T18:24:04Z</time>
      </trkpt>
      <trkpt lat="62.638006174295" lon="17.972656980189">
        <ele>72.8</ele>
        <time>2018-02-22T18:24:05Z</time>
      </trkpt>
      <trkpt lat="62.638009024141" lon="17.972719173887">
        <ele>73</ele>
        <time>2018-02-22T18:24:06Z</time>
      </trkpt>
      <trkpt lat="62.638012209263" lon="17.972779188291">
        <ele>73.4</ele>
        <time>2018-02-22T18:24:07Z</time>
      </trkpt>
      <trkpt lat="62.638015897299" lon="17.972829647329">
        <ele>73.4</ele>
        <time>2018-02-22T18:24:08Z</time>
      </trkpt>
      <trkpt lat="62.638020255887" lon="17.972870970096">
        <ele>73.4</ele>
        <time>2018-02-22T18:24:09Z</time>
      </trkpt>
      <trkpt lat="62.638023692466" lon="17.972926877369">
        <ele>73.6</ele>
        <time>2018-02-22T18:24:10Z</time>
      </trkpt>
      <trkpt lat="62.638025368846" lon="17.972978258416">
        <ele>73.6</ele>
        <time>2018-02-22T18:24:11Z</time>
      </trkpt>
      <trkpt lat="62.638028721606" lon="17.973028968911">
        <ele>73.6</ele>
        <time>2018-02-22T18:24:12Z</time>
      </trkpt>
      <trkpt lat="62.638032158185" lon="17.973071716601">
        <ele>73.8</ele>
        <time>2018-02-22T18:24:13Z</time>
      </trkpt>
      <trkpt lat="62.638034337479" lon="17.97312963553">
        <ele>73.8</ele>
        <time>2018-02-22T18:24:14Z</time>
      </trkpt>
      <trkpt lat="62.638037019687" lon="17.973190320486">
        <ele>74</ele>
        <time>2018-02-22T18:24:15Z</time>
      </trkpt>
      <trkpt lat="62.638037103506" lon="17.973243880827">
        <ele>74</ele>
        <time>2018-02-22T18:24:16Z</time>
      </trkpt>
      <trkpt lat="62.638036181497" lon="17.973283275757">
        <ele>74</ele>
        <time>2018-02-22T18:24:17Z</time>
      </trkpt>
      <trkpt lat="62.63803760642" lon="17.973325269076">
        <ele>74</ele>
        <time>2018-02-22T18:24:18Z</time>
      </trkpt>
      <trkpt lat="62.638035846221" lon="17.973374303191">
        <ele>74</ele>
        <time>2018-02-22T18:24:19Z</time>
      </trkpt>
      <trkpt lat="62.638035175669" lon="17.973436999803">
        <ele>74.2</ele>
        <time>2018-02-22T18:24:20Z</time>
      </trkpt>
      <trkpt lat="62.638038947524" lon="17.973475891819">
        <ele>74.4</ele>
        <time>2018-02-22T18:24:21Z</time>
      </trkpt>
      <trkpt lat="62.6380392828" lon="17.973536828232">
        <ele>74.6</ele>
        <time>2018-02-22T18:24:22Z</time>
      </trkpt>
      <trkpt lat="62.638036684411" lon="17.973590304754">
        <ele>74.8</ele>
        <time>2018-02-22T18:24:23Z</time>
      </trkpt>
      <trkpt lat="62.638036013859" lon="17.973640763792">
        <ele>75.2</ele>
        <time>2018-02-22T18:24:24Z</time>
      </trkpt>
      <trkpt lat="62.638035427126" lon="17.973715697978">
        <ele>75.2</ele>
        <time>2018-02-22T18:24:25Z</time>
      </trkpt>
      <trkpt lat="62.63803676823" lon="17.973766911387">
        <ele>75.4</ele>
        <time>2018-02-22T18:24:26Z</time>
      </trkpt>
      <trkpt lat="62.638040623904" lon="17.973824327402">
        <ele>75.2</ele>
        <time>2018-02-22T18:24:27Z</time>
      </trkpt>
      <trkpt lat="62.638044060483" lon="17.973894651543">
        <ele>75.2</ele>
        <time>2018-02-22T18:24:28Z</time>
      </trkpt>
      <trkpt lat="62.638046658872" lon="17.973943601839">
        <ele>75.4</ele>
        <time>2018-02-22T18:24:29Z</time>
      </trkpt>
      <trkpt lat="62.638049843994" lon="17.974007136641">
        <ele>75.2</ele>
        <time>2018-02-22T18:24:30Z</time>
      </trkpt>
      <trkpt lat="62.638054537858" lon="17.974074946212">
        <ele>75.4</ele>
        <time>2018-02-22T18:24:31Z</time>
      </trkpt>
      <trkpt lat="62.638059315541" lon="17.974143426335">
        <ele>75.4</ele>
        <time>2018-02-22T18:24:32Z</time>
      </trkpt>
      <trkpt lat="62.63806359031" lon="17.974180558152">
        <ele>75.4</ele>
        <time>2018-02-22T18:24:33Z</time>
      </trkpt>
      <trkpt lat="62.638066440156" lon="17.974238728538">
        <ele>75.4</ele>
        <time>2018-02-22T18:24:34Z</time>
      </trkpt>
      <trkpt lat="62.638069625278" lon="17.974284493712">
        <ele>75.2</ele>
        <time>2018-02-22T18:24:35Z</time>
      </trkpt>
      <trkpt lat="62.638071720753" lon="17.974358086794">
        <ele>75.2</ele>
        <time>2018-02-22T18:24:36Z</time>
      </trkpt>
      <trkpt lat="62.638078593911" lon="17.974421873053">
        <ele>75.2</ele>
        <time>2018-02-22T18:24:37Z</time>
      </trkpt>
      <trkpt lat="62.638080437929" lon="17.974474008471">
        <ele>75.2</ele>
        <time>2018-02-22T18:24:38Z</time>
      </trkpt>
      <trkpt lat="62.638079851196" lon="17.974536202169">
        <ele>75.2</ele>
        <time>2018-02-22T18:24:39Z</time>
      </trkpt>
      <trkpt lat="62.638078258635" lon="17.974590852157">
        <ele>75.2</ele>
        <time>2018-02-22T18:24:40Z</time>
      </trkpt>
      <trkpt lat="62.638077671902" lon="17.97463334839">
        <ele>75.2</ele>
        <time>2018-02-22T18:24:41Z</time>
      </trkpt>
      <trkpt lat="62.638068451812" lon="17.974700068314">
        <ele>75</ele>
        <time>2018-02-22T18:24:42Z</time>
      </trkpt>
      <trkpt lat="62.638057890618" lon="17.974758322519">
        <ele>75.2</ele>
        <time>2018-02-22T18:24:43Z</time>
      </trkpt>
      <trkpt lat="62.638051520374" lon="17.974798890915">
        <ele>75.2</ele>
        <time>2018-02-22T18:24:44Z</time>
      </trkpt>
      <trkpt lat="62.638035594764" lon="17.974857396577">
        <ele>75</ele>
        <time>2018-02-22T18:24:45Z</time>
      </trkpt>
      <trkpt lat="62.638019920611" lon="17.974900898638">
        <ele>75</ele>
        <time>2018-02-22T18:24:46Z</time>
      </trkpt>
      <trkpt lat="62.638007515399" lon="17.974940293568">
        <ele>75</ele>
        <time>2018-02-22T18:24:47Z</time>
      </trkpt>
      <trkpt lat="62.637995948377" lon="17.974978598851">
        <ele>75.4</ele>
        <time>2018-02-22T18:24:48Z</time>
      </trkpt>
      <trkpt lat="62.637978430206" lon="17.975013383736">
        <ele>75.4</ele>
        <time>2018-02-22T18:24:49Z</time>
      </trkpt>
      <trkpt lat="62.637954457972" lon="17.975058897453">
        <ele>75.6</ele>
        <time>2018-02-22T18:24:50Z</time>
      </trkpt>
      <trkpt lat="62.637936017792" lon="17.975092760329">
        <ele>75.8</ele>
        <time>2018-02-22T18:24:51Z</time>
      </trkpt>
      <trkpt lat="62.637920427458" lon="17.975124443911">
        <ele>76</ele>
        <time>2018-02-22T18:24:52Z</time>
      </trkpt>
      <trkpt lat="62.637907938427" lon="17.975156043674">
        <ele>76</ele>
        <time>2018-02-22T18:24:53Z</time>
      </trkpt>
      <trkpt lat="62.637890001161" lon="17.975191080016">
        <ele>76</ele>
        <time>2018-02-22T18:24:54Z</time>
      </trkpt>
      <trkpt lat="62.637869297868" lon="17.97523097786">
        <ele>76.2</ele>
        <time>2018-02-22T18:24:55Z</time>
      </trkpt>
      <trkpt lat="62.637851276783" lon="17.975264170184">
        <ele>76.2</ele>
        <time>2018-02-22T18:24:56Z</time>
      </trkpt>
      <trkpt lat="62.63783560263" lon="17.975297530146">
        <ele>76.4</ele>
        <time>2018-02-22T18:24:57Z</time>
      </trkpt>
      <trkpt lat="62.637816827174" lon="17.975333488497">
        <ele>76.4</ele>
        <time>2018-02-22T18:24:58Z</time>
      </trkpt>
      <trkpt lat="62.63779872227" lon="17.975362406052">
        <ele>76.6</ele>
        <time>2018-02-22T18:24:59Z</time>
      </trkpt>
      <trkpt lat="62.637777348425" lon="17.975396436566">
        <ele>76.8</ele>
        <time>2018-02-22T18:25:00Z</time>
      </trkpt>
      <trkpt lat="62.63775932734" lon="17.975419067696">
        <ele>76.8</ele>
        <time>2018-02-22T18:25:01Z</time>
      </trkpt>
      <trkpt lat="62.637742731178" lon="17.975441447369">
        <ele>76.8</ele>
        <time>2018-02-22T18:25:02Z</time>
      </trkpt>
      <trkpt lat="62.637727643758" lon="17.975458714083">
        <ele>77.2</ele>
        <time>2018-02-22T18:25:03Z</time>
      </trkpt>
      <trkpt lat="62.637714232718" lon="17.975469442915">
        <ele>77.2</ele>
        <time>2018-02-22T18:25:04Z</time>
      </trkpt>
      <trkpt lat="62.637698810022" lon="17.97548411124">
        <ele>77.6</ele>
        <time>2018-02-22T18:25:05Z</time>
      </trkpt>
      <trkpt lat="62.637681124213" lon="17.975497270823">
        <ele>77.8</ele>
        <time>2018-02-22T18:25:06Z</time>
      </trkpt>
      <trkpt lat="62.637664947146" lon="17.975514872813">
        <ele>78.2</ele>
        <time>2018-02-22T18:25:07Z</time>
      </trkpt>
      <trkpt lat="62.637637957428" lon="17.975527780939">
        <ele>78.4</ele>
        <time>2018-02-22T18:25:08Z</time>
      </trkpt>
      <trkpt lat="62.63761515866" lon="17.975540186151">
        <ele>78.8</ele>
        <time>2018-02-22T18:25:09Z</time>
      </trkpt>
      <trkpt lat="62.6375950421" lon="17.975557285227">
        <ele>79.2</ele>
        <time>2018-02-22T18:25:10Z</time>
      </trkpt>
      <trkpt lat="62.637573500617" lon="17.975570947724">
        <ele>79.2</ele>
        <time>2018-02-22T18:25:11Z</time>
      </trkpt>
      <trkpt lat="62.6375447507" lon="17.975583688212">
        <ele>79.4</ele>
        <time>2018-02-22T18:25:12Z</time>
      </trkpt>
      <trkpt lat="62.63751709043" lon="17.975615120337">
        <ele>79.4</ele>
        <time>2018-02-22T18:25:13Z</time>
      </trkpt>
      <trkpt lat="62.637497644422" lon="17.975627860825">
        <ele>79.4</ele>
        <time>2018-02-22T18:25:14Z</time>
      </trkpt>
      <trkpt lat="62.637477276405" lon="17.97564085277">
        <ele>79.6</ele>
        <time>2018-02-22T18:25:15Z</time>
      </trkpt>
      <trkpt lat="62.637456489293" lon="17.975651581602">
        <ele>80</ele>
        <time>2018-02-22T18:25:16Z</time>
      </trkpt>
      <trkpt lat="62.637439725493" lon="17.975663400081">
        <ele>80.2</ele>
        <time>2018-02-22T18:25:17Z</time>
      </trkpt>
      <trkpt lat="62.637420782399" lon="17.975676559664">
        <ele>80.2</ele>
        <time>2018-02-22T18:25:18Z</time>
      </trkpt>
      <trkpt lat="62.637402174581" lon="17.97568360046">
        <ele>80.4</ele>
        <time>2018-02-22T18:25:19Z</time>
      </trkpt>
      <trkpt lat="62.63737459813" lon="17.975699693708">
        <ele>80.8</ele>
        <time>2018-02-22T18:25:20Z</time>
      </trkpt>
      <trkpt lat="62.63735951071" lon="17.975718972078">
        <ele>80.8</ele>
        <time>2018-02-22T18:25:21Z</time>
      </trkpt>
      <trkpt lat="62.637340399978" lon="17.975736741706">
        <ele>81</ele>
        <time>2018-02-22T18:25:22Z</time>
      </trkpt>
      <trkpt lat="62.637319696685" lon="17.975755768619">
        <ele>81</ele>
        <time>2018-02-22T18:25:23Z</time>
      </trkpt>
      <trkpt lat="62.637300166858" lon="17.975776304274">
        <ele>81.2</ele>
        <time>2018-02-22T18:25:24Z</time>
      </trkpt>
      <trkpt lat="62.637280050298" lon="17.975797175205">
        <ele>81.2</ele>
        <time>2018-02-22T18:25:25Z</time>
      </trkpt>
      <trkpt lat="62.637261358661" lon="17.97581854905">
        <ele>81.2</ele>
        <time>2018-02-22T18:25:26Z</time>
      </trkpt>
      <trkpt lat="62.637245768327" lon="17.97584537113">
        <ele>81.2</ele>
        <time>2018-02-22T18:25:27Z</time>
      </trkpt>
      <trkpt lat="62.637230848545" lon="17.975874204866">
        <ele>81.4</ele>
        <time>2018-02-22T18:25:28Z</time>
      </trkpt>
      <trkpt lat="62.637217772781" lon="17.975900775489">
        <ele>81.6</ele>
        <time>2018-02-22T18:25:29Z</time>
      </trkpt>
      <trkpt lat="62.637203355913" lon="17.975936650021">
        <ele>81.8</ele>
        <time>2018-02-22T18:25:30Z</time>
      </trkpt>
      <trkpt lat="62.637191537434" lon="17.975971770182">
        <ele>82.2</ele>
        <time>2018-02-22T18:25:31Z</time>
      </trkpt>
      <trkpt lat="62.637180557145" lon="17.976003705221">
        <ele>82.4</ele>
        <time>2018-02-22T18:25:32Z</time>
      </trkpt>
      <trkpt lat="62.63716840339" lon="17.976050057128">
        <ele>82.8</ele>
        <time>2018-02-22T18:25:33Z</time>
      </trkpt>
      <trkpt lat="62.637156333454" lon="17.97608844623">
        <ele>83</ele>
        <time>2018-02-22T18:25:34Z</time>
      </trkpt>
      <trkpt lat="62.63714912502" lon="17.976133624671">
        <ele>83.2</ele>
        <time>2018-02-22T18:25:35Z</time>
      </trkpt>
      <trkpt lat="62.637143592966" lon="17.976185005718">
        <ele>83.4</ele>
        <time>2018-02-22T18:25:36Z</time>
      </trkpt>
      <trkpt lat="62.637133869962" lon="17.976245690674">
        <ele>83.6</ele>
        <time>2018-02-22T18:25:37Z</time>
      </trkpt>
      <trkpt lat="62.637128337908" lon="17.976294724789">
        <ele>83.6</ele>
        <time>2018-02-22T18:25:38Z</time>
      </trkpt>
      <trkpt lat="62.637123057311" lon="17.976335125547">
        <ele>83.6</ele>
        <time>2018-02-22T18:25:39Z</time>
      </trkpt>
      <trkpt lat="62.637117525257" lon="17.97637762178">
        <ele>83.8</ele>
        <time>2018-02-22T18:25:40Z</time>
      </trkpt>
      <trkpt lat="62.637110819737" lon="17.976430008655">
        <ele>83.8</ele>
        <time>2018-02-22T18:25:41Z</time>
      </trkpt>
      <trkpt lat="62.637107886072" lon="17.976483317539">
        <ele>83.8</ele>
        <time>2018-02-22T18:25:42Z</time>
      </trkpt>
      <trkpt lat="62.637102689294" lon="17.976531513464">
        <ele>83.8</ele>
        <time>2018-02-22T18:25:43Z</time>
      </trkpt>
      <trkpt lat="62.637100677638" lon="17.976593120429">
        <ele>84</ele>
        <time>2018-02-22T18:25:44Z</time>
      </trkpt>
      <trkpt lat="62.637098665982" lon="17.976649614435">
        <ele>84</ele>
        <time>2018-02-22T18:25:45Z</time>
      </trkpt>
      <trkpt lat="62.637095564679" lon="17.976700660206">
        <ele>84</ele>
        <time>2018-02-22T18:25:46Z</time>
      </trkpt>
      <trkpt lat="62.637090200263" lon="17.976765787569">
        <ele>84</ele>
        <time>2018-02-22T18:25:47Z</time>
      </trkpt>
      <trkpt lat="62.637090954634" lon="17.976820605195">
        <ele>84</ele>
        <time>2018-02-22T18:25:48Z</time>
      </trkpt>
      <trkpt lat="62.637091709005" lon="17.97687383026">
        <ele>84</ele>
        <time>2018-02-22T18:25:49Z</time>
      </trkpt>
      <trkpt lat="62.637092882471" lon="17.976946417514">
        <ele>84.2</ele>
        <time>2018-02-22T18:25:50Z</time>
      </trkpt>
      <trkpt lat="62.637097492516" lon="17.976993942887">
        <ele>84.2</ele>
        <time>2018-02-22T18:25:51Z</time>
      </trkpt>
      <trkpt lat="62.63709883362" lon="17.977065105218">
        <ele>84.2</ele>
        <time>2018-02-22T18:25:52Z</time>
      </trkpt>
      <trkpt lat="62.637097241059" lon="17.977130148762">
        <ele>84.2</ele>
        <time>2018-02-22T18:25:53Z</time>
      </trkpt>
      <trkpt lat="62.637100426181" lon="17.977178679963">
        <ele>84.4</ele>
        <time>2018-02-22T18:25:54Z</time>
      </trkpt>
      <trkpt lat="62.637095983774" lon="17.977260822583">
        <ele>84.4</ele>
        <time>2018-02-22T18:25:55Z</time>
      </trkpt>
      <trkpt lat="62.637090032625" lon="17.977324357385">
        <ele>84.4</ele>
        <time>2018-02-22T18:25:56Z</time>
      </trkpt>
      <trkpt lat="62.637089110616" lon="17.9773650096">
        <ele>84.4</ele>
        <time>2018-02-22T18:25:57Z</time>
      </trkpt>
      <trkpt lat="62.637077459775" lon="17.977431980981">
        <ele>84.6</ele>
        <time>2018-02-22T18:25:58Z</time>
      </trkpt>
      <trkpt lat="62.637067904409" lon="17.977482942933">
        <ele>84.6</ele>
        <time>2018-02-22T18:25:59Z</time>
      </trkpt>
      <trkpt lat="62.637058181405" lon="17.977536754731">
        <ele>84.6</ele>
        <time>2018-02-22T18:26:00Z</time>
      </trkpt>
      <trkpt lat="62.637040830872" lon="17.977599199886">
        <ele>84.6</ele>
        <time>2018-02-22T18:26:01Z</time>
      </trkpt>
      <trkpt lat="62.637028090384" lon="17.977655777711">
        <ele>84.6</ele>
        <time>2018-02-22T18:26:02Z</time>
      </trkpt>
      <trkpt lat="62.637014344068" lon="17.9777086675">
        <ele>84.6</ele>
        <time>2018-02-22T18:26:03Z</time>
      </trkpt>
      <trkpt lat="62.637000262476" lon="17.977761305832">
        <ele>84.6</ele>
        <time>2018-02-22T18:26:04Z</time>
      </trkpt>
      <trkpt lat="62.63699405987" lon="17.977808579748">
        <ele>84.8</ele>
        <time>2018-02-22T18:26:05Z</time>
      </trkpt>
      <trkpt lat="62.636986013246" lon="17.977882591925">
        <ele>84.8</ele>
        <time>2018-02-22T18:26:06Z</time>
      </trkpt>
      <trkpt lat="62.636973775672" lon="17.9779433607">
        <ele>84.8</ele>
        <time>2018-02-22T18:26:07Z</time>
      </trkpt>
      <trkpt lat="62.636972434568" lon="17.977986359847">
        <ele>84.8</ele>
        <time>2018-02-22T18:26:08Z</time>
      </trkpt>
      <trkpt lat="62.636965812867" lon="17.978043859681">
        <ele>84.8</ele>
        <time>2018-02-22T18:26:09Z</time>
      </trkpt>
      <trkpt lat="62.636955754587" lon="17.978108316492">
        <ele>84.8</ele>
        <time>2018-02-22T18:26:10Z</time>
      </trkpt>
      <trkpt lat="62.636953491474" lon="17.978152237648">
        <ele>85</ele>
        <time>2018-02-22T18:26:11Z</time>
      </trkpt>
      <trkpt lat="62.636946785954" lon="17.978200098297">
        <ele>85</ele>
        <time>2018-02-22T18:26:12Z</time>
      </trkpt>
      <trkpt lat="62.636932201448" lon="17.978255921751">
        <ele>85</ele>
        <time>2018-02-22T18:26:13Z</time>
      </trkpt>
      <trkpt lat="62.636923400453" lon="17.978294478491">
        <ele>85</ele>
        <time>2018-02-22T18:26:14Z</time>
      </trkpt>
      <trkpt lat="62.636908983585" lon="17.978350888678">
        <ele>85</ele>
        <time>2018-02-22T18:26:15Z</time>
      </trkpt>
      <trkpt lat="62.636892806518" lon="17.978403024096">
        <ele>85</ele>
        <time>2018-02-22T18:26:16Z</time>
      </trkpt>
      <trkpt lat="62.636883921704" lon="17.978438647171">
        <ele>85.2</ele>
        <time>2018-02-22T18:26:17Z</time>
      </trkpt>
      <trkpt lat="62.636864391877" lon="17.978496733738">
        <ele>85.2</ele>
        <time>2018-02-22T18:26:18Z</time>
      </trkpt>
      <trkpt lat="62.636851399932" lon="17.978531853899">
        <ele>85.4</ele>
        <time>2018-02-22T18:26:19Z</time>
      </trkpt>
      <trkpt lat="62.636835306684" lon="17.978574350132">
        <ele>85.6</ele>
        <time>2018-02-22T18:26:20Z</time>
      </trkpt>
      <trkpt lat="62.63681468721" lon="17.978618690383">
        <ele>85.6</ele>
        <time>2018-02-22T18:26:21Z</time>
      </trkpt>
      <trkpt lat="62.636797504315" lon="17.97865414582">
        <ele>85.6</ele>
        <time>2018-02-22T18:26:22Z</time>
      </trkpt>
      <trkpt lat="62.636780740515" lon="17.978681303176">
        <ele>85.6</ele>
        <time>2018-02-22T18:26:23Z</time>
      </trkpt>
      <trkpt lat="62.636760623955" lon="17.978708376713">
        <ele>85.6</ele>
        <time>2018-02-22T18:26:24Z</time>
      </trkpt>
      <trkpt lat="62.636735394436" lon="17.978732516585">
        <ele>85.6</ele>
        <time>2018-02-22T18:26:25Z</time>
      </trkpt>
      <trkpt lat="62.636715110238" lon="17.97875053767">
        <ele>86</ele>
        <time>2018-02-22T18:26:26Z</time>
      </trkpt>
      <trkpt lat="62.63669566423" lon="17.978765289814">
        <ele>86.2</ele>
        <time>2018-02-22T18:26:27Z</time>
      </trkpt>
      <trkpt lat="62.636670602349" lon="17.978780041958">
        <ele>86.2</ele>
        <time>2018-02-22T18:26:28Z</time>
      </trkpt>
      <trkpt lat="62.636647216848" lon="17.978784149089">
        <ele>86.4</ele>
        <time>2018-02-22T18:26:29Z</time>
      </trkpt>
      <trkpt lat="62.636622574062" lon="17.978789848781">
        <ele>86.4</ele>
        <time>2018-02-22T18:26:30Z</time>
      </trkpt>
      <trkpt lat="62.636601451674" lon="17.978791273704">
        <ele>86.4</ele>
        <time>2018-02-22T18:26:31Z</time>
      </trkpt>
      <trkpt lat="62.636575551603" lon="17.978790016419">
        <ele>86.6</ele>
        <time>2018-02-22T18:26:32Z</time>
      </trkpt>
      <trkpt lat="62.636543365107" lon="17.978782137433">
        <ele>86.6</ele>
        <time>2018-02-22T18:26:33Z</time>
      </trkpt>
      <trkpt lat="62.636520650158" lon="17.978777946483">
        <ele>86.6</ele>
        <time>2018-02-22T18:26:34Z</time>
      </trkpt>
      <trkpt lat="62.63649282225" lon="17.978777192112">
        <ele>86.8</ele>
        <time>2018-02-22T18:26:35Z</time>
      </trkpt>
      <trkpt lat="62.636466922179" lon="17.978775180456">
        <ele>87</ele>
        <time>2018-02-22T18:26:36Z</time>
      </trkpt>
      <trkpt lat="62.636439345728" lon="17.978772665886">
        <ele>87.2</ele>
        <time>2018-02-22T18:26:37Z</time>
      </trkpt>
      <trkpt lat="62.6364131942" lon="17.978772749705">
        <ele>87.2</ele>
        <time>2018-02-22T18:26:38Z</time>
      </trkpt>
      <trkpt lat="62.636391820355" lon="17.978774509904">
        <ele>87.4</ele>
        <time>2018-02-22T18:26:39Z</time>
      </trkpt>
      <trkpt lat="62.636370278872" lon="17.978777192112">
        <ele>87.6</ele>
        <time>2018-02-22T18:26:40Z</time>
      </trkpt>
      <trkpt lat="62.636352676882" lon="17.97878657984">
        <ele>87.8</ele>
        <time>2018-02-22T18:26:41Z</time>
      </trkpt>
      <trkpt lat="62.636333147055" lon="17.978796973396">
        <ele>88.2</ele>
        <time>2018-02-22T18:26:42Z</time>
      </trkpt>
      <trkpt lat="62.636314539237" lon="17.978808037504">
        <ele>88.4</ele>
        <time>2018-02-22T18:26:43Z</time>
      </trkpt>
      <trkpt lat="62.636297440161" lon="17.978821448544">
        <ele>88.8</ele>
        <time>2018-02-22T18:26:44Z</time>
      </trkpt>
      <trkpt lat="62.636280089628" lon="17.978832512652">
        <ele>89</ele>
        <time>2018-02-22T18:26:45Z</time>
      </trkpt>
      <trkpt lat="62.636266008036" lon="17.97884609133">
        <ele>89.2</ele>
        <time>2018-02-22T18:26:46Z</time>
      </trkpt>
      <trkpt lat="62.636245137105" lon="17.978870901754">
        <ele>89.2</ele>
        <time>2018-02-22T18:26:47Z</time>
      </trkpt>
      <trkpt lat="62.636214291713" lon="17.978911553969">
        <ele>89.6</ele>
        <time>2018-02-22T18:26:48Z</time>
      </trkpt>
      <trkpt lat="62.63619191204" lon="17.978935442384">
        <ele>89.6</ele>
        <time>2018-02-22T18:26:49Z</time>
      </trkpt>
      <trkpt lat="62.636169113272" lon="17.978965868681">
        <ele>89.8</ele>
        <time>2018-02-22T18:26:50Z</time>
      </trkpt>
      <trkpt lat="62.636158552078" lon="17.978989254182">
        <ele>90</ele>
        <time>2018-02-22T18:26:51Z</time>
      </trkpt>
      <trkpt lat="62.636145392495" lon="17.979011633855">
        <ele>90</ele>
        <time>2018-02-22T18:26:52Z</time>
      </trkpt>
      <trkpt lat="62.636133993111" lon="17.979029235845">
        <ele>90.4</ele>
        <time>2018-02-22T18:26:53Z</time>
      </trkpt>
      <trkpt lat="62.636124773021" lon="17.979044239446">
        <ele>90.6</ele>
        <time>2018-02-22T18:26:54Z</time>
      </trkpt>
      <trkpt lat="62.636115552931" lon="17.979060584151">
        <ele>90.8</ele>
        <time>2018-02-22T18:26:55Z</time>
      </trkpt>
      <trkpt lat="62.636104991737" lon="17.979082125634">
        <ele>91.2</ele>
        <time>2018-02-22T18:26:56Z</time>
      </trkpt>
      <trkpt lat="62.636091999792" lon="17.979105846411">
        <ele>91.6</ele>
        <time>2018-02-22T18:26:57Z</time>
      </trkpt>
      <trkpt lat="62.636077834381" lon="17.979124789505">
        <ele>92</ele>
        <time>2018-02-22T18:26:58Z</time>
      </trkpt>
      <trkpt lat="62.636064088065" lon="17.979149683748">
        <ele>92.4</ele>
        <time>2018-02-22T18:26:59Z</time>
      </trkpt>
      <trkpt lat="62.636047827179" lon="17.979183965719">
        <ele>92.8</ele>
        <time>2018-02-22T18:27:00Z</time>
      </trkpt>
      <trkpt lat="62.636035589605" lon="17.979213553826">
        <ele>93</ele>
        <time>2018-02-22T18:27:01Z</time>
      </trkpt>
      <trkpt lat="62.63602511223" lon="17.979249176901">
        <ele>93.4</ele>
        <time>2018-02-22T18:27:02Z</time>
      </trkpt>
      <trkpt lat="62.636017987615" lon="17.979285973442">
        <ele>93.8</ele>
        <time>2018-02-22T18:27:03Z</time>
      </trkpt>
      <trkpt lat="62.636008264611" lon="17.979324027268">
        <ele>94</ele>
        <time>2018-02-22T18:27:04Z</time>
      </trkpt>
      <trkpt lat="62.635996949046" lon="17.979379599265">
        <ele>94</ele>
        <time>2018-02-22T18:27:05Z</time>
      </trkpt>
      <trkpt lat="62.635994602114" lon="17.979426034991">
        <ele>94.2</ele>
        <time>2018-02-22T18:27:06Z</time>
      </trkpt>
      <trkpt lat="62.635988064232" lon="17.979494934209">
        <ele>94.2</ele>
        <time>2018-02-22T18:27:07Z</time>
      </trkpt>
      <trkpt lat="62.635984711472" lon="17.979560061572">
        <ele>94</ele>
        <time>2018-02-22T18:27:08Z</time>
      </trkpt>
      <trkpt lat="62.635982196902" lon="17.979637007414">
        <ele>94</ele>
        <time>2018-02-22T18:27:09Z</time>
      </trkpt>
      <trkpt lat="62.635976748667" lon="17.979758209688">
        <ele>94</ele>
        <time>2018-02-22T18:27:10Z</time>
      </trkpt>
      <trkpt lat="62.635972641536" lon="17.979886620396">
        <ele>93.8</ele>
        <time>2018-02-22T18:27:11Z</time>
      </trkpt>
      <trkpt lat="62.635972473898" lon="17.980023077728">
        <ele>93.8</ele>
        <time>2018-02-22T18:27:12Z</time>
      </trkpt>
      <trkpt lat="62.635978089771" lon="17.980151069341">
        <ele>93.8</ele>
        <time>2018-02-22T18:27:13Z</time>
      </trkpt>
      <trkpt lat="62.635988148051" lon="17.980269170312">
        <ele>93.8</ele>
        <time>2018-02-22T18:27:14Z</time>
      </trkpt>
      <trkpt lat="62.636002145824" lon="17.980400514685">
        <ele>93.6</ele>
        <time>2018-02-22T18:27:15Z</time>
      </trkpt>
      <trkpt lat="62.636019328719" lon="17.980518699475">
        <ele>93.6</ele>
        <time>2018-02-22T18:27:16Z</time>
      </trkpt>
      <trkpt lat="62.63603684689" lon="17.98061802499">
        <ele>93.8</ele>
        <time>2018-02-22T18:27:17Z</time>
      </trkpt>
      <trkpt lat="62.636052604862" lon="17.980709639157">
        <ele>93.6</ele>
        <time>2018-02-22T18:27:18Z</time>
      </trkpt>
      <trkpt lat="62.636070206852" lon="17.980806366283">
        <ele>93.8</ele>
        <time>2018-02-22T18:27:19Z</time>
      </trkpt>
      <trkpt lat="62.636087725023" lon="17.98091642063">
        <ele>94.2</ele>
        <time>2018-02-22T18:27:20Z</time>
      </trkpt>
      <trkpt lat="62.636104488823" lon="17.98100443058">
        <ele>94.2</ele>
        <time>2018-02-22T18:27:21Z</time>
      </trkpt>
      <trkpt lat="62.636126784677" lon="17.981100068059">
        <ele>94.4</ele>
        <time>2018-02-22T18:27:22Z</time>
      </trkpt>
      <trkpt lat="62.636146817418" lon="17.98118547962">
        <ele>94.6</ele>
        <time>2018-02-22T18:27:23Z</time>
      </trkpt>
      <trkpt lat="62.636156288965" lon="17.981294779596">
        <ele>94.6</ele>
        <time>2018-02-22T18:27:24Z</time>
      </trkpt>
      <trkpt lat="62.636171460204" lon="17.981388824514">
        <ele>94.6</ele>
        <time>2018-02-22T18:27:25Z</time>
      </trkpt>
      <trkpt lat="62.636183194864" lon="17.981471134772">
        <ele>94.6</ele>
        <time>2018-02-22T18:27:26Z</time>
      </trkpt>
      <trkpt lat="62.6361952648" lon="17.981535591583">
        <ele>94</ele>
        <time>2018-02-22T18:27:27Z</time>
      </trkpt>
      <trkpt lat="62.636201635044" lon="17.981618907669">
        <ele>94</ele>
        <time>2018-02-22T18:27:28Z</time>
      </trkpt>
      <trkpt lat="62.636209933125" lon="17.981695434416">
        <ele>93.8</ele>
        <time>2018-02-22T18:27:29Z</time>
      </trkpt>
      <trkpt lat="62.636226361649" lon="17.9817571252">
        <ele>93.6</ele>
        <time>2018-02-22T18:27:30Z</time>
      </trkpt>
      <trkpt lat="62.636237761033" lon="17.981831472653">
        <ele>93.4</ele>
        <time>2018-02-22T18:27:31Z</time>
      </trkpt>
      <trkpt lat="62.636255698299" lon="17.981889726858">
        <ele>93.4</ele>
        <time>2018-02-22T18:27:32Z</time>
      </trkpt>
      <trkpt lat="62.636260978896" lon="17.98194236519">
        <ele>92.8</ele>
        <time>2018-02-22T18:27:33Z</time>
      </trkpt>
      <trkpt lat="62.636264415475" lon="17.98201025858">
        <ele>92.6</ele>
        <time>2018-02-22T18:27:34Z</time>
      </trkpt>
      <trkpt lat="62.636270534262" lon="17.982095418684">
        <ele>92.6</ele>
        <time>2018-02-22T18:27:35Z</time>
      </trkpt>
      <trkpt lat="62.636274976669" lon="17.982154259622">
        <ele>92</ele>
        <time>2018-02-22T18:27:36Z</time>
      </trkpt>
      <trkpt lat="62.636271037176" lon="17.982223745573">
        <ele>91.8</ele>
        <time>2018-02-22T18:27:37Z</time>
      </trkpt>
      <trkpt lat="62.636275395764" lon="17.982281999778">
        <ele>90.8</ele>
        <time>2018-02-22T18:27:38Z</time>
      </trkpt>
      <trkpt lat="62.636282185103" lon="17.982334302834">
        <ele>90</ele>
        <time>2018-02-22T18:27:39Z</time>
      </trkpt>
      <trkpt lat="62.636287717157" lon="17.98238912046">
        <ele>89.8</ele>
        <time>2018-02-22T18:27:40Z</time>
      </trkpt>
      <trkpt lat="62.63629333303" lon="17.982441423516">
        <ele>90</ele>
        <time>2018-02-22T18:27:41Z</time>
      </trkpt>
      <trkpt lat="62.636295177048" lon="17.982500767368">
        <ele>89.8</ele>
        <time>2018-02-22T18:27:42Z</time>
      </trkpt>
      <trkpt lat="62.63629249484" lon="17.982564134532">
        <ele>89.8</ele>
        <time>2018-02-22T18:27:43Z</time>
      </trkpt>
      <trkpt lat="62.636290650822" lon="17.982621634366">
        <ele>89.8</ele>
        <time>2018-02-22T18:27:44Z</time>
      </trkpt>
      <trkpt lat="62.636284448216" lon="17.982689779213">
        <ele>90</ele>
        <time>2018-02-22T18:27:45Z</time>
      </trkpt>
      <trkpt lat="62.636280089628" lon="17.982753649291">
        <ele>90</ele>
        <time>2018-02-22T18:27:46Z</time>
      </trkpt>
      <trkpt lat="62.636284699673" lon="17.982794636782">
        <ele>90</ele>
        <time>2018-02-22T18:27:47Z</time>
      </trkpt>
      <trkpt lat="62.636283107112" lon="17.982869068054">
        <ele>89.6</ele>
        <time>2018-02-22T18:27:48Z</time>
      </trkpt>
      <trkpt lat="62.63628411294" lon="17.982923718042">
        <ele>89.4</ele>
        <time>2018-02-22T18:27:49Z</time>
      </trkpt>
      <trkpt lat="62.636289309718" lon="17.982976021098">
        <ele>89.2</ele>
        <time>2018-02-22T18:27:50Z</time>
      </trkpt>
      <trkpt lat="62.636296769609" lon="17.983047770162">
        <ele>89.4</ele>
        <time>2018-02-22T18:27:51Z</time>
      </trkpt>
      <trkpt lat="62.636305486785" lon="17.983098396838">
        <ele>89.4</ele>
        <time>2018-02-22T18:27:52Z</time>
      </trkpt>
      <trkpt lat="62.636306241156" lon="17.983182551114">
        <ele>89.2</ele>
        <time>2018-02-22T18:27:53Z</time>
      </trkpt>
      <trkpt lat="62.636298194532" lon="17.983243152251">
        <ele>89.4</ele>
        <time>2018-02-22T18:27:54Z</time>
      </trkpt>
      <trkpt lat="62.636295093229" lon="17.983295287669">
        <ele>89.4</ele>
        <time>2018-02-22T18:27:55Z</time>
      </trkpt>
      <trkpt lat="62.636292578659" lon="17.983362426688">
        <ele>89.2</ele>
        <time>2018-02-22T18:27:56Z</time>
      </trkpt>
      <trkpt lat="62.636290315546" lon="17.983417663409">
        <ele>89.6</ele>
        <time>2018-02-22T18:27:57Z</time>
      </trkpt>
      <trkpt lat="62.636286124596" lon="17.983453537941">
        <ele>89.8</ele>
        <time>2018-02-22T18:27:58Z</time>
      </trkpt>
      <trkpt lat="62.636277575058" lon="17.983496788545">
        <ele>89.6</ele>
        <time>2018-02-22T18:27:59Z</time>
      </trkpt>
      <trkpt lat="62.636269696072" lon="17.983556216216">
        <ele>89.4</ele>
        <time>2018-02-22T18:28:00Z</time>
      </trkpt>
      <trkpt lat="62.636265337484" lon="17.98360617234">
        <ele>89.4</ele>
        <time>2018-02-22T18:28:01Z</time>
      </trkpt>
      <trkpt lat="62.636263744923" lon="17.983661241423">
        <ele>89.4</ele>
        <time>2018-02-22T18:28:02Z</time>
      </trkpt>
      <trkpt lat="62.636249244236" lon="17.983721339646">
        <ele>89.4</ele>
        <time>2018-02-22T18:28:03Z</time>
      </trkpt>
      <trkpt lat="62.636238096309" lon="17.983776408729">
        <ele>89.4</ele>
        <time>2018-02-22T18:28:04Z</time>
      </trkpt>
      <trkpt lat="62.636244047458" lon="17.983831980726">
        <ele>89.4</ele>
        <time>2018-02-22T18:28:05Z</time>
      </trkpt>
      <trkpt lat="62.636236587567" lon="17.983882104488">
        <ele>89.4</ele>
        <time>2018-02-22T18:28:06Z</time>
      </trkpt>
      <trkpt lat="62.636221919242" lon="17.983953853552">
        <ele>89.2</ele>
        <time>2018-02-22T18:28:07Z</time>
      </trkpt>
      <trkpt lat="62.636217812111" lon="17.984020824933">
        <ele>89</ele>
        <time>2018-02-22T18:28:08Z</time>
      </trkpt>
      <trkpt lat="62.63621119041" lon="17.98406969141">
        <ele>89</ele>
        <time>2018-02-22T18:28:09Z</time>
      </trkpt>
      <trkpt lat="62.636203059967" lon="17.98413507023">
        <ele>88.8</ele>
        <time>2018-02-22T18:28:10Z</time>
      </trkpt>
      <trkpt lat="62.636195683895" lon="17.984185864544">
        <ele>88.8</ele>
        <time>2018-02-22T18:28:11Z</time>
      </trkpt>
      <trkpt lat="62.636195516257" lon="17.984239257247">
        <ele>88.6</ele>
        <time>2018-02-22T18:28:12Z</time>
      </trkpt>
      <trkpt lat="62.636189229832" lon="17.984298349642">
        <ele>88.6</ele>
        <time>2018-02-22T18:28:13Z</time>
      </trkpt>
      <trkpt lat="62.636186296167" lon="17.984359788969">
        <ele>88.6</ele>
        <time>2018-02-22T18:28:14Z</time>
      </trkpt>
      <trkpt lat="62.636185793253" lon="17.984416534432">
        <ele>88.6</ele>
        <time>2018-02-22T18:28:15Z</time>
      </trkpt>
      <trkpt lat="62.636179087733" lon="17.984478895768">
        <ele>88.6</ele>
        <time>2018-02-22T18:28:16Z</time>
      </trkpt>
      <trkpt lat="62.636171208747" lon="17.984538658715">
        <ele>88.6</ele>
        <time>2018-02-22T18:28:17Z</time>
      </trkpt>
      <trkpt lat="62.636165592874" lon="17.984580568215">
        <ele>88.8</ele>
        <time>2018-02-22T18:28:18Z</time>
      </trkpt>
      <trkpt lat="62.636157797707" lon="17.984631613986">
        <ele>89</ele>
        <time>2018-02-22T18:28:19Z</time>
      </trkpt>
      <trkpt lat="62.63615503168" lon="17.984701938127">
        <ele>89</ele>
        <time>2018-02-22T18:28:20Z</time>
      </trkpt>
      <trkpt lat="62.636153439119" lon="17.984746529835">
        <ele>89.2</ele>
        <time>2018-02-22T18:28:21Z</time>
      </trkpt>
      <trkpt lat="62.636148577617" lon="17.984807969162">
        <ele>89.2</ele>
        <time>2018-02-22T18:28:22Z</time>
      </trkpt>
      <trkpt lat="62.63614162064" lon="17.984862870607">
        <ele>89.4</ele>
        <time>2018-02-22T18:28:23Z</time>
      </trkpt>
      <trkpt lat="62.636138686975" lon="17.984906540306">
        <ele>89.4</ele>
        <time>2018-02-22T18:28:24Z</time>
      </trkpt>
      <trkpt lat="62.636137513509" lon="17.984955490602">
        <ele>89.6</ele>
        <time>2018-02-22T18:28:25Z</time>
      </trkpt>
      <trkpt lat="62.636141453002" lon="17.985020869422">
        <ele>89.6</ele>
        <time>2018-02-22T18:28:26Z</time>
      </trkpt>
      <trkpt lat="62.636135501853" lon="17.985077698704">
        <ele>89.8</ele>
        <time>2018-02-22T18:28:27Z</time>
      </trkpt>
      <trkpt lat="62.636137764966" lon="17.985118350919">
        <ele>90</ele>
        <time>2018-02-22T18:28:28Z</time>
      </trkpt>
      <trkpt lat="62.636132903464" lon="17.985169648147">
        <ele>90</ele>
        <time>2018-02-22T18:28:29Z</time>
      </trkpt>
      <trkpt lat="62.636127287591" lon="17.985233518225">
        <ele>90.2</ele>
        <time>2018-02-22T18:28:30Z</time>
      </trkpt>
      <trkpt lat="62.636126952315" lon="17.985269560395">
        <ele>90.4</ele>
        <time>2018-02-22T18:28:31Z</time>
      </trkpt>
      <trkpt lat="62.636130556532" lon="17.985329323342">
        <ele>90.4</ele>
        <time>2018-02-22T18:28:32Z</time>
      </trkpt>
      <trkpt lat="62.636132484369" lon="17.98536804772">
        <ele>90.6</ele>
        <time>2018-02-22T18:28:33Z</time>
      </trkpt>
      <trkpt lat="62.636128880152" lon="17.985407275012">
        <ele>90.6</ele>
        <time>2018-02-22T18:28:34Z</time>
      </trkpt>
      <trkpt lat="62.636121671718" lon="17.985466032131">
        <ele>90.6</ele>
        <time>2018-02-22T18:28:35Z</time>
      </trkpt>
      <trkpt lat="62.636115720569" lon="17.985512886952">
        <ele>90.6</ele>
        <time>2018-02-22T18:28:36Z</time>
      </trkpt>
      <trkpt lat="62.636105075556" lon="17.985566447293">
        <ele>90.8</ele>
        <time>2018-02-22T18:28:37Z</time>
      </trkpt>
      <trkpt lat="62.636091748335" lon="17.985632412846">
        <ele>90.8</ele>
        <time>2018-02-22T18:28:38Z</time>
      </trkpt>
      <trkpt lat="62.636085042815" lon="17.985671807776">
        <ele>90.8</ele>
        <time>2018-02-22T18:28:39Z</time>
      </trkpt>
      <trkpt lat="62.636070039214" lon="17.985719081692">
        <ele>90.8</ele>
        <time>2018-02-22T18:28:40Z</time>
      </trkpt>
      <trkpt lat="62.63605444888" lon="17.98576702616">
        <ele>90.8</ele>
        <time>2018-02-22T18:28:41Z</time>
      </trkpt>
      <trkpt lat="62.63603852327" lon="17.985813461886">
        <ele>90.8</ele>
        <time>2018-02-22T18:28:42Z</time>
      </trkpt>
      <trkpt lat="62.636022430022" lon="17.985851850988">
        <ele>90.8</ele>
        <time>2018-02-22T18:28:43Z</time>
      </trkpt>
      <trkpt lat="62.636002313462" lon="17.98588353457">
        <ele>91</ele>
        <time>2018-02-22T18:28:44Z</time>
      </trkpt>
      <trkpt lat="62.635979179418" lon="17.985917565084">
        <ele>91</ele>
        <time>2018-02-22T18:28:45Z</time>
      </trkpt>
      <trkpt lat="62.635964175817" lon="17.985938268377">
        <ele>91.4</ele>
        <time>2018-02-22T18:28:46Z</time>
      </trkpt>
      <trkpt lat="62.635942299058" lon="17.985963665534">
        <ele>91.4</ele>
        <time>2018-02-22T18:28:47Z</time>
      </trkpt>
      <trkpt lat="62.635921344308" lon="17.985995768211">
        <ele>91.6</ele>
        <time>2018-02-22T18:28:48Z</time>
      </trkpt>
      <trkpt lat="62.635906256888" lon="17.986015800952">
        <ele>91.6</ele>
        <time>2018-02-22T18:28:49Z</time>
      </trkpt>
      <trkpt lat="62.635880608274" lon="17.986035582236">
        <ele>91.6</ele>
        <time>2018-02-22T18:28:50Z</time>
      </trkpt>
      <trkpt lat="62.635857977144" lon="17.986054022416">
        <ele>91.8</ele>
        <time>2018-02-22T18:28:51Z</time>
      </trkpt>
      <trkpt lat="62.635840878068" lon="17.986066679085">
        <ele>92</ele>
        <time>2018-02-22T18:28:52Z</time>
      </trkpt>
      <trkpt lat="62.635820929146" lon="17.98608889112">
        <ele>91.8</ele>
        <time>2018-02-22T18:28:53Z</time>
      </trkpt>
      <trkpt lat="62.635798465654" lon="17.986112611897">
        <ele>92</ele>
        <time>2018-02-22T18:28:54Z</time>
      </trkpt>
      <trkpt lat="62.635778013818" lon="17.986140104529">
        <ele>92</ele>
        <time>2018-02-22T18:28:55Z</time>
      </trkpt>
      <trkpt lat="62.635760998561" lon="17.986167597161">
        <ele>92.2</ele>
        <time>2018-02-22T18:28:56Z</time>
      </trkpt>
      <trkpt lat="62.635743983304" lon="17.986191485576">
        <ele>92.2</ele>
        <time>2018-02-22T18:28:57Z</time>
      </trkpt>
      <trkpt lat="62.635728812065" lon="17.98621545781">
        <ele>92.4</ele>
        <time>2018-02-22T18:28:58Z</time>
      </trkpt>
      <trkpt lat="62.635715568663" lon="17.986239849139">
        <ele>92.4</ele>
        <time>2018-02-22T18:28:59Z</time>
      </trkpt>
      <trkpt lat="62.63569654175" lon="17.986278741155">
        <ele>92.6</ele>
        <time>2018-02-22T18:29:00Z</time>
      </trkpt>
      <trkpt lat="62.635679610312" lon="17.986325176881">
        <ele>92.6</ele>
        <time>2018-02-22T18:29:01Z</time>
      </trkpt>
      <trkpt lat="62.635666450729" lon="17.986359542671">
        <ele>92.8</ele>
        <time>2018-02-22T18:29:02Z</time>
      </trkpt>
      <trkpt lat="62.635646166531" lon="17.986408073872">
        <ele>93.2</ele>
        <time>2018-02-22T18:29:03Z</time>
      </trkpt>
      <trkpt lat="62.63562948655" lon="17.986453419951">
        <ele>93.6</ele>
        <time>2018-02-22T18:29:04Z</time>
      </trkpt>
      <trkpt lat="62.635614734406" lon="17.986501196781">
        <ele>93.8</ele>
        <time>2018-02-22T18:29:05Z</time>
      </trkpt>
      <trkpt lat="62.63559763533" lon="17.986549644163">
        <ele>93.8</ele>
        <time>2018-02-22T18:29:06Z</time>
      </trkpt>
      <trkpt lat="62.635583805195" lon="17.986601192848">
        <ele>94</ele>
        <time>2018-02-22T18:29:07Z</time>
      </trkpt>
      <trkpt lat="62.635567711947" lon="17.986645114004">
        <ele>93.8</ele>
        <time>2018-02-22T18:29:08Z</time>
      </trkpt>
      <trkpt lat="62.635558156581" lon="17.986687107323">
        <ele>93.8</ele>
        <time>2018-02-22T18:29:09Z</time>
      </trkpt>
      <trkpt lat="62.635544410265" lon="17.986739410379">
        <ele>93.8</ele>
        <time>2018-02-22T18:29:10Z</time>
      </trkpt>
      <trkpt lat="62.635530496311" lon="17.986772602703">
        <ele>94</ele>
        <time>2018-02-22T18:29:11Z</time>
      </trkpt>
      <trkpt lat="62.635513061959" lon="17.986806046484">
        <ele>94</ele>
        <time>2018-02-22T18:29:12Z</time>
      </trkpt>
      <trkpt lat="62.635494454141" lon="17.986849883821">
        <ele>94.2</ele>
        <time>2018-02-22T18:29:13Z</time>
      </trkpt>
      <trkpt lat="62.635483138576" lon="17.986895816633">
        <ele>94.4</ele>
        <time>2018-02-22T18:29:14Z</time>
      </trkpt>
      <trkpt lat="62.635467799699" lon="17.986947113861">
        <ele>94.6</ele>
        <time>2018-02-22T18:29:15Z</time>
      </trkpt>
      <trkpt lat="62.635454221021" lon="17.986991789388">
        <ele>94.8</ele>
        <time>2018-02-22T18:29:16Z</time>
      </trkpt>
      <trkpt lat="62.635441480533" lon="17.987027161006">
        <ele>94.8</ele>
        <time>2018-02-22T18:29:17Z</time>
      </trkpt>
      <trkpt lat="62.635425303466" lon="17.987059096045">
        <ele>95</ele>
        <time>2018-02-22T18:29:18Z</time>
      </trkpt>
      <trkpt lat="62.635404516354" lon="17.987087007772">
        <ele>95</ele>
        <time>2018-02-22T18:29:19Z</time>
      </trkpt>
      <trkpt lat="62.635385154165" lon="17.987122714666">
        <ele>95</ele>
        <time>2018-02-22T18:29:20Z</time>
      </trkpt>
      <trkpt lat="62.635369815288" lon="17.987153811515">
        <ele>95.2</ele>
        <time>2018-02-22T18:29:21Z</time>
      </trkpt>
      <trkpt lat="62.6353486929" lon="17.987187590572">
        <ele>95</ele>
        <time>2018-02-22T18:29:22Z</time>
      </trkpt>
      <trkpt lat="62.635329582168" lon="17.987230924995">
        <ele>95</ele>
        <time>2018-02-22T18:29:23Z</time>
      </trkpt>
      <trkpt lat="62.635316925499" lon="17.987264284957">
        <ele>95.2</ele>
        <time>2018-02-22T18:29:24Z</time>
      </trkpt>
      <trkpt lat="62.635299155871" lon="17.987302087326">
        <ele>95.2</ele>
        <time>2018-02-22T18:29:25Z</time>
      </trkpt>
      <trkpt lat="62.635277111474" lon="17.987346762853">
        <ele>95.2</ele>
        <time>2018-02-22T18:29:26Z</time>
      </trkpt>
      <trkpt lat="62.635259593303" lon="17.987372243829">
        <ele>95.4</ele>
        <time>2018-02-22T18:29:27Z</time>
      </trkpt>
      <trkpt lat="62.635240734028" lon="17.987405017058">
        <ele>95.6</ele>
        <time>2018-02-22T18:29:28Z</time>
      </trkpt>
      <trkpt lat="62.63521709707" lon="17.987438628477">
        <ele>95.8</ele>
        <time>2018-02-22T18:29:29Z</time>
      </trkpt>
      <trkpt lat="62.635194717397" lon="17.9874651991">
        <ele>96</ele>
        <time>2018-02-22T18:29:30Z</time>
      </trkpt>
      <trkpt lat="62.635178456511" lon="17.987490596257">
        <ele>96.2</ele>
        <time>2018-02-22T18:29:31Z</time>
      </trkpt>
      <trkpt lat="62.635163117634" lon="17.987520268183">
        <ele>96.2</ele>
        <time>2018-02-22T18:29:32Z</time>
      </trkpt>
      <trkpt lat="62.635140989418" lon="17.987553376688">
        <ele>96.4</ele>
        <time>2018-02-22T18:29:33Z</time>
      </trkpt>
      <trkpt lat="62.635122130143" lon="17.987585982279">
        <ele>96.6</ele>
        <time>2018-02-22T18:29:34Z</time>
      </trkpt>
      <trkpt lat="62.635101510669" lon="17.987623700829">
        <ele>96.6</ele>
        <time>2018-02-22T18:29:35Z</time>
      </trkpt>
      <trkpt lat="62.635088602543" lon="17.987653708031">
        <ele>96.8</ele>
        <time>2018-02-22T18:29:36Z</time>
      </trkpt>
      <trkpt lat="62.635060942273" lon="17.98769318678">
        <ele>96.8</ele>
        <time>2018-02-22T18:29:37Z</time>
      </trkpt>
      <trkpt lat="62.635038730238" lon="17.987734593366">
        <ele>97</ele>
        <time>2018-02-22T18:29:38Z</time>
      </trkpt>
      <trkpt lat="62.635028336682" lon="17.987764013835">
        <ele>97</ele>
        <time>2018-02-22T18:29:39Z</time>
      </trkpt>
      <trkpt lat="62.635005957009" lon="17.987793350485">
        <ele>97</ele>
        <time>2018-02-22T18:29:40Z</time>
      </trkpt>
      <trkpt lat="62.634977626187" lon="17.987827716275">
        <ele>97.2</ele>
        <time>2018-02-22T18:29:41Z</time>
      </trkpt>
      <trkpt lat="62.634962371129" lon="17.9878591484">
        <ele>97.2</ele>
        <time>2018-02-22T18:29:42Z</time>
      </trkpt>
      <trkpt lat="62.634941248741" lon="17.987888987964">
        <ele>97.4</ele>
        <time>2018-02-22T18:29:43Z</time>
      </trkpt>
      <trkpt lat="62.634918617611" lon="17.987917905519">
        <ele>97.4</ele>
        <time>2018-02-22T18:29:44Z</time>
      </trkpt>
      <trkpt lat="62.634896237938" lon="17.98793877645">
        <ele>97.6</ele>
        <time>2018-02-22T18:29:45Z</time>
      </trkpt>
      <trkpt lat="62.634881904889" lon="17.98795386387">
        <ele>97.6</ele>
        <time>2018-02-22T18:29:46Z</time>
      </trkpt>
      <trkpt lat="62.634862375062" lon="17.987978506656">
        <ele>97.8</ele>
        <time>2018-02-22T18:29:47Z</time>
      </trkpt>
      <trkpt lat="62.634839995389" lon="17.988000383415">
        <ele>98</ele>
        <time>2018-02-22T18:29:48Z</time>
      </trkpt>
      <trkpt lat="62.634820884657" lon="17.98801672812">
        <ele>98</ele>
        <time>2018-02-22T18:29:49Z</time>
      </trkpt>
      <trkpt lat="62.634795403681" lon="17.988028965694">
        <ele>98.2</ele>
        <time>2018-02-22T18:29:50Z</time>
      </trkpt>
      <trkpt lat="62.6347703418" lon="17.988042376734">
        <ele>98.4</ele>
        <time>2018-02-22T18:29:51Z</time>
      </trkpt>
      <trkpt lat="62.6347451961" lon="17.988060900733">
        <ele>98.6</ele>
        <time>2018-02-22T18:29:52Z</time>
      </trkpt>
      <trkpt lat="62.634723235522" lon="17.988071126651">
        <ele>98.6</ele>
        <time>2018-02-22T18:29:53Z</time>
      </trkpt>
      <trkpt lat="62.634698592736" lon="17.988080011465">
        <ele>98.8</ele>
        <time>2018-02-22T18:29:54Z</time>
      </trkpt>
      <trkpt lat="62.634673698493" lon="17.988088477184">
        <ele>98.8</ele>
        <time>2018-02-22T18:29:55Z</time>
      </trkpt>
      <trkpt lat="62.634658443435" lon="17.988108426106">
        <ele>98.8</ele>
        <time>2018-02-22T18:29:56Z</time>
      </trkpt>
      <trkpt lat="62.634639332703" lon="17.988113539065">
        <ele>99</ele>
        <time>2018-02-22T18:29:57Z</time>
      </trkpt>
      <trkpt lat="62.634618545591" lon="17.988115718359">
        <ele>99</ele>
        <time>2018-02-22T18:29:58Z</time>
      </trkpt>
      <trkpt lat="62.634602200886" lon="17.98811563454">
        <ele>99.2</ele>
        <time>2018-02-22T18:29:59Z</time>
      </trkpt>
      <trkpt lat="62.634583844525" lon="17.988133068892">
        <ele>99.4</ele>
        <time>2018-02-22T18:30:00Z</time>
      </trkpt>
      <trkpt lat="62.63455827973" lon="17.988143462448">
        <ele>99.4</ele>
        <time>2018-02-22T18:30:01Z</time>
      </trkpt>
      <trkpt lat="62.634532379659" lon="17.988149078321">
        <ele>99.4</ele>
        <time>2018-02-22T18:30:02Z</time>
      </trkpt>
      <trkpt lat="62.634511424909" lon="17.988155280927">
        <ele>99.6</ele>
        <time>2018-02-22T18:30:03Z</time>
      </trkpt>
      <trkpt lat="62.634486614485" lon="17.988162405542">
        <ele>99.8</ele>
        <time>2018-02-22T18:30:04Z</time>
      </trkpt>
      <trkpt lat="62.634456439645" lon="17.988165171569">
        <ele>99.8</ele>
        <time>2018-02-22T18:30:05Z</time>
      </trkpt>
      <trkpt lat="62.634436155447" lon="17.988169697795">
        <ele>100</ele>
        <time>2018-02-22T18:30:06Z</time>
      </trkpt>
      <trkpt lat="62.634409165729" lon="17.988172044727">
        <ele>100</ele>
        <time>2018-02-22T18:30:07Z</time>
      </trkpt>
      <trkpt lat="62.634382678925" lon="17.988170787442">
        <ele>100.2</ele>
        <time>2018-02-22T18:30:08Z</time>
      </trkpt>
      <trkpt lat="62.634365076935" lon="17.988178666428">
        <ele>100.2</ele>
        <time>2018-02-22T18:30:09Z</time>
      </trkpt>
      <trkpt lat="62.634337751941" lon="17.988185036672">
        <ele>100.2</ele>
        <time>2018-02-22T18:30:10Z</time>
      </trkpt>
      <trkpt lat="62.634307325644" lon="17.988188305613">
        <ele>100.2</ele>
        <time>2018-02-22T18:30:11Z</time>
      </trkpt>
      <trkpt lat="62.634280503564" lon="17.988194759676">
        <ele>100.4</ele>
        <time>2018-02-22T18:30:12Z</time>
      </trkpt>
      <trkpt lat="62.634244042299" lon="17.988192496563">
        <ele>100.4</ele>
        <time>2018-02-22T18:30:13Z</time>
      </trkpt>
      <trkpt lat="62.634213699821" lon="17.988189562898">
        <ele>100.4</ele>
        <time>2018-02-22T18:30:14Z</time>
      </trkpt>
      <trkpt lat="62.634192912709" lon="17.988188221794">
        <ele>100.6</ele>
        <time>2018-02-22T18:30:15Z</time>
      </trkpt>
      <trkpt lat="62.634168269923" lon="17.988181516274">
        <ele>100.8</ele>
        <time>2018-02-22T18:30:16Z</time>
      </trkpt>
      <trkpt lat="62.634142705128" lon="17.988179169342">
        <ele>100.8</ele>
        <time>2018-02-22T18:30:17Z</time>
      </trkpt>
      <trkpt lat="62.634118816713" lon="17.988176235677">
        <ele>100.8</ele>
        <time>2018-02-22T18:30:18Z</time>
      </trkpt>
      <trkpt lat="62.634092581366" lon="17.988161651171">
        <ele>100.8</ele>
        <time>2018-02-22T18:30:19Z</time>
      </trkpt>
      <trkpt lat="62.634063663811" lon="17.988148156312">
        <ele>100.8</ele>
        <time>2018-02-22T18:30:20Z</time>
      </trkpt>
      <trkpt lat="62.634042876699" lon="17.988141366973">
        <ele>100.8</ele>
        <time>2018-02-22T18:30:21Z</time>
      </trkpt>
      <trkpt lat="62.634016222257" lon="17.988120747499">
        <ele>100.8</ele>
        <time>2018-02-22T18:30:22Z</time>
      </trkpt>
      <trkpt lat="62.633988142892" lon="17.988102810233">
        <ele>101</ele>
        <time>2018-02-22T18:30:23Z</time>
      </trkpt>
      <trkpt lat="62.633962578097" lon="17.988091913763">
        <ele>101</ele>
        <time>2018-02-22T18:30:24Z</time>
      </trkpt>
      <trkpt lat="62.633935085465" lon="17.988073222126">
        <ele>101</ele>
        <time>2018-02-22T18:30:25Z</time>
      </trkpt>
      <trkpt lat="62.633905916453" lon="17.988047070598">
        <ele>101.2</ele>
        <time>2018-02-22T18:30:26Z</time>
      </trkpt>
      <trkpt lat="62.633883620599" lon="17.988025864391">
        <ele>101.2</ele>
        <time>2018-02-22T18:30:27Z</time>
      </trkpt>
      <trkpt lat="62.633863671677" lon="17.988008010944">
        <ele>101.4</ele>
        <time>2018-02-22T18:30:28Z</time>
      </trkpt>
      <trkpt lat="62.633836430502" lon="17.987983284339">
        <ele>101.4</ele>
        <time>2018-02-22T18:30:29Z</time>
      </trkpt>
      <trkpt lat="62.633810362793" lon="17.987958473915">
        <ele>101.4</ele>
        <time>2018-02-22T18:30:30Z</time>
      </trkpt>
      <trkpt lat="62.633784211265" lon="17.987939698459">
        <ele>101.6</ele>
        <time>2018-02-22T18:30:31Z</time>
      </trkpt>
      <trkpt lat="62.633757137728" lon="17.987910194171">
        <ele>101.8</ele>
        <time>2018-02-22T18:30:32Z</time>
      </trkpt>
      <trkpt lat="62.633729896553" lon="17.987881947168">
        <ele>102</ele>
        <time>2018-02-22T18:30:33Z</time>
      </trkpt>
      <trkpt lat="62.633714054762" lon="17.987867865576">
        <ele>102.2</ele>
        <time>2018-02-22T18:30:34Z</time>
      </trkpt>
      <trkpt lat="62.633686310673" lon="17.987833667424">
        <ele>102.2</ele>
        <time>2018-02-22T18:30:35Z</time>
      </trkpt>
      <trkpt lat="62.633660662059" lon="17.987799888367">
        <ele>102.2</ele>
        <time>2018-02-22T18:30:36Z</time>
      </trkpt>
      <trkpt lat="62.633639958766" lon="17.987773401563">
        <ele>102.2</ele>
        <time>2018-02-22T18:30:37Z</time>
      </trkpt>
      <trkpt lat="62.633618333464" lon="17.987746579483">
        <ele>102.2</ele>
        <time>2018-02-22T18:30:38Z</time>
      </trkpt>
      <trkpt lat="62.63360022856" lon="17.987718835394">
        <ele>102.4</ele>
        <time>2018-02-22T18:30:39Z</time>
      </trkpt>
      <trkpt lat="62.63358178838" lon="17.987688744373">
        <ele>102.6</ele>
        <time>2018-02-22T18:30:40Z</time>
      </trkpt>
      <trkpt lat="62.633567036236" lon="17.987664269225">
        <ele>102.8</ele>
        <time>2018-02-22T18:30:41Z</time>
      </trkpt>
      <trkpt lat="62.633545327115" lon="17.987634178204">
        <ele>103</ele>
        <time>2018-02-22T18:30:42Z</time>
      </trkpt>
      <trkpt lat="62.633524120908" lon="17.987613726368">
        <ele>103.4</ele>
        <time>2018-02-22T18:30:43Z</time>
      </trkpt>
      <trkpt lat="62.633510123135" lon="17.987593106894">
        <ele>103.6</ele>
        <time>2018-02-22T18:30:44Z</time>
      </trkpt>
      <trkpt lat="62.633482798141" lon="17.987552035584">
        <ele>103.6</ele>
        <time>2018-02-22T18:30:45Z</time>
      </trkpt>
      <trkpt lat="62.633459580278" lon="17.987513981758">
        <ele>103.8</ele>
        <time>2018-02-22T18:30:46Z</time>
      </trkpt>
      <trkpt lat="62.633441391555" lon="17.987478107226">
        <ele>103.8</ele>
        <time>2018-02-22T18:30:47Z</time>
      </trkpt>
      <trkpt lat="62.633419430977" lon="17.987443909074">
        <ele>103.8</ele>
        <time>2018-02-22T18:30:48Z</time>
      </trkpt>
      <trkpt lat="62.633398476227" lon="17.987417254632">
        <ele>103.8</ele>
        <time>2018-02-22T18:30:49Z</time>
      </trkpt>
      <trkpt lat="62.633378694943" lon="17.987385068136">
        <ele>104</ele>
        <time>2018-02-22T18:30:50Z</time>
      </trkpt>
      <trkpt lat="62.633361092953" lon="17.987354474201">
        <ele>104.2</ele>
        <time>2018-02-22T18:30:51Z</time>
      </trkpt>
      <trkpt lat="62.633340808755" lon="17.987318432031">
        <ele>104.4</ele>
        <time>2018-02-22T18:30:52Z</time>
      </trkpt>
      <trkpt lat="62.633317004159" lon="17.987271912486">
        <ele>104.6</ele>
        <time>2018-02-22T18:30:53Z</time>
      </trkpt>
      <trkpt lat="62.633294875943" lon="17.987217430136">
        <ele>105</ele>
        <time>2018-02-22T18:30:54Z</time>
      </trkpt>
      <trkpt lat="62.63327417265" lon="17.987156242266">
        <ele>105</ele>
        <time>2018-02-22T18:30:55Z</time>
      </trkpt>
      <trkpt lat="62.63324902695" lon="17.987069908696">
        <ele>105.2</ele>
        <time>2018-02-22T18:30:56Z</time>
      </trkpt>
      <trkpt lat="62.63322555763" lon="17.986970499362">
        <ele>105</ele>
        <time>2018-02-22T18:30:57Z</time>
      </trkpt>
      <trkpt lat="62.633206446898" lon="17.986871257666">
        <ele>104.2</ele>
        <time>2018-02-22T18:30:58Z</time>
      </trkpt>
      <trkpt lat="62.633191862392" lon="17.986789953236">
        <ele>103.6</ele>
        <time>2018-02-22T18:30:59Z</time>
      </trkpt>
      <trkpt lat="62.633169231262" lon="17.986670092066">
        <ele>103</ele>
        <time>2018-02-22T18:31:00Z</time>
      </trkpt>
      <trkpt lat="62.633157328964" lon="17.986585602514">
        <ele>102.4</ele>
        <time>2018-02-22T18:31:01Z</time>
      </trkpt>
      <trkpt lat="62.633146516313" lon="17.986491641415">
        <ele>102</ele>
        <time>2018-02-22T18:31:02Z</time>
      </trkpt>
      <trkpt lat="62.633135200748" lon="17.986400865438">
        <ele>102</ele>
        <time>2018-02-22T18:31:03Z</time>
      </trkpt>
      <trkpt lat="62.63313168035" lon="17.986340096663">
        <ele>102</ele>
        <time>2018-02-22T18:31:04Z</time>
      </trkpt>
      <trkpt lat="62.633127992314" lon="17.98624563265">
        <ele>102</ele>
        <time>2018-02-22T18:31:05Z</time>
      </trkpt>
      <trkpt lat="62.63312162207" lon="17.986137422321">
        <ele>102</ele>
        <time>2018-02-22T18:31:06Z</time>
      </trkpt>
      <trkpt lat="62.633123969002" lon="17.986036839521">
        <ele>102.2</ele>
        <time>2018-02-22T18:31:07Z</time>
      </trkpt>
      <trkpt lat="62.633122124984" lon="17.985932233409">
        <ele>102</ele>
        <time>2018-02-22T18:31:08Z</time>
      </trkpt>
      <trkpt lat="62.633120616242" lon="17.985828716944">
        <ele>101.6</ele>
        <time>2018-02-22T18:31:09Z</time>
      </trkpt>
      <trkpt lat="62.633113072532" lon="17.985726541583">
        <ele>101</ele>
        <time>2018-02-22T18:31:10Z</time>
      </trkpt>
      <trkpt lat="62.633117682577" lon="17.985635597968">
        <ele>100.8</ele>
        <time>2018-02-22T18:31:11Z</time>
      </trkpt>
      <trkpt lat="62.633124555735" lon="17.985533925521">
        <ele>100.4</ele>
        <time>2018-02-22T18:31:12Z</time>
      </trkpt>
      <trkpt lat="62.633126064477" lon="17.985443903915">
        <ele>100.2</ele>
        <time>2018-02-22T18:31:13Z</time>
      </trkpt>
      <trkpt lat="62.633128914323" lon="17.985357235069">
        <ele>100.2</ele>
        <time>2018-02-22T18:31:14Z</time>
      </trkpt>
      <trkpt lat="62.633128830504" lon="17.985241816306">
        <ele>100</ele>
        <time>2018-02-22T18:31:15Z</time>
      </trkpt>
      <trkpt lat="62.633141570992" lon="17.98512161986">
        <ele>100</ele>
        <time>2018-02-22T18:31:16Z</time>
      </trkpt>
      <trkpt lat="62.633157580421" lon="17.985006117278">
        <ele>99.4</ele>
        <time>2018-02-22T18:31:17Z</time>
      </trkpt>
      <trkpt lat="62.633177445524" lon="17.984886591384">
        <ele>98.4</ele>
        <time>2018-02-22T18:31:18Z</time>
      </trkpt>
      <trkpt lat="62.633197478265" lon="17.984793384656">
        <ele>97.8</ele>
        <time>2018-02-22T18:31:19Z</time>
      </trkpt>
      <trkpt lat="62.633218600653" lon="17.984675618961">
        <ele>97</ele>
        <time>2018-02-22T18:31:20Z</time>
      </trkpt>
      <trkpt lat="62.633240477412" lon="17.984564810243">
        <ele>96.2</ele>
        <time>2018-02-22T18:31:21Z</time>
      </trkpt>
      <trkpt lat="62.633267634768" lon="17.984477638483">
        <ele>96.2</ele>
        <time>2018-02-22T18:31:22Z</time>
      </trkpt>
      <trkpt lat="62.633288170423" lon="17.984395914958">
        <ele>96</ele>
        <time>2018-02-22T18:31:23Z</time>
      </trkpt>
      <trkpt lat="62.633309963363" lon="17.98431444289">
        <ele>96.2</ele>
        <time>2018-02-22T18:31:24Z</time>
      </trkpt>
      <trkpt lat="62.633323290584" lon="17.984227941682">
        <ele>96.6</ele>
        <time>2018-02-22T18:31:25Z</time>
      </trkpt>
      <trkpt lat="62.633326475706" lon="17.984160383568">
        <ele>96.6</ele>
        <time>2018-02-22T18:31:26Z</time>
      </trkpt>
      <trkpt lat="62.633334857606" lon="17.984076983663">
        <ele>97</ele>
        <time>2018-02-22T18:31:27Z</time>
      </trkpt>
      <trkpt lat="62.633338042728" lon="17.984003306762">
        <ele>96.8</ele>
        <time>2018-02-22T18:31:28Z</time>
      </trkpt>
      <trkpt lat="62.633344915886" lon="17.983948824412">
        <ele>97.2</ele>
        <time>2018-02-22T18:31:29Z</time>
      </trkpt>
      <trkpt lat="62.633354806528" lon="17.983870034552">
        <ele>97</ele>
        <time>2018-02-22T18:31:30Z</time>
      </trkpt>
      <trkpt lat="62.633366122093" lon="17.983807673216">
        <ele>97</ele>
        <time>2018-02-22T18:31:31Z</time>
      </trkpt>
      <trkpt lat="62.633374168717" lon="17.983753945237">
        <ele>97</ele>
        <time>2018-02-22T18:31:32Z</time>
      </trkpt>
      <trkpt lat="62.633384310816" lon="17.98368999134">
        <ele>97</ele>
        <time>2018-02-22T18:31:33Z</time>
      </trkpt>
      <trkpt lat="62.633392189802" lon="17.983627462366">
        <ele>97</ele>
        <time>2018-02-22T18:31:34Z</time>
      </trkpt>
      <trkpt lat="62.633403673005" lon="17.983568537609">
        <ele>97</ele>
        <time>2018-02-22T18:31:35Z</time>
      </trkpt>
      <trkpt lat="62.63341750314" lon="17.983503242608">
        <ele>97</ele>
        <time>2018-02-22T18:31:36Z</time>
      </trkpt>
      <trkpt lat="62.633428986343" lon="17.983433924295">
        <ele>97</ele>
        <time>2018-02-22T18:31:37Z</time>
      </trkpt>
      <trkpt lat="62.633441140098" lon="17.983376927375">
        <ele>97.2</ele>
        <time>2018-02-22T18:31:38Z</time>
      </trkpt>
      <trkpt lat="62.633456395156" lon="17.983315404229">
        <ele>97.2</ele>
        <time>2018-02-22T18:31:39Z</time>
      </trkpt>
      <trkpt lat="62.633463016857" lon="17.983252875255">
        <ele>97.2</ele>
        <time>2018-02-22T18:31:40Z</time>
      </trkpt>
      <trkpt lat="62.633479613019" lon="17.983190094824">
        <ele>97.2</ele>
        <time>2018-02-22T18:31:41Z</time>
      </trkpt>
      <trkpt lat="62.633490258032" lon="17.983117088475">
        <ele>97.2</ele>
        <time>2018-02-22T18:31:42Z</time>
      </trkpt>
      <trkpt lat="62.633503333796" lon="17.983055565329">
        <ele>97.4</ele>
        <time>2018-02-22T18:31:43Z</time>
      </trkpt>
      <trkpt lat="62.633518421216" lon="17.98299177907">
        <ele>97.4</ele>
        <time>2018-02-22T18:31:44Z</time>
      </trkpt>
      <trkpt lat="62.633533592455" lon="17.982910642278">
        <ele>97.4</ele>
        <time>2018-02-22T18:31:45Z</time>
      </trkpt>
      <trkpt lat="62.633544153649" lon="17.982851549883">
        <ele>97.4</ele>
        <time>2018-02-22T18:31:46Z</time>
      </trkpt>
      <trkpt lat="62.633561839458" lon="17.982781812475">
        <ele>97.4</ele>
        <time>2018-02-22T18:31:47Z</time>
      </trkpt>
      <trkpt lat="62.633572652109" lon="17.982711739791">
        <ele>97.4</ele>
        <time>2018-02-22T18:31:48Z</time>
      </trkpt>
      <trkpt lat="62.633578016525" lon="17.982669830291">
        <ele>97.4</ele>
        <time>2018-02-22T18:31:49Z</time>
      </trkpt>
      <trkpt lat="62.633593774497" lon="17.982599170874">
        <ele>97.2</ele>
        <time>2018-02-22T18:31:50Z</time>
      </trkpt>
      <trkpt lat="62.633606179709" lon="17.982527170353">
        <ele>97.2</ele>
        <time>2018-02-22T18:31:51Z</time>
      </trkpt>
      <trkpt lat="62.633614561609" lon="17.982478303876">
        <ele>97.4</ele>
        <time>2018-02-22T18:31:52Z</time>
      </trkpt>
      <trkpt lat="62.633631576866" lon="17.982406219536">
        <ele>97.4</ele>
        <time>2018-02-22T18:31:53Z</time>
      </trkpt>
      <trkpt lat="62.633635851635" lon="17.982342265639">
        <ele>97.4</ele>
        <time>2018-02-22T18:31:54Z</time>
      </trkpt>
      <trkpt lat="62.63364632901" lon="17.982277222095">
        <ele>97.4</ele>
        <time>2018-02-22T18:31:55Z</time>
      </trkpt>
      <trkpt lat="62.633653621263" lon="17.982204886298">
        <ele>97.4</ele>
        <time>2018-02-22T18:31:56Z</time>
      </trkpt>
      <trkpt lat="62.633668373407" lon="17.982137412003">
        <ele>97.4</ele>
        <time>2018-02-22T18:31:57Z</time>
      </trkpt>
      <trkpt lat="62.633678850782" lon="17.982076727047">
        <ele>97.4</ele>
        <time>2018-02-22T18:31:58Z</time>
      </trkpt>
      <trkpt lat="62.633686143035" lon="17.982021238869">
        <ele>97.4</ele>
        <time>2018-02-22T18:31:59Z</time>
      </trkpt>
      <trkpt lat="62.633691926546" lon="17.981960050999">
        <ele>97.6</ele>
        <time>2018-02-22T18:32:00Z</time>
      </trkpt>
      <trkpt lat="62.633698967342" lon="17.981908669952">
        <ele>97.6</ele>
        <time>2018-02-22T18:32:01Z</time>
      </trkpt>
      <trkpt lat="62.633706846328" lon="17.981842788218">
        <ele>97.6</ele>
        <time>2018-02-22T18:32:02Z</time>
      </trkpt>
      <trkpt lat="62.633709696174" lon="17.981784450194">
        <ele>97.6</ele>
        <time>2018-02-22T18:32:03Z</time>
      </trkpt>
      <trkpt lat="62.633715563504" lon="17.981733069147">
        <ele>97.6</ele>
        <time>2018-02-22T18:32:04Z</time>
      </trkpt>
      <trkpt lat="62.63371757516" lon="17.98165989516">
        <ele>97.6</ele>
        <time>2018-02-22T18:32:05Z</time>
      </trkpt>
      <trkpt lat="62.633713803305" lon="17.981597198548">
        <ele>97.8</ele>
        <time>2018-02-22T18:32:06Z</time>
      </trkpt>
      <trkpt lat="62.633721263196" lon="17.981530981538">
        <ele>97.8</ele>
        <time>2018-02-22T18:32:07Z</time>
      </trkpt>
      <trkpt lat="62.633728639268" lon="17.981460154483">
        <ele>97.6</ele>
        <time>2018-02-22T18:32:08Z</time>
      </trkpt>
      <trkpt lat="62.633731237657" lon="17.981407180875">
        <ele>97.8</ele>
        <time>2018-02-22T18:32:09Z</time>
      </trkpt>
      <trkpt lat="62.633745151611" lon="17.981339874218">
        <ele>97.8</ele>
        <time>2018-02-22T18:32:10Z</time>
      </trkpt>
      <trkpt lat="62.633750096932" lon="17.981277345244">
        <ele>97.8</ele>
        <time>2018-02-22T18:32:11Z</time>
      </trkpt>
      <trkpt lat="62.633754371701" lon="17.981228394948">
        <ele>97.6</ele>
        <time>2018-02-22T18:32:12Z</time>
      </trkpt>
      <trkpt lat="62.633769962035" lon="17.981165614517">
        <ele>97.8</ele>
        <time>2018-02-22T18:32:13Z</time>
      </trkpt>
      <trkpt lat="62.63378295398" lon="17.981112305633">
        <ele>97.6</ele>
        <time>2018-02-22T18:32:14Z</time>
      </trkpt>
      <trkpt lat="62.633797370848" lon="17.98106561845">
        <ele>97.8</ele>
        <time>2018-02-22T18:32:15Z</time>
      </trkpt>
      <trkpt lat="62.63381396701" lon="17.981030246832">
        <ele>97.8</ele>
        <time>2018-02-22T18:32:16Z</time>
      </trkpt>
      <trkpt lat="62.633835173217" lon="17.980986912409">
        <ele>98</ele>
        <time>2018-02-22T18:32:17Z</time>
      </trkpt>
      <trkpt lat="62.633858474899" lon="17.980936872466">
        <ele>98</ele>
        <time>2018-02-22T18:32:18Z</time>
      </trkpt>
      <trkpt lat="62.633879262011" lon="17.980897645174">
        <ele>98.2</ele>
        <time>2018-02-22T18:32:19Z</time>
      </trkpt>
      <trkpt lat="62.633898959476" lon="17.980852131457">
        <ele>98.4</ele>
        <time>2018-02-22T18:32:20Z</time>
      </trkpt>
      <trkpt lat="62.633919076036" lon="17.980803013523">
        <ele>98.4</ele>
        <time>2018-02-22T18:32:21Z</time>
      </trkpt>
      <trkpt lat="62.633937432397" lon="17.980749201725">
        <ele>98.4</ele>
        <time>2018-02-22T18:32:22Z</time>
      </trkpt>
      <trkpt lat="62.633953022731" lon="17.980697317764">
        <ele>98.6</ele>
        <time>2018-02-22T18:32:23Z</time>
      </trkpt>
      <trkpt lat="62.633969367436" lon="17.980655994997">
        <ele>98.4</ele>
        <time>2018-02-22T18:32:24Z</time>
      </trkpt>
      <trkpt lat="62.633990992738" lon="17.980594220394">
        <ele>98.6</ele>
        <time>2018-02-22T18:32:25Z</time>
      </trkpt>
      <trkpt lat="62.634003984683" lon="17.980553149084">
        <ele>98.8</ele>
        <time>2018-02-22T18:32:26Z</time>
      </trkpt>
      <trkpt lat="62.634018317732" lon="17.980507132453">
        <ele>98.8</ele>
        <time>2018-02-22T18:32:27Z</time>
      </trkpt>
      <trkpt lat="62.63403692555" lon="17.980447704782">
        <ele>98.8</ele>
        <time>2018-02-22T18:32:28Z</time>
      </trkpt>
      <trkpt lat="62.634052264427" lon="17.980399927952">
        <ele>98.8</ele>
        <time>2018-02-22T18:32:29Z</time>
      </trkpt>
      <trkpt lat="62.634066010743" lon="17.980350390923">
        <ele>98.8</ele>
        <time>2018-02-22T18:32:30Z</time>
      </trkpt>
      <trkpt lat="62.63408721695" lon="17.980302278817">
        <ele>98.8</ele>
        <time>2018-02-22T18:32:31Z</time>
      </trkpt>
      <trkpt lat="62.634109512804" lon="17.98024922139">
        <ele>98.8</ele>
        <time>2018-02-22T18:32:32Z</time>
      </trkpt>
      <trkpt lat="62.634130216097" lon="17.98020228275">
        <ele>98.8</ele>
        <time>2018-02-22T18:32:33Z</time>
      </trkpt>
      <trkpt lat="62.634147482811" lon="17.980168252236">
        <ele>98.8</ele>
        <time>2018-02-22T18:32:34Z</time>
      </trkpt>
      <trkpt lat="62.634168689018" lon="17.980119888673">
        <ele>99</ele>
        <time>2018-02-22T18:32:35Z</time>
      </trkpt>
      <trkpt lat="62.634197606573" lon="17.980069094359">
        <ele>99</ele>
        <time>2018-02-22T18:32:36Z</time>
      </trkpt>
      <trkpt lat="62.634214202735" lon="17.980017210398">
        <ele>99</ele>
        <time>2018-02-22T18:32:37Z</time>
      </trkpt>
      <trkpt lat="62.63423138563" lon="17.979987287015">
        <ele>99</ele>
        <time>2018-02-22T18:32:38Z</time>
      </trkpt>
      <trkpt lat="62.634254687312" lon="17.979935654511">
        <ele>99</ele>
        <time>2018-02-22T18:32:39Z</time>
      </trkpt>
      <trkpt lat="62.634270110008" lon="17.979871616795">
        <ele>99</ele>
        <time>2018-02-22T18:32:40Z</time>
      </trkpt>
      <trkpt lat="62.634280671202" lon="17.979816044798">
        <ele>99</ele>
        <time>2018-02-22T18:32:41Z</time>
      </trkpt>
      <trkpt lat="62.634301961228" lon="17.979747061761">
        <ele>99</ele>
        <time>2018-02-22T18:32:42Z</time>
      </trkpt>
      <trkpt lat="62.634312522422" lon="17.979682521131">
        <ele>99</ele>
        <time>2018-02-22T18:32:43Z</time>
      </trkpt>
      <trkpt lat="62.63432274834" lon="17.979628541695">
        <ele>98.8</ele>
        <time>2018-02-22T18:32:44Z</time>
      </trkpt>
      <trkpt lat="62.634337919579" lon="17.97955687645">
        <ele>99</ele>
        <time>2018-02-22T18:32:45Z</time>
      </trkpt>
      <trkpt lat="62.634345211832" lon="17.979468531224">
        <ele>99</ele>
        <time>2018-02-22T18:32:46Z</time>
      </trkpt>
      <trkpt lat="62.634356946492" lon="17.979447827931">
        <ele>98.8</ele>
        <time>2018-02-22T18:32:47Z</time>
      </trkpt>
      <trkpt lat="62.634373375016" lon="17.979358057782">
        <ele>98.8</ele>
        <time>2018-02-22T18:32:48Z</time>
      </trkpt>
      <trkpt lat="62.63438142164" lon="17.979313130798">
        <ele>98.8</ele>
        <time>2018-02-22T18:32:49Z</time>
      </trkpt>
      <trkpt lat="62.634396844336" lon="17.979244985951">
        <ele>99</ele>
        <time>2018-02-22T18:32:50Z</time>
      </trkpt>
      <trkpt lat="62.634407992263" lon="17.979185474461">
        <ele>98.8</ele>
        <time>2018-02-22T18:32:51Z</time>
      </trkpt>
      <trkpt lat="62.634415955068" lon="17.979144403151">
        <ele>98.8</ele>
        <time>2018-02-22T18:32:52Z</time>
      </trkpt>
      <trkpt lat="62.634433640877" lon="17.979084556385">
        <ele>99</ele>
        <time>2018-02-22T18:32:53Z</time>
      </trkpt>
      <trkpt lat="62.634445375537" lon="17.97901708209">
        <ele>98.8</ele>
        <time>2018-02-22T18:32:54Z</time>
      </trkpt>
      <trkpt lat="62.634453841256" lon="17.978962683559">
        <ele>99</ele>
        <time>2018-02-22T18:32:55Z</time>
      </trkpt>
      <trkpt lat="62.634470521237" lon="17.978883223147">
        <ele>99</ele>
        <time>2018-02-22T18:32:56Z</time>
      </trkpt>
      <trkpt lat="62.634480411879" lon="17.978834440489">
        <ele>99</ele>
        <time>2018-02-22T18:32:57Z</time>
      </trkpt>
      <trkpt lat="62.634491895082" lon="17.978787334211">
        <ele>99</ele>
        <time>2018-02-22T18:32:58Z</time>
      </trkpt>
      <trkpt lat="62.634503462104" lon="17.978702844659">
        <ele>99</ele>
        <time>2018-02-22T18:32:59Z</time>
      </trkpt>
      <trkpt lat="62.634510083805" lon="17.97864995487">
        <ele>99</ele>
        <time>2018-02-22T18:33:00Z</time>
      </trkpt>
      <trkpt lat="62.634524919768" lon="17.978576445607">
        <ele>99</ele>
        <time>2018-02-22T18:33:01Z</time>
      </trkpt>
      <trkpt lat="62.634533217849" lon="17.978514587185">
        <ele>99</ele>
        <time>2018-02-22T18:33:02Z</time>
      </trkpt>
      <trkpt lat="62.634542605577" lon="17.978447364347">
        <ele>99</ele>
        <time>2018-02-22T18:33:03Z</time>
      </trkpt>
      <trkpt lat="62.634550903658" lon="17.978382404622">
        <ele>99</ele>
        <time>2018-02-22T18:33:04Z</time>
      </trkpt>
      <trkpt lat="62.634566242535" lon="17.978307805712">
        <ele>98.8</ele>
        <time>2018-02-22T18:33:05Z</time>
      </trkpt>
      <trkpt lat="62.634581497593" lon="17.978218873753">
        <ele>98.6</ele>
        <time>2018-02-22T18:33:06Z</time>
      </trkpt>
      <trkpt lat="62.634593651348" lon="17.978140419169">
        <ele>98.4</ele>
        <time>2018-02-22T18:33:07Z</time>
      </trkpt>
      <trkpt lat="62.634606475655" lon="17.978077722557">
        <ele>98.4</ele>
        <time>2018-02-22T18:33:08Z</time>
      </trkpt>
      <trkpt lat="62.634618880867" lon="17.97797940287">
        <ele>98.2</ele>
        <time>2018-02-22T18:33:09Z</time>
      </trkpt>
      <trkpt lat="62.634633633011" lon="17.977906815616">
        <ele>98</ele>
        <time>2018-02-22T18:33:10Z</time>
      </trkpt>
      <trkpt lat="62.634639500341" lon="17.977837162027">
        <ele>98</ele>
        <time>2018-02-22T18:33:11Z</time>
      </trkpt>
      <trkpt lat="62.63465131882" lon="17.977768849542">
        <ele>97.8</ele>
        <time>2018-02-22T18:33:12Z</time>
      </trkpt>
      <trkpt lat="62.634659533082" lon="17.977708248405">
        <ele>97.8</ele>
        <time>2018-02-22T18:33:13Z</time>
      </trkpt>
      <trkpt lat="62.634674117588" lon="17.977630883468">
        <ele>97.6</ele>
        <time>2018-02-22T18:33:14Z</time>
      </trkpt>
      <trkpt lat="62.634680487832" lon="17.977556536015">
        <ele>97.6</ele>
        <time>2018-02-22T18:33:15Z</time>
      </trkpt>
      <trkpt lat="62.634686690438" lon="17.977492582118">
        <ele>97.6</ele>
        <time>2018-02-22T18:33:16Z</time>
      </trkpt>
      <trkpt lat="62.634704543885" lon="17.977403398702">
        <ele>97.6</ele>
        <time>2018-02-22T18:33:17Z</time>
      </trkpt>
      <trkpt lat="62.634722648789" lon="17.977325279394">
        <ele>97.4</ele>
        <time>2018-02-22T18:33:18Z</time>
      </trkpt>
      <trkpt lat="62.634731449784" lon="17.977284291903">
        <ele>97.4</ele>
        <time>2018-02-22T18:33:19Z</time>
      </trkpt>
      <trkpt lat="62.634750057602" lon="17.977222936395">
        <ele>97.4</ele>
        <time>2018-02-22T18:33:20Z</time>
      </trkpt>
      <trkpt lat="62.634761876081" lon="17.977157557575">
        <ele>97.2</ele>
        <time>2018-02-22T18:33:21Z</time>
      </trkpt>
      <trkpt lat="62.634767324316" lon="17.977123694699">
        <ele>97</ele>
        <time>2018-02-22T18:33:22Z</time>
      </trkpt>
      <trkpt lat="62.634784507211" lon="17.977058734974">
        <ele>97</ele>
        <time>2018-02-22T18:33:23Z</time>
      </trkpt>
      <trkpt lat="62.634793978758" lon="17.976987153548">
        <ele>97</ele>
        <time>2018-02-22T18:33:24Z</time>
      </trkpt>
      <trkpt lat="62.634804120857" lon="17.976922026185">
        <ele>97</ele>
        <time>2018-02-22T18:33:25Z</time>
      </trkpt>
      <trkpt lat="62.634822141942" lon="17.976854887166">
        <ele>96.8</ele>
        <time>2018-02-22T18:33:26Z</time>
      </trkpt>
      <trkpt lat="62.634847958194" lon="17.976799901902">
        <ele>96.8</ele>
        <time>2018-02-22T18:33:27Z</time>
      </trkpt>
      <trkpt lat="62.634851143316" lon="17.976733936349">
        <ele>96.6</ele>
        <time>2018-02-22T18:33:28Z</time>
      </trkpt>
      <trkpt lat="62.634857848836" lon="17.976661349095">
        <ele>96.6</ele>
        <time>2018-02-22T18:33:29Z</time>
      </trkpt>
      <trkpt lat="62.634868493849" lon="17.976601167053">
        <ele>96.6</ele>
        <time>2018-02-22T18:33:30Z</time>
      </trkpt>
      <trkpt lat="62.634878887405" lon="17.976510642533">
        <ele>96.6</ele>
        <time>2018-02-22T18:33:31Z</time>
      </trkpt>
      <trkpt lat="62.634890789703" lon="17.976416681434">
        <ele>96.6</ele>
        <time>2018-02-22T18:33:32Z</time>
      </trkpt>
      <trkpt lat="62.634899590698" lon="17.976365300387">
        <ele>96.6</ele>
        <time>2018-02-22T18:33:33Z</time>
      </trkpt>
      <trkpt lat="62.634915264851" lon="17.976303609603">
        <ele>96.6</ele>
        <time>2018-02-22T18:33:34Z</time>
      </trkpt>
      <trkpt lat="62.634933118298" lon="17.976228926874">
        <ele>96.4</ele>
        <time>2018-02-22T18:33:35Z</time>
      </trkpt>
      <trkpt lat="62.634951726116" lon="17.976155082335">
        <ele>96.4</ele>
        <time>2018-02-22T18:33:36Z</time>
      </trkpt>
      <trkpt lat="62.63496647826" lon="17.976069000222">
        <ele>96.4</ele>
        <time>2018-02-22T18:33:37Z</time>
      </trkpt>
      <trkpt lat="62.634978632015" lon="17.976010913655">
        <ele>96.2</ele>
        <time>2018-02-22T18:33:38Z</time>
      </trkpt>
      <trkpt lat="62.634997072195" lon="17.975932878166">
        <ele>96</ele>
        <time>2018-02-22T18:33:39Z</time>
      </trkpt>
      <trkpt lat="62.635007801027" lon="17.975846544596">
        <ele>96</ele>
        <time>2018-02-22T18:33:40Z</time>
      </trkpt>
      <trkpt lat="62.635022469352" lon="17.975775382265">
        <ele>95.8</ele>
        <time>2018-02-22T18:33:41Z</time>
      </trkpt>
      <trkpt lat="62.635040741894" lon="17.975686450306">
        <ele>95.4</ele>
        <time>2018-02-22T18:33:42Z</time>
      </trkpt>
      <trkpt lat="62.635049794346" lon="17.975611180844">
        <ele>95.2</ele>
        <time>2018-02-22T18:33:43Z</time>
      </trkpt>
      <trkpt lat="62.635064043576" lon="17.975532307165">
        <ele>95</ele>
        <time>2018-02-22T18:33:44Z</time>
      </trkpt>
      <trkpt lat="62.635076616426" lon="17.975452846753">
        <ele>94.6</ele>
        <time>2018-02-22T18:33:45Z</time>
      </trkpt>
      <trkpt lat="62.635081980842" lon="17.975400208421">
        <ele>94.6</ele>
        <time>2018-02-22T18:33:46Z</time>
      </trkpt>
      <trkpt lat="62.635096230072" lon="17.975307420788">
        <ele>94.6</ele>
        <time>2018-02-22T18:33:47Z</time>
      </trkpt>
      <trkpt lat="62.635105701619" lon="17.975221925408">
        <ele>94.6</ele>
        <time>2018-02-22T18:33:48Z</time>
      </trkpt>
      <trkpt lat="62.635108467646" lon="17.975154451113">
        <ele>94.6</ele>
        <time>2018-02-22T18:33:49Z</time>
      </trkpt>
      <trkpt lat="62.635098325547" lon="17.975045821689">
        <ele>94.4</ele>
        <time>2018-02-22T18:33:50Z</time>
      </trkpt>
      <trkpt lat="62.63508969219" lon="17.974945071251">
        <ele>94.4</ele>
        <time>2018-02-22T18:33:51Z</time>
      </trkpt>
      <trkpt lat="62.63507460477" lon="17.974863180088">
        <ele>94.2</ele>
        <time>2018-02-22T18:33:52Z</time>
      </trkpt>
      <trkpt lat="62.635052979468" lon="17.974777265613">
        <ele>94</ele>
        <time>2018-02-22T18:33:53Z</time>
      </trkpt>
      <trkpt lat="62.635033282003" lon="17.974708617852">
        <ele>93.8</ele>
        <time>2018-02-22T18:33:54Z</time>
      </trkpt>
      <trkpt lat="62.634995060539" lon="17.97462664287">
        <ele>93.6</ele>
        <time>2018-02-22T18:33:55Z</time>
      </trkpt>
      <trkpt lat="62.634982655327" lon="17.974538716739">
        <ele>93.2</ele>
        <time>2018-02-22T18:33:56Z</time>
      </trkpt>
      <trkpt lat="62.634954156867" lon="17.974434613541">
        <ele>93.2</ele>
        <time>2018-02-22T18:33:57Z</time>
      </trkpt>
      <trkpt lat="62.634931777194" lon="17.9743642894">
        <ele>92.8</ele>
        <time>2018-02-22T18:33:58Z</time>
      </trkpt>
      <trkpt lat="62.634921299819" lon="17.974290109585">
        <ele>92.8</ele>
        <time>2018-02-22T18:33:59Z</time>
      </trkpt>
      <trkpt lat="62.634895986481" lon="17.974193885373">
        <ele>92.6</ele>
        <time>2018-02-22T18:34:00Z</time>
      </trkpt>
      <trkpt lat="62.63487846831" lon="17.974117358626">
        <ele>92.2</ele>
        <time>2018-02-22T18:34:01Z</time>
      </trkpt>
      <trkpt lat="62.634863883804" lon="17.97404829177">
        <ele>92</ele>
        <time>2018-02-22T18:34:02Z</time>
      </trkpt>
      <trkpt lat="62.634851310954" lon="17.973975033964">
        <ele>91.6</ele>
        <time>2018-02-22T18:34:03Z</time>
      </trkpt>
      <trkpt lat="62.634835972077" lon="17.973920383976">
        <ele>91.4</ele>
        <time>2018-02-22T18:34:04Z</time>
      </trkpt>
      <trkpt lat="62.634823650684" lon="17.973845030695">
        <ele>91.4</ele>
        <time>2018-02-22T18:34:05Z</time>
      </trkpt>
      <trkpt lat="62.634803617943" lon="17.973773784545">
        <ele>91.4</ele>
        <time>2018-02-22T18:34:06Z</time>
      </trkpt>
      <trkpt lat="62.634792637654" lon="17.973715278883">
        <ele>91.4</ele>
        <time>2018-02-22T18:34:07Z</time>
      </trkpt>
      <trkpt lat="62.634783333745" lon="17.973644703285">
        <ele>91.4</ele>
        <time>2018-02-22T18:34:08Z</time>
      </trkpt>
      <trkpt lat="62.634759277692" lon="17.97359399279">
        <ele>91.4</ele>
        <time>2018-02-22T18:34:09Z</time>
      </trkpt>
      <trkpt lat="62.634744860824" lon="17.97353783406">
        <ele>91.4</ele>
        <time>2018-02-22T18:34:10Z</time>
      </trkpt>
      <trkpt lat="62.634726588282" lon="17.973444878789">
        <ele>91.4</ele>
        <time>2018-02-22T18:34:11Z</time>
      </trkpt>
      <trkpt lat="62.634718206382" lon="17.973358796676">
        <ele>91.2</ele>
        <time>2018-02-22T18:34:12Z</time>
      </trkpt>
      <trkpt lat="62.634702783686" lon="17.97331152276">
        <ele>91</ele>
        <time>2018-02-22T18:34:13Z</time>
      </trkpt>
      <trkpt lat="62.634712422871" lon="17.973221249697">
        <ele>90.8</ele>
        <time>2018-02-22T18:34:14Z</time>
      </trkpt>
      <trkpt lat="62.634722900246" lon="17.973133575023">
        <ele>90.8</ele>
        <time>2018-02-22T18:34:15Z</time>
      </trkpt>
      <trkpt lat="62.634728767576" lon="17.973065513995">
        <ele>90.8</ele>
        <time>2018-02-22T18:34:16Z</time>
      </trkpt>
      <trkpt lat="62.634748716498" lon="17.972950430508">
        <ele>90.8</ele>
        <time>2018-02-22T18:34:17Z</time>
      </trkpt>
      <trkpt lat="62.634758020407" lon="17.972868287888">
        <ele>90.6</ele>
        <time>2018-02-22T18:34:18Z</time>
      </trkpt>
      <trkpt lat="62.634779478071" lon="17.972786312906">
        <ele>90.8</ele>
        <time>2018-02-22T18:34:19Z</time>
      </trkpt>
      <trkpt lat="62.634824572693" lon="17.972626470073">
        <ele>90.8</ele>
        <time>2018-02-22T18:34:21Z</time>
      </trkpt>
      <trkpt lat="62.634850640402" lon="17.972545249462">
        <ele>90.4</ele>
        <time>2018-02-22T18:34:22Z</time>
      </trkpt>
      <trkpt lat="62.634875702283" lon="17.972464280308">
        <ele>90.4</ele>
        <time>2018-02-22T18:34:23Z</time>
      </trkpt>
      <trkpt lat="62.634898165775" lon="17.972392615063">
        <ele>90.2</ele>
        <time>2018-02-22T18:34:24Z</time>
      </trkpt>
      <trkpt lat="62.63492540695" lon="17.97231742942">
        <ele>90</ele>
        <time>2018-02-22T18:34:25Z</time>
      </trkpt>
      <trkpt lat="62.634951474659" lon="17.972234867705">
        <ele>89.8</ele>
        <time>2018-02-22T18:34:26Z</time>
      </trkpt>
      <trkpt lat="62.634972932323" lon="17.972164711202">
        <ele>89.6</ele>
        <time>2018-02-22T18:34:27Z</time>
      </trkpt>
      <trkpt lat="62.634999000032" lon="17.972091537215">
        <ele>89.6</ele>
        <time>2018-02-22T18:34:28Z</time>
      </trkpt>
      <trkpt lat="62.635022134076" lon="17.972009059319">
        <ele>89.4</ele>
        <time>2018-02-22T18:34:29Z</time>
      </trkpt>
      <trkpt lat="62.635045435758" lon="17.971918283342">
        <ele>89.4</ele>
        <time>2018-02-22T18:34:30Z</time>
      </trkpt>
      <trkpt lat="62.635068066888" lon="17.971807977538">
        <ele>89.2</ele>
        <time>2018-02-22T18:34:31Z</time>
      </trkpt>
      <trkpt lat="62.635086255611" lon="17.971688870739">
        <ele>89.2</ele>
        <time>2018-02-22T18:34:32Z</time>
      </trkpt>
      <trkpt lat="62.635099918108" lon="17.971584264627">
        <ele>88.8</ele>
        <time>2018-02-22T18:34:33Z</time>
      </trkpt>
      <trkpt lat="62.635115927537" lon="17.971460631602">
        <ele>88.4</ele>
        <time>2018-02-22T18:34:34Z</time>
      </trkpt>
      <trkpt lat="62.635131266414" lon="17.971345464296">
        <ele>87.8</ele>
        <time>2018-02-22T18:34:35Z</time>
      </trkpt>
      <trkpt lat="62.635146186196" lon="17.971238930347">
        <ele>87</ele>
        <time>2018-02-22T18:34:36Z</time>
      </trkpt>
      <trkpt lat="62.635159513417" lon="17.971125355602">
        <ele>86.2</ele>
        <time>2018-02-22T18:34:37Z</time>
      </trkpt>
      <trkpt lat="62.635173092095" lon="17.971019995119">
        <ele>85.2</ele>
        <time>2018-02-22T18:34:38Z</time>
      </trkpt>
      <trkpt lat="62.635189352981" lon="17.970901391234">
        <ele>84.6</ele>
        <time>2018-02-22T18:34:39Z</time>
      </trkpt>
      <trkpt lat="62.635204188944" lon="17.970796198389">
        <ele>83.8</ele>
        <time>2018-02-22T18:34:40Z</time>
      </trkpt>
      <trkpt lat="62.63521961164" lon="17.970677845961">
        <ele>83.4</ele>
        <time>2018-02-22T18:34:41Z</time>
      </trkpt>
      <trkpt lat="62.635234531422" lon="17.970570473822">
        <ele>83</ele>
        <time>2018-02-22T18:34:42Z</time>
      </trkpt>
      <trkpt lat="62.635253558335" lon="17.970465532434">
        <ele>82.4</ele>
        <time>2018-02-22T18:34:43Z</time>
      </trkpt>
      <trkpt lat="62.63527660856" lon="17.970345922721">
        <ele>82.2</ele>
        <time>2018-02-22T18:34:44Z</time>
      </trkpt>
      <trkpt lat="62.635295132559" lon="17.970237544754">
        <ele>82.4</ele>
        <time>2018-02-22T18:34:45Z</time>
      </trkpt>
      <trkpt lat="62.635312902187" lon="17.970126316941">
        <ele>82.2</ele>
        <time>2018-02-22T18:34:46Z</time>
      </trkpt>
      <trkpt lat="62.635333437842" lon="17.970009221798">
        <ele>82</ele>
        <time>2018-02-22T18:34:47Z</time>
      </trkpt>
      <trkpt lat="62.635355146963" lon="17.969910063921">
        <ele>81.8</ele>
        <time>2018-02-22T18:34:48Z</time>
      </trkpt>
      <trkpt lat="62.635385405622" lon="17.969785425068">
        <ele>81.4</ele>
        <time>2018-02-22T18:34:49Z</time>
      </trkpt>
      <trkpt lat="62.635414826091" lon="17.969679058757">
        <ele>80.8</ele>
        <time>2018-02-22T18:34:50Z</time>
      </trkpt>
      <trkpt lat="62.635442821637" lon="17.969573111541">
        <ele>79.6</ele>
        <time>2018-02-22T18:34:51Z</time>
      </trkpt>
      <trkpt lat="62.635471403916" lon="17.969466493773">
        <ele>79.2</ele>
        <time>2018-02-22T18:34:52Z</time>
      </trkpt>
      <trkpt lat="62.635502249308" lon="17.969365408059">
        <ele>78.8</ele>
        <time>2018-02-22T18:34:53Z</time>
      </trkpt>
      <trkpt lat="62.635534603442" lon="17.9692429485">
        <ele>78.6</ele>
        <time>2018-02-22T18:34:54Z</time>
      </trkpt>
      <trkpt lat="62.63556578411" lon="17.969125266624">
        <ele>78.2</ele>
        <time>2018-02-22T18:34:55Z</time>
      </trkpt>
      <trkpt lat="62.635598641158" lon="17.969010602232">
        <ele>77.8</ele>
        <time>2018-02-22T18:34:56Z</time>
      </trkpt>
      <trkpt lat="62.635633509862" lon="17.968905577025">
        <ele>77.2</ele>
        <time>2018-02-22T18:34:57Z</time>
      </trkpt>
      <trkpt lat="62.635668797661" lon="17.968810023365">
        <ele>76.6</ele>
        <time>2018-02-22T18:34:58Z</time>
      </trkpt>
      <trkpt lat="62.635712215903" lon="17.968701980674">
        <ele>76</ele>
        <time>2018-02-22T18:34:59Z</time>
      </trkpt>
      <trkpt lat="62.635754963593" lon="17.968614892733">
        <ele>75.4</ele>
        <time>2018-02-22T18:35:00Z</time>
      </trkpt>
      <trkpt lat="62.635801650776" lon="17.968543395126">
        <ele>75</ele>
        <time>2018-02-22T18:35:01Z</time>
      </trkpt>
    </trkseg>
  </trk>
</gpx>